[[{"header":{"parameterUnit":"m.s-1","parameterCategory":1,"la1":31.0,"la2":29.5877,"lo1":-88.7671,"lo2":-86.6584,"dy":0.0162,"dx":0.0185,"nx":115,"ny":88,"refTime":"2023-09-26T12:00:00:Z","depth":0,"parameterNumber":2,"parameterNumberName":"U-component_of_WINDS"},"data":[0.0,0.0,0.0,0.0,0.0,0.0,0.0,0.0,0.0,0.0,0.0,0.0,0.0,0.0,0.0,0.0,0.0,0.0,0.0,0.0,0.0,0.0,0.0,0.0,0.0,0.0,0.0,0.0,0.0,0.0,0.0,0.0,0.0,0.0,0.0,0.0,0.0,0.0,0.0,0.0,0.0,0.0,0.0,0.0,0.0,0.0,0.0,0.0,0.0,0.0,0.0,0.0,0.0,0.0,0.0,0.0,0.0,0.0,0.0,0.0,0.0,0.0,0.0,0.0,0.0,0.0,0.0,0.0,0.0,0.0,0.0,0.0,0.0,0.0,0.0,0.0,0.0,0.0,0.0,0.0,0.0,0.0,0.0,0.0,0.0,0.0,0.0,0.0,0.0,0.0,0.0,0.0,0.0,0.0,0.0,0.0,0.0,0.0,0.0,0.0,0.0,0.0,0.0,0.0,0.0,0.0,0.0,0.0,0.0,0.0,0.0,0.0,0.0,0.0,0.0,0.0,0.0,0.0,0.0,0.0,0.0,0.0,0.0,0.0,0.0,0.0,0.0,0.0,0.0,0.0,0.0,0.0,0.0,0.0,0.0,0.0,0.0,0.0,0.0,0.0,0.0,0.0,0.0,0.0,0.0,0.0,0.0,0.0,0.0,0.0,0.0,0.0,0.0,0.0,0.0,0.0,0.0,0.0,0.0,0.0,0.0,0.0,0.0,0.0,0.0,0.0,0.0,0.0,0.0,0.0,0.0,0.0,0.0,0.0,0.0,0.0,0.0,0.0,0.0,0.0,0.0,0.0,0.0,0.0,0.0,0.0,0.0,0.0,0.0,0.0,0.0,0.0,0.0,0.0,0.0,0.0,0.0,0.0,0.0,0.0,0.0,0.0,0.0,0.0,0.0,0.0,0.0,0.0,0.0,0.0,0.0,0.0,0.0,0.0,0.0,0.0,0.0,0.0,0.0,0.0,0.0,0.0,0.0,0.0,0.0,0.0,0.0,0.0,0.0,0.0,0.0,0.0,0.0,0.0,0.0,0.0,0.0,0.0,0.0,0.0,0.0,0.0,0.0,0.0,0.0,0.0,0.0,0.0,0.0,0.0,0.0,0.0,0.0,0.0,0.0,0.0,0.0,0.0,0.0,0.0,0.0,0.0,0.0,0.0,0.0,0.0,0.0,0.0,0.0,0.0,0.0,0.0,0.0,0.0,0.0,0.0,0.0,0.0,0.0,0.0,0.0,0.0,0.0,0.0,0.0,0.0,0.0,0.0,0.0,0.0,0.0,0.0,0.0,0.0,0.0,0.0,0.0,0.0,0.0,0.0,0.0,0.0,0.0,0.0,0.0,0.0,0.0,0.0,0.0,0.0,0.0,0.0,0.0,0.0,0.0,0.0,0.0,0.0,0.0,0.0,0.0,0.0,0.0,0.0,0.0,0.0,0.0,0.0,0.0,0.0,0.0,0.0,0.0,0.0,0.0,0.0,0.0,0.0,0.0,0.0,0.0,0.0,0.0,0.0,0.0,0.0,0.0,0.0,0.0,0.0,0.0,0.0,0.0,0.0,0.0,0.0,0.0,0.0,0.0,0.0,0.0,0.0,0.0,0.0,0.0,0.0,0.0,0.0,0.0,0.0,0.0,0.0,0.0,0.0,0.0,0.0,0.0,0.0,0.0,0.0,0.0,0.0,0.0,0.0,0.0,0.0,0.0,0.0,0.0,0.0,0.0,0.0,0.0,0.0,0.0,0.0,0.0,0.0,0.0,0.0,0.0,0.0,0.0,0.0,0.0,0.0,0.0,0.0,0.0,0.0,0.0,0.0,0.0,0.0,0.0,0.0,0.0,0.0,0.0,0.0,0.0,0.0,0.0,0.0,0.0,0.0,0.0,0.0,0.0,0.0,0.0,0.0,0.0,0.0,0.0,0.0,0.0,0.0,0.0,0.0,0.0,0.0,0.0,0.0,0.0,0.0,0.0,0.0,0.0,0.0,0.0,0.0,0.0,0.0,0.0,0.0,0.0,0.0,0.0,0.0,0.0,0.0,0.0,0.0,0.0,0.0,0.0,0.0,0.0,0.0,0.0,0.0,0.0,0.0,0.0,0.0,0.0,0.0,0.0,0.0,0.0,0.0,0.0,0.0,0.0,0.0,0.0,0.0,0.0,0.0,0.0,0.0,0.0,0.0,0.0,0.0,0.0,0.0,0.0,0.0,0.0,0.0,0.0,0.0,0.0,0.0,0.0,0.0,0.0,0.0,0.0,0.0,0.0,0.0,0.0,0.0,0.0,0.0,0.0,0.0,0.0,0.0,0.0,0.0,0.0,0.0,0.0,0.0,0.0,0.0,0.0,0.0,0.0,0.0,0.0,0.0,0.0,0.0,0.0,0.0,0.0,0.0,0.0,0.0,0.0,0.0,0.0,0.0,0.0,0.0,0.0,0.0,0.0,0.0,0.0,0.0,0.0,0.0,0.0,0.0,0.0,0.0,0.0,0.0,0.0,0.0,0.0,0.0,0.0,0.0,0.0,0.0,0.0,0.0,0.0,0.0,0.0,0.0,0.0,0.0,0.0,0.0,0.0,0.0,0.0,0.0,0.0,0.0,0.0,0.0,0.0,0.0,0.0,0.0,0.0,0.0,0.0,0.0,0.0,0.0,0.0,0.0,0.0,0.0,0.0,0.0,0.0,0.0,0.0,0.0,0.0,0.0,0.0,0.0,0.0,0.0,0.0,0.0,0.0,0.0,0.0,0.0,0.0,0.0,0.0,0.0,0.0,0.0,0.0,0.0,0.0,0.0,0.0,0.0,0.0,0.0,0.0,0.0,0.0,0.0,0.0,0.0,0.0,0.0,0.0,0.0,0.0,0.0,0.0,0.0,0.0,0.0,0.0,0.0,0.0,0.0,0.0,0.0,0.0,0.0,0.0,0.0,0.0,0.0,0.0,0.0,0.0,0.0,0.0,0.0,0.0,0.0,0.0,0.0,0.0,0.0,0.0,0.0,0.0,0.0,0.0,0.0,0.0,0.0,0.0,0.0,0.0,0.0,0.0,0.0,0.0,0.0,0.0,0.0,0.0,0.0,0.0,0.0,0.0,0.0,0.0,0.0,0.0,0.0,0.0,0.0,0.0,0.0,0.0,0.0,0.0,0.0,0.0,0.0,0.0,0.0,0.0,0.0,0.0,0.0,0.0,0.0,0.0,0.0,0.0,0.0,0.0,0.0,0.0,0.0,0.0,0.0,0.0,0.0,0.0,0.0,0.0,0.0,0.0,0.0,0.0,0.0,0.0,0.0,0.0,0.0,0.0,0.0,0.0,0.0,0.0,0.0,0.0,0.0,0.0,0.0,0.0,0.0,0.0,0.0,0.0,0.0,0.0,0.0,0.0,0.0,0.0,0.0,0.0,0.0,0.0,0.0,0.0,0.0,0.0,0.0,0.0,0.0,0.0,0.0,0.0,0.0,0.0,0.0,0.0,0.0,0.0,0.0,0.0,0.0,0.0,0.0,0.0,0.0,0.0,0.0,0.0,0.0,0.0,0.0,0.0,0.0,0.0,0.0,0.0,0.0,0.0,0.0,0.0,0.0,0.0,0.0,0.0,0.0,0.0,0.0,0.0,0.0,0.0,0.0,0.0,0.0,0.0,0.0,0.0,0.0,0.0,0.0,0.0,0.0,0.0,0.0,0.0,0.0,0.0,0.0,0.0,0.0,0.0,0.0,0.0,0.0,0.0,0.0,0.0,0.0,0.0,0.0,0.0,0.0,0.0,0.0,0.0,0.0,0.0,0.0,0.0,0.0,0.0,0.0,0.0,0.0,0.0,0.0,0.0,0.0,0.0,0.0,0.0,0.0,0.0,0.0,0.0,0.0,0.0,0.0,0.0,0.0,0.0,0.0,0.0,0.0,0.0,0.0,0.0,0.0,0.0,0.0,0.0,0.0,0.0,0.0,0.0,0.0,0.0,0.0,0.0,0.0,0.0,0.0,0.0,0.0,0.0,0.0,0.0,0.0,0.0,0.0,0.0,0.0,0.0,0.0,0.0,0.0,0.0,0.0,0.0,0.0,0.0,0.0,0.0,0.0,0.0,0.0,0.0,0.0,0.0,0.0,0.0,0.0,0.0,0.0,0.0,0.0,0.0,0.0,0.0,0.0,0.0,0.0,0.0,0.0,0.0,0.0,0.0,0.0,0.0,0.0,0.0,0.0,0.0,0.0,0.0,0.0,0.0,0.0,0.0,0.0,0.0,0.0,0.0,0.0,0.0,0.0,0.0,0.0,1.663,0.0,0.0,0.0,0.0,0.0,0.0,0.0,0.0,0.0,0.0,0.0,0.0,0.0,0.0,0.0,0.0,0.0,0.0,0.0,0.0,0.0,0.0,0.0,0.0,0.0,0.0,0.0,0.0,0.0,0.0,0.0,0.0,0.0,0.0,0.0,0.0,0.0,0.0,0.0,0.0,0.0,0.0,0.0,0.0,0.0,0.0,0.0,0.0,0.0,0.0,0.0,0.0,0.0,0.0,0.0,0.0,0.0,0.0,0.0,0.0,0.0,0.0,0.0,0.0,0.0,0.0,0.0,0.0,0.0,0.0,0.0,0.0,0.0,0.0,0.0,0.0,0.0,0.0,0.0,0.0,0.0,0.0,0.0,0.0,0.0,0.0,0.0,0.0,0.0,0.0,0.0,0.0,0.0,0.0,0.0,0.0,0.0,0.0,0.0,0.0,0.0,0.0,0.0,0.0,0.0,0.0,0.0,0.0,0.0,0.0,1.9456,1.9637,1.9058,1.8484,1.7935,0.0,0.0,0.0,0.0,0.0,0.0,0.0,0.0,0.0,0.0,0.0,0.0,0.0,0.0,0.0,0.0,0.0,0.0,0.0,0.0,0.0,0.0,0.0,0.0,0.0,0.0,0.0,0.0,0.0,0.0,0.0,0.0,0.0,0.0,0.0,0.0,0.0,0.0,0.0,0.0,0.0,0.0,0.0,0.0,0.0,0.0,0.0,0.0,0.0,0.0,0.0,0.0,0.0,0.0,0.0,0.0,0.0,0.0,0.0,0.0,0.0,0.0,0.0,0.0,0.0,0.0,0.0,0.0,0.0,0.0,0.0,0.0,0.0,0.0,0.0,0.0,0.0,0.0,0.0,0.0,0.0,0.0,0.0,0.0,0.0,0.0,0.0,0.0,0.0,0.0,0.0,0.0,0.0,0.0,0.0,0.0,0.0,0.0,0.0,0.0,0.0,0.0,0.0,0.0,0.0,0.0,0.0,0.0,0.0,0.0,0.0,0.0,1.9752,1.9177,1.8771,0.0,0.0,0.0,0.0,0.0,0.0,0.0,0.0,0.0,0.0,0.0,0.0,0.0,0.0,0.0,0.0,0.0,0.0,0.0,0.0,0.0,0.0,0.0,0.0,0.0,0.0,0.0,0.0,0.0,0.0,0.0,0.0,0.0,0.0,0.0,0.0,0.0,0.0,0.0,0.0,0.0,0.0,0.0,0.0,0.0,0.0,0.0,0.0,0.0,0.0,0.0,0.0,0.0,0.0,0.0,0.0,0.0,0.0,0.0,0.0,0.0,0.0,0.0,0.0,0.0,0.0,0.0,0.0,0.0,0.0,0.0,0.0,0.0,0.0,0.0,0.0,0.0,0.0,0.0,0.0,0.0,0.0,0.0,0.0,0.0,0.0,0.0,0.0,0.0,0.0,0.0,0.0,0.0,0.0,0.0,0.0,0.0,0.0,0.0,0.0,0.0,0.0,0.0,0.0,0.0,0.0,0.0,0.0,0.0,0.0,2.0097,2.0482,2.0406,0.0,1.8294,0.0,0.0,0.0,0.0,0.0,0.0,0.0,0.0,0.0,0.0,0.0,0.0,0.0,0.0,0.0,0.0,0.0,0.0,0.0,0.0,0.0,0.0,0.0,0.0,0.0,0.0,0.0,0.0,0.0,0.0,0.0,0.0,0.0,0.0,0.0,0.0,0.0,0.0,0.0,0.0,0.0,0.0,0.0,0.0,0.0,0.0,0.0,0.0,0.0,0.0,0.0,0.0,0.0,0.0,0.0,0.0,0.0,0.0,0.0,0.0,0.0,0.0,0.0,0.0,0.0,0.0,0.0,0.0,0.0,0.0,0.0,0.0,0.0,0.0,0.0,0.0,0.0,0.0,0.0,0.0,0.0,0.0,0.0,0.0,0.0,0.0,0.0,0.0,0.0,0.0,0.0,0.0,0.0,0.0,0.0,0.0,0.0,0.0,0.0,0.0,0.0,0.0,0.0,0.0,0.0,0.0,0.0,0.0,0.0,0.0,2.1159,2.1562,2.1104,2.0025,0.0,0.0,0.0,0.0,0.0,0.0,0.0,0.0,0.0,0.0,0.0,0.0,0.0,0.0,0.0,0.0,0.0,0.0,0.0,0.0,0.0,0.0,0.0,0.0,0.0,0.0,0.0,0.0,0.0,0.0,0.0,0.0,0.0,0.0,0.0,0.0,0.0,0.0,0.0,0.0,0.0,0.0,0.0,0.0,0.0,0.0,0.0,0.0,0.0,0.0,0.0,0.0,0.0,0.0,0.0,0.0,0.0,0.0,0.0,0.0,0.0,0.0,0.0,0.0,0.0,0.0,0.0,0.0,0.0,0.0,0.0,0.0,0.0,0.0,0.0,0.0,0.0,0.0,0.0,0.0,0.0,0.0,0.0,0.0,0.0,0.0,0.0,0.0,0.0,0.0,0.0,0.0,0.0,0.0,0.0,0.0,0.0,0.0,0.0,0.0,0.0,0.0,0.0,0.0,0.0,0.0,0.0,0.0,0.0,0.0,2.1343,2.1892,2.224,2.153,2.0243,1.8437,0.0,0.0,0.0,0.0,0.0,0.0,0.0,0.0,0.0,0.0,0.0,0.0,0.0,0.0,0.0,0.0,0.0,0.0,0.0,0.0,0.0,0.0,0.0,0.0,0.0,0.0,0.0,0.0,0.0,0.0,0.0,0.0,0.0,0.0,0.0,0.0,0.0,0.0,0.0,0.0,0.0,0.0,0.0,0.0,0.0,0.0,0.0,0.0,0.0,0.0,0.0,0.0,0.0,0.0,0.0,0.0,0.0,0.0,0.0,0.0,0.0,0.0,0.0,0.0,0.0,0.0,0.0,0.0,0.0,0.0,0.0,0.0,0.0,0.0,0.0,0.0,0.0,0.0,0.0,0.0,0.0,0.0,0.0,0.0,0.0,0.0,0.0,0.0,0.0,0.0,0.0,0.0,0.0,0.0,0.0,0.0,0.0,0.0,0.0,0.0,0.0,0.0,0.0,0.0,0.0,0.0,0.0,0.0,2.1016,2.1489,2.1911,2.2277,2.153,2.0371,0.0,0.0,0.0,0.0,0.0,0.0,0.0,0.0,0.0,0.0,0.0,0.0,0.0,0.0,0.0,0.0,0.0,0.0,0.0,0.0,0.0,0.0,0.0,0.0,0.0,0.0,0.0,0.0,0.0,0.0,0.0,0.0,0.0,0.0,0.0,0.0,0.0,0.0,0.0,0.0,0.0,0.0,0.0,0.0,0.0,0.0,0.0,0.0,0.0,0.0,0.0,0.0,0.0,0.0,0.0,0.0,0.0,0.0,0.0,0.0,0.0,0.0,0.0,0.0,0.0,0.0,0.0,0.0,0.0,0.0,0.0,0.0,0.0,0.0,0.0,0.0,0.0,0.0,0.0,0.0,0.0,0.0,0.0,0.0,0.0,0.0,0.0,0.0,0.0,0.0,0.0,0.0,0.0,0.0,0.0,0.0,0.0,0.0,0.0,0.0,0.0,0.0,0.0,0.0,0.0,0.0,0.0,0.0,0.0,2.0701,2.1851,2.2529,2.2638,2.1888,2.0643,0.0,0.0,0.0,0.0,0.0,0.0,0.0,0.0,0.0,0.0,0.0,0.0,0.0,0.0,0.0,0.0,0.0,0.0,0.0,0.0,0.0,0.0,0.0,0.0,0.0,0.0,0.0,0.0,0.0,0.0,0.0,0.0,0.0,0.0,0.0,0.0,0.0,0.0,0.0,0.0,0.0,0.0,0.0,0.0,0.0,0.0,0.0,0.0,0.0,0.0,0.0,0.0,0.0,0.0,0.0,0.0,0.0,0.0,0.0,0.0,0.0,0.0,0.0,0.0,0.0,0.0,0.0,0.0,0.0,0.0,0.0,0.0,0.0,0.0,0.0,0.0,0.0,0.0,0.0,0.0,0.0,0.0,0.0,0.0,0.0,0.0,0.0,0.0,0.0,0.0,0.0,0.0,0.0,0.0,0.0,0.0,0.0,0.0,0.0,0.0,0.0,0.0,0.0,0.0,0.0,0.0,0.0,0.0,0.0,2.1229,0.0,2.3023,2.2876,2.2108,2.0786,0.0,0.0,0.0,0.0,0.0,0.0,0.0,0.0,0.0,0.0,0.0,0.0,0.0,0.0,0.0,0.0,0.0,0.0,0.0,0.0,0.0,0.0,0.0,0.0,0.0,0.0,0.0,0.0,0.0,0.0,0.0,0.0,0.0,0.0,0.0,0.0,0.0,0.0,0.0,0.0,0.0,0.0,0.0,0.0,0.0,0.0,0.0,0.0,0.0,0.0,0.0,0.0,0.0,0.0,0.0,0.0,0.0,0.0,0.0,0.0,0.0,0.0,0.0,0.0,0.0,0.0,0.0,0.0,0.0,0.0,0.0,0.0,0.0,0.0,0.0,0.0,0.0,0.0,0.0,0.0,0.0,0.0,0.0,0.0,0.0,0.0,0.0,0.0,0.0,0.0,0.0,0.0,0.0,0.0,0.0,0.0,0.0,0.0,0.0,0.0,0.0,0.0,0.0,0.0,0.0,0.0,0.0,0.0,2.0482,2.2767,2.3261,2.3297,2.2913,2.2126,2.0786,0.0,0.0,0.0,0.0,0.0,0.0,0.0,0.0,0.0,0.0,0.0,0.0,0.0,0.0,0.0,0.0,0.0,0.0,0.0,0.0,0.0,0.0,0.0,0.0,0.0,0.0,0.0,0.0,0.0,0.0,0.0,0.0,0.0,0.0,0.0,0.0,0.0,0.0,0.0,0.0,0.0,0.0,0.0,0.0,0.0,0.0,0.0,0.0,0.0,0.0,0.0,0.0,0.0,0.0,0.0,0.0,0.0,0.0,0.0,0.0,0.0,0.0,0.0,0.0,0.0,0.0,0.0,0.0,0.0,0.0,0.0,0.0,0.0,0.0,0.0,0.0,0.0,0.0,0.0,0.0,0.0,0.0,0.0,0.0,0.0,0.0,0.0,0.0,0.0,0.0,0.0,0.0,0.0,0.0,0.0,0.0,0.0,0.0,0.0,0.0,0.0,0.0,0.0,0.0,0.0,0.0,0.0,0.0,0.0,2.2858,2.3297,2.3297,2.2895,2.1971,2.0638,0.0,0.0,0.0,0.0,0.0,0.0,0.0,0.0,0.0,0.0,0.0,0.0,0.0,0.0,0.0,0.0,0.0,0.0,0.0,0.0,0.0,0.0,0.0,0.0,0.0,0.0,0.0,0.0,0.0,0.0,0.0,0.0,0.0,0.0,0.0,0.0,0.0,0.0,0.0,0.0,0.0,0.0,0.0,0.0,0.0,0.0,0.0,0.0,0.0,0.0,0.0,0.0,0.0,0.0,0.0,0.0,0.0,0.0,0.0,0.0,0.0,0.0,0.0,0.0,0.0,0.0,0.0,0.0,0.0,0.0,0.0,0.0,0.0,0.0,0.0,0.0,0.0,0.0,0.0,0.0,0.0,0.0,0.0,0.0,0.0,0.0,0.0,0.0,0.0,0.0,0.0,0.0,0.0,0.0,0.0,0.0,0.0,0.0,0.0,0.0,0.0,0.0,0.0,0.0,0.0,0.0,0.0,0.0,0.0,2.3208,2.3468,2.3487,2.3232,2.224,2.0753,1.8836,0.0,0.0,0.0,0.0,0.0,0.0,0.0,0.0,0.0,0.0,0.0,0.0,0.0,0.0,0.0,0.0,0.0,0.0,0.0,0.0,0.0,0.0,0.0,0.0,0.0,0.0,0.0,0.0,0.0,0.0,0.0,0.0,0.0,0.0,0.0,0.0,0.0,0.0,0.0,0.0,0.0,0.0,0.0,0.0,0.0,0.0,0.0,0.0,0.0,0.0,0.0,0.0,0.0,0.0,0.0,0.0,0.0,0.0,0.0,0.0,0.0,0.0,0.0,0.0,0.0,0.0,0.0,0.0,0.0,0.0,0.0,0.0,0.0,0.0,0.0,0.0,0.0,0.0,0.0,0.0,0.0,0.0,0.0,0.0,0.0,0.0,0.0,0.0,0.0,0.0,0.0,0.0,0.0,0.0,0.0,0.0,0.0,0.0,0.0,0.0,0.0,0.0,0.0,0.0,0.0,0.0,0.0,0.0,2.389,2.3791,2.3745,2.3784,2.2677,2.1042,0.0,0.0,0.0,0.0,0.0,0.0,0.0,0.0,0.0,0.0,0.0,0.0,0.0,0.0,0.0,0.0,0.0,0.0,0.0,0.0,0.0,0.0,0.0,0.0,0.0,0.0,0.0,0.0,0.0,0.0,0.0,0.0,0.0,0.0,0.0,0.0,0.0,0.0,0.0,0.0,0.0,0.0,0.0,0.0,0.0,0.0,0.0,0.0,0.0,0.0,0.0,0.0,0.0,0.0,0.0,0.0,0.0,0.0,0.0,0.0,0.0,0.0,0.0,0.0,0.0,0.0,0.0,0.0,0.0,0.0,0.0,0.0,0.0,0.0,0.0,0.0,0.0,0.0,0.0,0.0,0.0,0.0,0.0,0.0,0.0,0.0,0.0,0.0,0.0,0.0,0.0,0.0,0.0,0.0,0.0,0.0,0.0,0.0,0.0,0.0,0.0,0.0,0.0,0.0,0.0,0.0,0.0,0.0,0.0,2.3922,2.4081,2.4073,2.3913,2.2688,2.1109,0.0,0.0,0.0,0.0,0.0,0.0,0.0,0.0,0.0,0.0,0.0,0.0,0.0,0.0,0.0,0.0,0.0,0.0,0.0,0.0,0.0,0.0,0.0,0.0,0.0,0.0,0.0,0.0,0.0,0.0,0.0,0.0,0.0,0.0,0.0,0.0,0.0,0.0,0.0,0.0,0.0,0.0,0.0,0.0,0.0,0.0,0.0,0.0,0.0,0.0,0.0,0.0,0.0,0.0,0.0,0.0,0.0,0.0,0.0,0.0,0.0,0.0,0.0,0.0,0.0,0.0,0.0,0.0,0.0,0.0,0.0,0.0,0.0,0.0,0.0,0.0,0.0,0.0,0.0,0.0,0.0,0.0,0.0,0.0,0.0,0.0,0.0,0.0,0.0,0.0,0.0,0.0,0.0,0.0,0.0,0.0,0.0,0.0,0.0,0.0,0.0,0.0,0.0,0.0,0.0,0.0,0.0,0.0,2.246,2.3722,2.4305,2.4345,2.3822,2.2754,2.1228,0.0,0.0,0.0,0.0,0.0,0.0,0.0,0.0,0.0,0.0,0.0,0.0,0.0,0.0,0.0,0.0,0.0,0.0,0.0,0.0,0.0,0.0,0.0,0.0,0.0,0.0,0.0,0.0,0.0,0.0,0.0,0.0,0.0,0.0,0.0,0.0,0.0,0.0,0.0,0.0,0.0,0.0,0.0,0.0,0.0,0.0,0.0,0.0,0.0,0.0,0.0,0.0,0.0,0.0,0.0,0.0,0.0,0.0,0.0,0.0,0.0,0.0,0.0,0.0,0.0,0.0,0.0,0.0,0.0,0.0,0.0,0.0,0.0,0.0,0.0,0.0,0.0,0.0,0.0,0.0,0.0,0.0,0.0,0.0,0.0,0.0,0.0,0.0,0.0,0.0,0.0,0.0,0.0,0.0,0.0,0.0,0.0,0.0,0.0,0.0,0.0,0.0,0.0,0.0,0.0,0.0,0.0,0.0,2.2396,2.3348,2.4349,2.445,2.3598,2.2792,2.1309,0.0,0.0,0.0,0.0,0.0,0.0,0.0,0.0,0.0,0.0,0.0,0.0,0.0,0.0,0.0,0.0,0.0,0.0,0.0,0.0,0.0,0.0,0.0,0.0,0.0,0.0,0.0,0.0,0.0,0.0,0.0,0.0,0.0,0.0,0.0,0.0,0.0,0.0,0.0,0.0,0.0,0.0,0.0,0.0,0.0,0.0,0.0,0.0,0.0,0.0,0.0,0.0,0.0,0.0,0.0,0.0,0.0,0.0,0.0,0.0,0.0,0.0,0.0,0.0,0.0,0.0,0.0,0.0,0.0,0.0,0.0,0.0,0.0,0.0,0.0,0.0,0.0,0.0,0.0,0.0,0.0,0.0,0.0,0.0,0.0,0.0,0.0,0.0,0.0,0.0,0.0,0.0,0.0,0.0,0.0,0.0,0.0,0.0,0.0,0.0,0.0,0.0,0.0,0.0,0.0,0.0,0.0,0.0,2.1978,2.3043,2.3602,2.3808,2.361,2.2676,2.131,0.0,0.0,0.0,0.0,0.0,0.0,0.0,0.0,0.0,0.0,0.0,0.0,0.0,0.0,0.0,0.0,0.0,0.0,0.0,0.0,0.0,0.0,0.0,0.0,0.0,0.0,0.0,0.0,0.0,0.0,0.0,0.0,0.0,0.0,0.0,0.0,0.0,0.0,0.0,0.0,0.0,0.0,0.0,0.0,0.0,0.0,0.0,0.0,2.2791,0.0,0.0,0.0,0.0,0.0,0.0,0.0,0.0,0.0,0.0,0.0,0.0,0.0,0.0,0.0,0.0,0.0,0.0,0.0,0.0,0.0,0.0,0.0,0.0,0.0,0.0,0.0,0.0,0.0,0.0,0.0,0.0,0.0,0.0,0.0,0.0,0.0,0.0,0.0,0.0,0.0,0.0,0.0,0.0,0.0,0.0,0.0,0.0,0.0,0.0,0.0,0.0,0.0,0.0,0.0,0.0,0.0,0.0,0.0,2.1661,2.256,2.3263,2.3383,2.2946,2.2131,2.1052,0.0,0.0,0.0,0.0,0.0,0.0,0.0,0.0,0.0,0.0,0.0,0.0,0.0,0.0,0.0,0.0,0.0,0.0,0.0,0.0,0.0,0.0,0.0,0.0,0.0,0.0,0.0,0.0,0.0,0.0,0.0,0.0,0.0,0.0,0.0,0.0,0.0,0.0,0.0,0.0,0.0,0.0,0.0,0.0,0.0,0.0,0.0,0.0,0.0,0.0,0.0,0.0,0.0,0.0,0.0,0.0,0.0,0.0,0.0,0.0,0.0,0.0,0.0,0.0,0.0,0.0,0.0,0.0,0.0,0.0,0.0,0.0,0.0,0.0,0.0,0.0,0.0,0.0,0.0,0.0,0.0,0.0,0.0,0.0,0.0,0.0,0.0,0.0,0.0,0.0,0.0,0.0,0.0,0.0,0.0,0.0,0.0,0.0,0.0,0.0,0.0,0.0,0.0,0.0,0.0,0.0,0.0,2.0269,2.139,2.2126,2.3034,2.315,2.2287,2.1569,2.0729,1.9725,0.0,0.0,0.0,0.0,0.0,0.0,0.0,0.0,0.0,0.0,0.0,0.0,0.0,0.0,0.0,0.0,0.0,0.0,0.0,0.0,0.0,0.0,0.0,0.0,0.0,0.0,0.0,0.0,0.0,0.0,0.0,0.0,0.0,0.0,0.0,0.0,0.0,0.0,2.0762,2.2267,0.0,0.0,0.0,0.0,0.0,0.0,0.0,0.0,2.4238,0.0,0.0,0.0,0.0,0.0,0.0,0.0,0.0,0.0,0.0,0.0,0.0,0.0,0.0,0.0,0.0,0.0,0.0,0.0,0.0,0.0,0.0,0.0,0.0,0.0,0.0,0.0,0.0,0.0,0.0,0.0,0.0,0.0,0.0,0.0,0.0,0.0,0.0,0.0,0.0,0.0,0.0,0.0,0.0,0.0,0.0,0.0,0.0,0.0,0.0,0.0,0.0,0.0,0.0,0.0,0.0,1.8635,1.9998,2.116,2.2171,2.2816,2.2961,2.255,2.1686,2.0748,1.9773,0.0,0.0,0.0,0.0,0.0,0.0,0.0,0.0,0.0,0.0,0.0,0.0,0.0,0.0,0.0,0.0,0.0,0.0,0.0,0.0,0.0,0.0,0.0,0.0,0.0,0.0,0.0,0.0,0.0,0.0,0.0,0.0,0.0,0.0,0.0,0.0,0.0,0.0,0.0,2.3088,2.3867,0.0,0.0,0.0,0.0,0.0,0.0,0.0,0.0,2.4512,0.0,0.0,0.0,0.0,0.0,0.0,0.0,0.0,0.0,0.0,0.0,0.0,0.0,0.0,0.0,0.0,0.0,0.0,0.0,0.0,0.0,0.0,0.0,0.0,0.0,0.0,0.0,0.0,0.0,0.0,0.0,0.0,0.0,0.0,0.0,0.0,0.0,0.0,0.0,0.0,0.0,0.0,0.0,0.0,0.0,0.0,0.0,0.0,0.0,0.0,0.0,0.0,0.0,0.0,0.0,1.8425,1.99,2.1141,2.2184,2.2784,2.2886,2.2403,2.1628,2.0603,0.0,0.0,0.0,0.0,0.0,0.0,0.0,0.0,0.0,0.0,0.0,0.0,0.0,0.0,0.0,0.0,0.0,0.0,0.0,0.0,0.0,0.0,0.0,0.0,0.0,0.0,0.0,0.0,0.0,0.0,0.0,0.0,0.0,0.0,0.0,0.0,0.0,0.0,0.0,0.0,2.3769,2.4711,2.5352,0.0,0.0,0.0,0.0,0.0,0.0,2.5586,2.5508,0.0,0.0,0.0,0.0,0.0,0.0,0.0,0.0,0.0,0.0,0.0,0.0,0.0,0.0,0.0,0.0,0.0,0.0,0.0,0.0,0.0,0.0,0.0,0.0,0.0,0.0,0.0,0.0,0.0,0.0,0.0,0.0,0.0,0.0,0.0,0.0,0.0,0.0,0.0,0.0,0.0,0.0,0.0,0.0,0.0,0.0,0.0,0.0,0.0,0.0,0.0,0.0,0.0,0.0,0.0,1.8205,1.9742,2.0988,2.196,2.2599,2.2597,2.2004,2.1365,2.0277,0.0,0.0,0.0,0.0,0.0,0.0,0.0,0.0,0.0,0.0,0.0,0.0,0.0,0.0,0.0,0.0,0.0,0.0,0.0,0.0,0.0,0.0,0.0,0.0,0.0,0.0,0.0,0.0,0.0,0.0,0.0,0.0,0.0,0.0,0.0,0.0,0.0,0.0,0.0,0.0,0.0,2.5434,2.6367,2.6523,0.0,0.0,0.0,0.0,2.6641,2.6666,0.0,0.0,0.0,0.0,0.0,0.0,0.0,0.0,0.0,0.0,0.0,0.0,0.0,0.0,0.0,0.0,0.0,0.0,0.0,0.0,0.0,0.0,0.0,0.0,0.0,0.0,0.0,0.0,0.0,0.0,0.0,0.0,0.0,0.0,0.0,0.0,0.0,0.0,0.0,0.0,0.0,0.0,0.0,0.0,0.0,0.0,0.0,0.0,0.0,0.0,0.0,0.0,0.0,0.0,0.0,0.0,1.7992,1.9273,2.0371,2.1286,2.1875,2.1934,2.1329,2.0738,1.9778,0.0,0.0,0.0,0.0,0.0,0.0,0.0,0.0,0.0,0.0,0.0,0.0,0.0,0.0,0.0,0.0,0.0,0.0,0.0,0.0,0.0,0.0,0.0,0.0,0.0,0.0,0.0,0.0,0.0,0.0,0.0,0.0,0.0,0.0,0.0,0.0,0.0,0.0,0.0,0.0,0.0,2.5551,2.6758,2.6934,2.7207,0.0,0.0,2.7545,2.7545,2.7545,0.0,0.0,0.0,0.0,0.0,0.0,0.0,0.0,0.0,0.0,0.0,0.0,0.0,0.0,0.0,0.0,0.0,0.0,0.0,0.0,0.0,0.0,0.0,0.0,0.0,0.0,0.0,0.0,0.0,0.0,0.0,0.0,0.0,0.0,0.0,0.0,0.0,0.0,0.0,0.0,0.0,0.0,0.0,0.0,0.0,0.0,0.0,0.0,0.0,0.0,0.0,0.0,0.0,0.0,0.0,1.6471,1.7986,1.9388,2.0467,2.118,2.1796,2.1824,2.1208,2.0621,1.9612,0.0,0.0,0.0,0.0,0.0,0.0,0.0,0.0,0.0,0.0,0.0,0.0,0.0,0.0,0.0,0.0,0.0,0.0,0.0,0.0,0.0,0.0,0.0,0.0,0.0,0.0,0.0,0.0,0.0,0.0,0.0,0.0,0.0,0.0,0.0,0.0,0.0,0.0,0.0,0.0,0.0,0.0,2.7572,2.7985,0.0,0.0,0.0,2.8777,2.8777,0.0,0.0,0.0,0.0,0.0,0.0,0.0,0.0,0.0,0.0,0.0,0.0,0.0,0.0,0.0,0.0,0.0,0.0,0.0,0.0,0.0,0.0,0.0,0.0,0.0,0.0,0.0,0.0,0.0,0.0,0.0,0.0,0.0,0.0,0.0,0.0,0.0,0.0,0.0,0.0,0.0,0.0,0.0,0.0,0.0,0.0,0.0,0.0,0.0,0.0,0.0,0.0,0.0,0.0,0.0,0.0,0.0,1.7892,1.9265,2.0261,2.0939,2.1396,2.1423,2.0953,2.0289,0.0,0.0,0.0,0.0,0.0,0.0,0.0,0.0,0.0,0.0,0.0,0.0,0.0,0.0,0.0,0.0,0.0,0.0,0.0,0.0,0.0,0.0,0.0,0.0,0.0,0.0,0.0,1.7667,0.0,0.0,0.0,0.0,0.0,0.0,0.0,0.0,0.0,0.0,0.0,0.0,0.0,0.0,2.689,2.8188,2.8814,2.9335,0.0,0.0,2.9657,2.9657,2.8959,2.8249,0.0,0.0,0.0,0.0,0.0,0.0,0.0,0.0,0.0,0.0,0.0,0.0,0.0,0.0,0.0,0.0,0.0,0.0,0.0,0.0,0.0,0.0,0.0,0.0,0.0,0.0,0.0,0.0,0.0,0.0,0.0,0.0,0.0,0.0,0.0,0.0,0.0,0.0,0.0,0.0,0.0,0.0,0.0,0.0,0.0,0.0,0.0,0.0,0.0,0.0,0.0,0.0,0.0,0.0,0.0,1.7607,1.8532,1.9401,2.0217,2.0298,2.0298,2.0244,1.9428,1.8521,0.0,0.0,0.0,0.0,0.0,0.0,0.0,0.0,0.0,0.0,0.0,0.0,0.0,0.0,0.0,0.0,0.0,0.0,0.0,0.0,0.0,0.0,0.0,0.0,0.0,0.0,0.0,0.0,0.0,0.0,0.0,0.0,0.0,0.0,0.0,0.0,0.0,0.0,0.0,0.0,0.0,2.6725,2.836,2.8918,2.9646,0.0,0.0,2.9875,2.9905,2.9231,2.8451,2.7868,0.0,0.0,0.0,0.0,0.0,0.0,0.0,0.0,0.0,0.0,0.0,0.0,0.0,0.0,0.0,0.0,0.0,0.0,0.0,0.0,0.0,0.0,0.0,0.0,0.0,0.0,0.0,0.0,0.0,0.0,0.0,0.0,0.0,0.0,0.0,0.0,0.0,0.0,0.0,0.0,0.0,0.0,0.0,0.0,0.0,0.0,0.0,0.0,0.0,0.0,0.0,0.0,0.0,1.6382,1.7595,1.8464,1.9236,1.9933,2.0117,2.0117,1.9943,1.9263,1.8478,0.0,0.0,0.0,0.0,0.0,0.0,0.0,0.0,0.0,0.0,0.0,0.0,0.0,0.0,0.0,0.0,0.0,0.0,0.0,0.0,0.0,0.0,0.0,0.0,0.0,0.0,0.0,0.0,1.9238,1.9593,1.9818,0.0,0.0,0.0,0.0,0.0,0.0,0.0,0.0,0.0,0.0,2.7583,2.9201,2.9603,0.0,0.0,3.0846,3.0543,3.0309,2.9798,2.9098,2.8073,2.7127,0.0,0.0,0.0,0.0,0.0,0.0,0.0,0.0,0.0,0.0,0.0,0.0,0.0,0.0,0.0,0.0,0.0,0.0,0.0,0.0,0.0,0.0,0.0,0.0,0.0,0.0,0.0,0.0,0.0,0.0,0.0,0.0,0.0,0.0,0.0,0.0,0.0,0.0,0.0,0.0,0.0,0.0,0.0,0.0,0.0,0.0,0.0,0.0,0.0,0.0,0.0,0.0,1.65,1.7595,1.8384,1.909,1.9786,1.9907,1.992,1.9786,1.9145,1.845,0.0,0.0,0.0,0.0,0.0,0.0,0.0,0.0,0.0,0.0,0.0,0.0,0.0,0.0,0.0,0.0,0.0,0.0,0.0,0.0,0.0,0.0,0.0,0.0,0.0,0.0,0.0,0.0,1.9712,1.997,2.0248,0.0,0.0,0.0,0.0,0.0,0.0,0.0,0.0,0.0,0.0,2.8051,2.9579,2.996,3.0395,3.1084,3.1065,3.089,3.0459,2.9983,2.9319,2.838,0.0,0.0,0.0,0.0,0.0,0.0,0.0,0.0,0.0,0.0,0.0,0.0,0.0,0.0,0.0,0.0,0.0,0.0,0.0,0.0,0.0,0.0,0.0,0.0,0.0,0.0,0.0,0.0,0.0,0.0,1.4548,0.0,0.0,0.0,0.0,0.0,0.0,0.0,0.0,0.0,0.0,0.0,0.0,0.0,0.0,0.0,0.0,0.0,0.0,0.0,0.0,0.0,0.0,1.6725,1.7595,1.821,1.8946,1.976,1.9562,1.9562,1.976,1.8958,1.8357,1.7969,0.0,0.0,0.0,0.0,0.0,0.0,0.0,0.0,0.0,0.0,0.0,0.0,0.0,0.0,0.0,0.0,0.0,0.0,0.0,0.0,0.0,0.0,0.0,0.0,0.0,0.0,2.0411,2.0484,2.0484,0.0,0.0,0.0,0.0,0.0,0.0,0.0,0.0,0.0,0.0,2.648,2.7793,2.9402,2.9959,3.0492,3.1276,3.1043,3.0675,3.0272,2.9586,2.8976,0.0,0.0,0.0,0.0,0.0,0.0,0.0,0.0,0.0,0.0,0.0,0.0,0.0,0.0,0.0,0.0,0.0,0.0,0.0,0.0,0.0,0.0,0.0,0.0,0.0,0.0,0.0,1.4348,1.4372,0.0,0.0,0.0,0.0,0.0,0.0,0.0,0.0,0.0,0.0,0.0,1.7569,1.7543,0.0,0.0,0.0,0.0,0.0,0.0,0.0,0.0,0.0,0.0,0.0,0.0,1.6819,1.7836,1.8304,1.8853,1.9508,1.9441,1.9441,1.9535,1.9038,1.8357,1.7475,0.0,0.0,0.0,0.0,0.0,0.0,0.0,0.0,0.0,0.0,0.0,0.0,0.0,0.0,0.0,0.0,0.0,0.0,0.0,0.0,0.0,0.0,0.0,0.0,0.0,2.0353,0.0,0.0,0.0,0.0,0.0,0.0,0.0,0.0,0.0,0.0,0.0,2.5388,2.6453,2.7646,2.8773,2.9837,3.0332,3.0791,0.0,0.0,0.0,0.0,0.0,0.0,0.0,0.0,0.0,0.0,0.0,0.0,0.0,0.0,2.7463,2.6398,2.6104,2.5986,2.5986,0.0,0.0,0.0,0.0,0.0,0.0,0.0,0.0,0.0,0.0,0.0,0.0,0.0,0.0,1.5093,0.0,1.527,0.0,0.0,0.0,0.0,0.0,0.0,0.0,0.0,1.8033,1.8433,1.8636,1.8623,1.8623,0.0,1.825,1.7502,0.0,0.0,0.0,0.0,0.0,0.0,0.0,0.0,1.7154,1.7996,1.8409,1.8931,1.9508,1.9441,1.9441,1.9535,1.9132,1.841,1.7367,1.674,1.6166,0.0,0.0,0.0,0.0,0.0,0.0,0.0,0.0,0.0,0.0,0.0,0.0,0.0,0.0,0.0,0.0,0.0,0.0,0.0,0.0,0.0,0.0,0.0,2.1065,0.0,0.0,0.0,0.0,0.0,0.0,0.0,0.0,0.0,2.4624,2.5315,2.627,2.7481,2.8436,2.9324,3.0277,0.0,0.0,0.0,0.0,0.0,0.0,0.0,3.0185,2.9537,2.9195,2.903,2.903,2.9232,2.9397,2.9415,0.0,0.0,2.7673,2.7444,2.7444,2.7416,2.7416,2.7463,2.7444,2.7416,2.7518,0.0,0.0,0.0,0.0,0.0,0.0,0.0,0.0,1.5865,1.603,0.0,1.6081,0.0,0.0,0.0,0.0,0.0,1.6634,0.0,0.0,1.8646,1.9223,1.9767,1.9797,1.981,1.977,1.9223,1.8783,1.8464,1.7355,0.0,0.0,0.0,0.0,0.0,0.0,1.7742,1.8076,1.8637,1.9183,1.9786,1.9575,1.9562,1.9773,1.921,1.8531,1.7689,1.7582,1.7048,1.5915,1.5821,0.0,0.0,0.0,0.0,0.0,0.0,0.0,0.0,0.0,0.0,0.0,0.0,0.0,0.0,0.0,0.0,0.0,0.0,0.0,0.0,2.1401,0.0,0.0,0.0,0.0,0.0,0.0,0.0,0.0,0.0,0.0,2.5572,2.6215,2.7086,2.8278,0.0,0.0,0.0,0.0,3.0969,3.1355,3.141,3.1281,3.0864,3.0791,3.0644,3.0277,0.0,0.0,3.0204,3.0222,3.0241,3.0222,3.0241,2.9984,2.9243,2.9012,2.9005,2.9023,2.9005,2.9042,2.9012,2.8968,2.9005,1.6839,0.0,0.0,0.0,0.0,1.593,1.6433,1.6932,1.6903,1.7067,1.7436,1.717,0.0,0.0,0.0,0.0,0.0,0.0,1.7991,1.8592,1.9141,1.9594,2.0032,2.0268,2.0362,2.038,2.0256,1.992,1.9412,1.8878,1.805,1.6978,0.0,0.0,0.0,0.0,1.8077,1.896,1.9187,1.9519,2.0064,1.9997,1.992,1.98,1.9439,1.9053,1.8557,1.7929,1.7435,1.7088,1.6262,0.0,0.0,0.0,0.0,0.0,0.0,0.0,0.0,0.0,0.0,0.0,0.0,0.0,0.0,0.0,0.0,0.0,0.0,0.0,2.1548,2.1884,2.2108,0.0,0.0,0.0,0.0,0.0,0.0,0.0,0.0,0.0,2.7903,2.7922,2.8234,0.0,0.0,3.0406,3.0736,3.1061,3.1281,3.1391,3.141,0.0,3.1263,3.1006,3.0754,3.0644,3.0626,3.0626,3.0626,3.0846,3.1061,3.1029,3.1079,3.0987,3.0767,3.0222,2.9892,2.9855,2.9855,2.9855,2.9855,2.9855,2.9837,1.8433,1.698,1.6688,1.6469,1.6425,1.6679,1.7113,1.7602,1.7695,1.7945,1.8263,1.8058,1.7732,1.7322,1.7105,0.0,0.0,0.0,1.8493,1.9129,1.955,2.001,2.0424,2.0618,2.0715,2.0735,2.0695,2.0482,2.0138,1.9847,1.9199,1.8237,0.0,0.0,1.797,1.8197,1.8665,1.9374,1.9629,1.9933,2.0357,2.0414,2.0214,1.9813,1.9626,1.9345,1.8903,1.8383,1.7956,1.7622,1.6914,1.6288,0.0,0.0,0.0,0.0,0.0,0.0,0.0,0.0,0.0,0.0,0.0,1.749,1.8145,0.0,0.0,0.0,2.0744,2.1524,2.223,2.2519,0.0,0.0,0.0,0.0,0.0,0.0,0.0,2.6976,2.7793,2.8583,2.9372,2.9397,2.9556,3.0015,3.0479,3.0846,3.1011,0.0,3.141,3.141,3.141,3.141,3.141,3.1176,3.1011,3.1011,3.1029,3.1029,3.1029,3.1231,3.141,3.141,3.141,3.141,3.141,3.1024,3.0662,3.0662,3.0662,3.0662,3.0662,3.0662,3.0662,1.9887,1.9129,1.8067,1.755,1.7464,1.7519,1.7718,1.8039,1.8359,1.869,1.8994,1.8852,1.8625,1.8391,1.7871,0.0,1.804,1.8275,1.885,1.9658,1.9898,2.0335,2.0859,2.0884,2.0917,2.0879,2.0741,2.0617,2.057,2.0297,2.007,1.9764,1.8953,1.8555,1.8624,1.9132,1.9455,1.9508,2.0,2.0384,2.0726,2.0739,2.0428,1.9853,1.984,1.9559,1.8956,1.8903,1.8531,1.7742,1.7635,1.7088,1.5995,0.0,0.0,0.0,0.0,0.0,0.0,0.0,0.0,0.0,0.0,0.0,0.0,0.0,0.0,0.0,2.1426,0.0,2.2603,2.3186,0.0,0.0,0.0,2.5218,2.5523,2.6315,2.7115,2.7799,0.0,0.0,3.0149,3.0589,3.0846,3.0846,3.0827,3.0956,3.1355,3.141,3.141,3.141,3.141,3.141,3.141,3.1391,3.1373,3.1373,3.141,3.1391,3.1391,3.1391,3.141,3.141,3.141,3.141,3.141,3.1373,3.141,3.1373,3.1373,3.1391,3.1355,3.1336,3.1336,2.0755,2.0188,1.9736,1.9015,1.8207,1.8369,1.8665,1.897,1.9162,1.9462,1.9804,1.9666,1.9479,1.9201,1.8874,1.8874,1.9128,1.9189,1.9439,1.9832,2.0099,2.0291,2.0466,2.0922,2.1012,2.0847,2.1044,2.093,2.0521,2.0272,1.9982,1.9699,1.9245,1.9203,1.9506,1.9626,1.995,2.0391,2.0525,2.0722,2.0989,2.1002,2.0722,2.0117,2.0104,1.9853,1.9321,1.9038,1.8718,1.8317,1.7836,1.7381,1.6886,1.662,0.0,0.0,0.0,0.0,0.0,0.0,0.0,0.0,0.0,1.8032,1.9137,0.0,1.995,0.0,2.1593,2.2404,2.2998,2.3458,0.0,0.0,2.5023,2.5769,2.6151,2.7307,2.8246,2.8745,2.9702,3.0442,3.0626,3.0992,3.1263,3.1281,3.1231,3.13,3.141,3.141,3.141,3.141,3.141,3.141,3.141,3.141,3.141,3.141,3.141,3.141,3.141,3.141,3.141,3.141,3.141,3.141,3.141,3.141,3.141,3.141,3.141,3.141,3.141,3.141,3.141,2.1147,2.0744,2.0576,2.0081,1.937,1.9187,1.9156,1.9227,1.9667,2.0001,2.0179,2.0232,2.012,1.9842,1.9588,1.9551,1.9684,1.9805,1.995,2.0074,2.0327,2.0483,2.0495,2.0835,2.0892,2.0745,2.0962,2.0919,2.063,2.0517,2.0367,2.0246,2.0049,2.0073,2.0263,1.9929,1.9933,2.0247,2.0365,2.0572,2.0856,2.0856,2.0739,2.0424,2.0277,2.0027,1.9573,1.9279,1.8985,1.8691,1.8357,1.7943,1.7394,1.7207,1.6901,0.0,0.0,0.0,0.0,0.0,0.0,0.0,0.0,0.0,0.0,0.0,2.0721,2.1655,2.247,2.3161,2.369,2.4111,2.4519,2.4958,2.5668,2.6415,2.7091,2.7998,2.8865,2.955,3.0171,3.0706,3.1029,3.1263,3.141,3.141,3.141,3.141,3.141,3.141,3.141,3.141,3.141,3.141,3.141,3.141,3.141,3.141,3.141,3.141,3.141,3.141,3.141,3.141,3.141,3.141,3.141,3.141,3.141,3.141,3.141,3.141,3.141,3.141,3.141,2.1405,2.0996,2.0963,2.0823,2.0593,1.9941,1.9531,1.9357,2.0047,2.0401,2.0453,2.0685,2.0676,2.0412,2.0192,2.0038,2.005,2.0231,2.0362,2.0374,2.0603,2.07,2.07,2.07,2.07,2.0688,2.0767,2.078,2.0743,2.0797,2.0805,2.0767,2.0767,2.0767,2.0742,2.0061,1.9745,1.9801,2.0011,2.0259,2.052,2.0552,2.0566,2.0619,2.0326,2.0033,1.9813,1.9548,1.9225,1.8916,1.889,1.8544,1.7782,1.7702,1.7462,0.0,1.6927,0.0,0.0,0.0,0.0,0.0,0.0,0.0,0.0,2.0494,2.1677,2.281,2.3503,2.4048,2.445,2.484,2.535,2.6014,2.6473,2.7102,2.8002,2.8522,2.9186,3.0211,3.0343,3.0628,3.129,3.141,3.141,3.141,3.141,3.141,3.141,3.141,3.141,3.141,3.141,3.141,3.141,3.141,3.141,3.141,3.141,3.141,3.141,3.141,3.141,3.141,3.141,3.141,3.141,3.141,3.141,3.141,3.141,3.141,3.141,3.141,3.141,2.1739,2.147,2.1286,2.106,2.0823,2.0694,2.0598,2.0477,2.0589,2.0854,2.1258,2.1294,2.1293,2.1268,2.099,2.0869,2.0857,2.07,2.0628,2.0628,2.0676,2.07,2.07,2.07,2.07,2.07,2.0721,2.0622,2.0415,2.0388,2.03,2.0081,2.0081,2.0081,2.0081,0.0,0.0,0.0,2.0379,2.0367,2.0215,2.0202,2.0232,2.0291,1.9959,0.0,1.9783,1.9548,1.9239,1.8916,1.889,0.0,0.0,0.0,0.0,0.0,0.0,0.0,0.0,0.0,0.0,0.0,1.9691,2.0118,2.0428,2.1532,2.2427,2.2939,2.3412,2.3993,2.4803,2.525,2.576,2.6411,2.7087,2.7676,2.8175,2.8757,2.9509,3.0283,3.061,3.0918,3.1295,3.141,3.141,3.141,3.141,3.141,3.141,3.141,3.141,3.141,3.141,3.141,3.141,3.141,3.141,3.141,3.141,3.141,3.141,3.141,3.141,3.141,3.141,3.141,3.141,3.141,3.141,3.141,3.141,3.141,3.141,3.141,3.141,2.2008,0.0,2.1545,2.1373,0.0,2.1246,2.1322,2.1468,2.1152,2.1396,2.186,2.1764,2.1704,2.1692,2.1426,2.1305,2.1293,2.1027,2.0894,2.0894,2.0761,2.07,2.07,2.07,2.07,2.07,2.07,2.0628,2.0507,2.0507,2.0434,2.0313,2.0267,2.0301,2.0301,2.0313,2.0276,2.0203,2.0203,2.024,2.0221,2.0128,2.015,2.0316,1.9918,0.0,0.0,0.0,0.0,0.0,0.0,0.0,0.0,1.9145,0.0,1.8973,1.8946,1.9013,1.9132,1.9279,1.9537,1.998,2.073,2.1329,2.1627,2.2201,2.2916,2.3702,2.3978,2.4424,2.5201,2.5501,2.596,2.6774,2.7226,2.7715,2.8372,2.8847,2.9338,3.0015,3.0426,3.0782,3.1087,3.1313,3.141,3.141,3.141,3.141,3.141,3.141,3.141,3.141,3.141,3.141,3.141,3.141,3.141,3.141,3.141,3.141,3.141,3.141,3.141,3.141,3.141,3.141,3.141,3.141,3.141,3.141,3.141,3.141,3.141,3.141,3.141,2.2212,2.2008,2.1771,2.1726,2.1806,2.182,2.2009,2.2344,0.0,0.0,0.0,2.2139,2.2018,2.1958,2.1704,2.1547,2.1559,2.1293,2.1172,2.116,2.0942,2.0821,2.0773,2.0773,2.0749,2.07,2.07,2.07,2.07,2.07,2.07,2.07,2.07,2.07,2.07,2.07,2.0483,2.0083,2.0011,2.0063,2.0314,2.0092,2.0145,2.0459,1.996,1.9826,2.0156,1.9814,1.9785,2.0076,2.0106,2.0043,1.9893,1.988,1.98,1.9642,1.9629,1.9749,2.0013,2.008,2.0334,2.09,2.1637,2.2221,2.2564,2.2626,2.3168,2.4396,2.4505,2.4769,2.5539,2.5667,2.6066,2.7018,2.7197,2.7671,2.8559,2.8774,2.9069,2.9691,3.0083,3.0458,3.0847,3.1138,3.1345,3.1377,3.141,3.141,3.141,3.141,3.141,3.141,3.141,3.141,3.141,3.141,3.141,3.141,3.141,3.141,3.141,3.141,3.141,3.141,3.141,3.141,3.141,3.141,3.141,3.141,3.141,3.141,3.141,3.141,3.141,2.2267,2.2213,2.2019,2.2172,2.2535,2.2552,2.2735,2.3037,2.2912,2.2812,2.2635,2.2598,2.2453,2.2236,2.197,2.1849,2.1837,2.1571,2.1462,2.145,2.1426,2.1268,2.1039,2.1039,2.0918,2.0712,2.07,2.07,2.07,2.0712,2.07,2.0712,2.07,2.0712,2.07,2.07,2.0664,2.0591,2.0374,2.0144,1.9993,1.9911,2.0065,2.036,1.9831,1.9706,2.0074,1.9578,1.9437,1.9755,1.9785,1.988,2.0113,2.0157,2.0267,2.0498,2.0525,2.0659,2.0895,2.1194,2.1489,2.1796,2.1936,2.2168,2.2514,2.2775,2.3249,2.3998,2.411,2.4503,2.5439,2.5845,2.6199,2.6726,2.7304,2.7833,2.8329,2.8609,2.9021,2.9691,2.9837,3.0148,3.0717,3.0926,3.1087,3.1313,3.1377,3.141,3.141,3.141,3.141,3.141,3.141,3.141,3.141,3.141,3.141,3.141,3.141,3.141,3.141,3.141,3.141,3.141,3.141,3.141,3.141,3.141,3.141,3.141,3.141,3.141,3.141,3.141,3.141,2.2653,2.2834,2.2647,2.2801,2.3252,2.3367,2.3627,2.3913,2.3784,2.3369,2.2925,2.2901,2.2756,2.2514,2.2393,2.2248,2.2103,2.1849,2.1728,2.1716,2.1583,2.1414,2.1329,2.1317,2.1256,2.1112,2.1148,2.1148,2.1148,2.1148,2.1148,2.1135,2.1148,2.1148,2.1135,2.1148,2.1135,2.1135,2.0736,2.0458,2.035,2.0204,2.0199,2.0356,1.9943,1.9911,2.0238,2.002,2.001,2.033,2.033,2.0508,2.0826,2.0858,2.102,2.1376,2.139,2.1475,2.1577,2.1857,2.2151,2.2465,2.2619,2.2875,2.3161,2.3089,2.3283,2.3952,2.4166,2.4557,2.5219,2.5586,2.6047,2.6635,2.6985,2.7384,2.7882,2.8296,2.8725,2.9218,2.9593,2.992,3.0278,3.0635,3.0944,3.112,3.1249,3.141,3.141,3.141,3.141,3.141,3.141,3.141,3.141,3.141,3.141,3.141,3.141,3.141,3.141,3.141,3.141,3.141,3.141,3.141,3.141,3.141,3.141,3.141,3.141,3.141,3.141,3.141,3.141,2.3239,2.3563,2.3404,2.358,2.3925,2.4132,2.4389,2.4656,2.4391,2.3973,2.3469,2.3263,2.3022,2.2792,2.278,2.2635,2.2381,2.2175,2.2054,2.1982,2.1788,2.1667,2.1607,2.1607,2.1571,2.1486,2.1474,2.1474,2.1474,2.1474,2.1474,2.1474,2.1474,2.1474,2.1474,2.1474,2.1474,2.145,2.1099,2.0894,2.0882,2.0628,2.0483,2.047,2.0168,2.0112,2.0334,2.0306,2.0435,2.0767,2.08,2.0933,2.1264,2.1351,2.1588,2.1939,2.2051,2.2151,2.2298,2.2565,2.2819,2.3081,2.3287,2.3527,2.371,2.3417,2.3434,2.3997,2.4402,2.4744,2.5101,2.5559,2.6088,2.6682,2.69,2.7268,2.7859,2.8294,2.8677,2.9043,2.9589,2.9985,3.0149,3.0659,3.1067,3.1222,3.1322,3.1377,3.141,3.141,3.141,3.141,3.141,3.141,3.141,3.141,3.141,3.141,3.141,3.141,3.141,3.141,3.141,3.141,3.141,3.141,3.141,3.141,3.141,3.141,3.141,3.141,3.141,3.141,3.141,2.3986,2.4097,2.4289,2.4451,2.4617,2.4824,2.4939,2.4933,2.4668,2.4523,2.4383,2.3692,2.3273,2.307,2.3046,2.2939,2.2659,2.2623,2.2478,2.2272,2.2248,2.2103,2.1885,2.1873,2.174,2.1523,2.1547,2.1559,2.1523,2.151,2.1486,2.1474,2.1474,2.1498,2.1486,2.1498,2.1486,2.1522,2.1438,2.1438,2.1426,2.1172,2.1027,2.1015,2.0543,2.0277,2.0369,2.0081,2.0127,2.0402,2.0472,2.0593,2.0958,2.1244,2.158,2.1908,2.219,2.2605,2.314,2.3474,2.3656,2.3723,2.3736,2.3754,2.383,2.3772,2.386,2.4241,2.4616,2.4946,2.5354,2.6005,2.6568,2.6974,2.7316,2.7912,2.8519,2.8997,2.9373,2.9731,3.0038,3.0462,3.0731,3.1134,3.1497,3.1753,3.1643,3.1557,3.1538,3.1538,3.1538,3.1483,3.1428,3.1428,3.1428,3.141,3.141,3.141,3.141,3.141,3.141,3.141,3.141,3.141,3.141,3.141,3.141,3.141,3.141,3.141,3.141,3.141,3.141,3.141,3.141,2.4729,2.4939,2.5044,2.529,2.5564,2.5529,2.5463,2.5427,2.5017,2.4836,2.4776,2.4318,2.3872,2.3514,2.3357,2.314,2.2913,2.2768,2.2635,2.2514,2.2381,2.2248,2.2151,2.2139,2.2079,2.1982,2.1982,2.1982,2.1982,2.1982,2.1982,2.1982,2.1982,2.1982,2.197,2.1982,2.1982,2.1982,2.1982,2.197,2.1933,2.1559,2.1341,2.1329,2.11,2.1027,2.1015,2.0918,2.0927,2.1032,2.1032,2.1206,2.152,2.1682,2.2011,2.2614,2.3011,2.3327,2.3567,2.3736,2.3884,2.4008,2.4022,2.4088,2.4275,2.4275,2.4325,2.4503,2.4743,2.4946,2.5172,2.5807,2.6473,2.6983,2.7262,2.766,2.8371,2.8958,2.9404,2.9576,3.0054,3.0446,3.0684,3.1159,3.1595,3.1935,3.2001,3.2056,3.2093,3.2093,3.2093,3.2093,3.2093,3.1905,3.1557,3.141,3.141,3.141,3.141,3.141,3.141,3.141,3.141,3.141,3.141,3.141,3.141,3.141,3.141,3.141,3.141,3.141,3.141,3.141,3.141,2.5457,2.5713,2.5787,2.5937,2.6162,2.6013,2.5849,2.5796,2.5379,2.5174,2.5077,2.4824,2.4499,2.4113,2.3788,2.3478,2.3164,2.2959,2.2864,2.2792,2.2636,2.2514,2.2514,2.2514,2.2514,2.2514,2.2514,2.2514,2.2514,2.2514,2.2514,2.2514,2.2514,2.2514,2.2514,2.2514,2.2514,2.2514,2.2514,2.2514,2.2465,2.2139,2.1849,2.1643,2.1559,2.1474,2.1474,2.1474,2.1474,2.1474,2.1474,2.1631,2.1834,2.193,2.2373,2.3103,2.3562,2.378,2.3888,2.4004,2.4102,2.4289,2.4292,2.4372,2.4546,2.4599,2.4599,2.4619,2.4924,2.5142,2.5199,2.5805,2.6565,2.7256,2.7362,2.7678,2.8465,2.9147,2.9615,2.9667,3.0357,3.0772,3.0926,3.137,3.1844,3.2147,3.2408,3.2606,3.2606,3.257,3.257,3.2606,3.2588,3.2294,3.1708,3.1579,3.1524,3.141,3.141,3.141,3.141,3.141,3.141,3.141,3.141,3.141,3.141,3.141,3.141,3.141,3.141,3.141,3.141,3.141,3.141,2.6265,2.6308,2.6456,2.6395,2.623,2.6162,2.6017,2.5837,2.574,2.5596,2.5355,2.5102,2.4969,2.4873,2.4379,2.3884,2.3451,2.3366,2.3249,2.3082,2.3022,2.3034,2.3097,2.3084,2.3072,2.3012,2.2973,2.2997,2.301,2.306,2.3046,2.3072,2.3036,2.3022,2.3048,2.3024,2.3072,2.2985,2.3036,2.306,2.306,2.3024,2.2598,2.1994,2.1631,2.1559,2.1535,2.1498,2.1498,2.1498,2.1523,2.1534,2.1571,2.1859,2.2411,2.3142,2.3458,2.3783,2.4149,2.4372,2.4546,2.4572,2.4586,2.4599,2.4666,2.4693,2.4716,2.4663,2.5373,2.5758,2.5862,2.6474,2.7178,2.7863,2.8017,2.8398,2.9095,2.9744,3.0269,3.0414,3.0948,3.1441,3.1843,3.2017,3.2167,3.2454,3.2575,3.2646,3.2735,3.268,3.2698,3.2698,3.2661,3.2459,3.2074,3.1873,3.1726,3.1579,3.1501,3.141,3.141,3.141,3.141,3.141,3.141,3.141,3.141,3.141,3.141,3.141,3.141,3.141,3.141,3.141,3.141,2.6755,2.6755,2.684,2.6777,2.668,2.6512,2.6391,2.627,2.5933,2.574,2.5608,2.5367,2.5162,2.4993,2.48,2.4427,2.3909,2.3571,2.3354,2.3285,2.3167,2.3121,2.3121,2.3121,2.3121,2.3121,2.3121,2.3121,2.3121,2.3121,2.3121,2.3121,2.3121,2.3121,2.3121,2.3121,2.3121,2.3121,2.3121,2.3121,2.3094,2.3121,2.2963,2.2683,2.2562,2.2514,2.2514,2.2357,2.226,2.2272,2.2115,2.2018,2.2055,2.2387,2.2791,2.3269,2.3639,2.4035,2.4379,2.4532,2.4693,2.4903,2.4917,2.4997,2.5106,2.5197,2.5273,2.5561,2.6012,2.6392,2.6575,2.7027,2.7565,2.8021,2.8346,2.8671,2.9226,2.9764,3.0157,3.0442,3.11,3.163,3.1754,3.1948,3.2227,3.261,3.2883,3.3102,3.329,3.3358,3.3321,3.3358,3.3358,3.323,3.2845,3.2276,3.1928,3.1763,3.1634,3.1483,3.141,3.141,3.141,3.141,3.141,3.141,3.141,3.141,3.141,3.141,3.141,3.141,3.141,3.141,3.141,2.7027,2.7027,2.7027,2.7027,2.6969,2.6801,2.6668,2.656,2.6198,2.5957,2.5776,2.5596,2.5379,2.5138,2.5041,2.4824,2.4439,2.4005,2.3788,2.3776,2.3647,2.359,2.359,2.359,2.359,2.3602,2.355,2.359,2.359,2.359,2.359,2.3602,2.359,2.359,2.3578,2.3517,2.3469,2.3457,2.3384,2.3309,2.3336,2.3297,2.3336,2.3336,2.3348,2.3251,2.3094,2.2901,2.2816,2.2792,2.2647,2.255,2.2588,2.2814,2.3191,2.3643,2.3943,2.4318,2.4805,2.4879,2.501,2.5197,2.5224,2.5317,2.5491,2.5518,2.5709,2.6091,2.6458,2.6763,2.7119,2.7681,2.8082,2.817,2.8454,2.8851,2.9262,2.964,3.0014,3.0406,3.0975,3.1347,3.1453,3.1841,3.2175,3.2474,3.2946,3.34,3.3573,3.3747,3.3817,3.3817,3.3762,3.3633,3.3358,3.2881,3.2258,3.2019,3.1653,3.152,3.141,3.141,3.141,3.141,3.141,3.141,3.141,3.141,3.141,3.1428,3.141,3.141,3.141,3.141,3.1465,2.7027,2.7027,2.7027,2.7027,2.6981,2.6957,2.6825,2.6632,2.6572,2.627,2.5909,2.5788,2.562,2.5391,2.5162,2.5005,2.4921,2.4668,2.4511,2.4463,2.4463,2.4463,2.4492,2.4415,2.4456,2.4468,2.4523,2.4523,2.4492,2.4468,2.448,2.4552,2.448,2.442,2.4535,2.4222,2.415,2.4089,2.3909,2.3812,2.3812,2.38,2.3812,2.3812,2.3812,2.3635,2.3191,2.3118,2.3082,2.3082,2.3046,2.3109,2.306,2.3087,2.3444,2.4048,2.4278,2.4674,2.5363,2.5451,2.5424,2.5518,2.5518,2.5545,2.5611,2.5611,2.5803,2.6238,2.6593,2.6956,2.7525,2.8372,2.8803,2.8297,2.8614,2.9048,2.9309,2.9656,2.9997,3.0335,3.0762,3.0958,3.1135,3.1559,3.1965,3.2246,3.2719,3.3156,3.3313,3.3504,3.3747,3.3782,3.3782,3.3762,3.3633,3.3431,3.2808,3.2239,3.1799,3.152,3.1428,3.141,3.141,3.141,3.141,3.141,3.1446,3.1465,3.1557,3.1557,3.1501,3.1593,3.1703,3.1758,3.1667,2.7027,2.7027,2.7027,2.7027,2.7027,2.7027,2.6933,2.6837,2.668,2.6499,2.6295,2.5945,2.574,2.562,2.5391,2.527,2.527,2.5162,2.4945,2.4656,2.4595,2.4607,2.4607,2.4595,2.4583,2.4583,2.4583,2.4595,2.462,2.4607,2.4583,2.4583,2.4607,2.4583,2.4607,2.4499,2.4463,2.4451,2.4379,2.4342,2.4342,2.4342,2.433,2.4342,2.4342,2.4287,2.4118,2.3623,2.3345,2.3333,2.3179,2.3121,2.3121,2.3121,2.3469,2.4162,2.4278,2.4662,2.5365,2.5531,2.5625,2.5797,2.5812,2.5919,2.6079,2.6092,2.6405,2.6951,2.7262,2.7516,2.81,2.8881,2.9199,2.8856,2.9371,2.9671,2.9595,2.9801,2.9923,3.0033,3.0354,3.0655,3.0939,3.1312,3.1559,3.1965,3.2333,3.2579,3.2876,3.3191,3.3434,3.3434,3.3608,3.3747,3.3621,3.3491,3.3104,3.2625,3.2166,3.1781,3.1667,3.1501,3.1483,3.1501,3.1483,3.152,3.1557,3.1598,3.1744,3.1891,3.2001,3.2093,3.2184,3.2129,3.2019,2.7027,2.7027,2.7027,2.7027,2.7027,2.7027,2.7027,2.6957,2.6813,2.668,2.6524,2.6246,2.5969,2.5788,2.5608,2.5487,2.5403,2.5391,2.521,2.4921,2.4885,2.4885,2.4909,2.4993,2.5029,2.5096,2.5138,2.5174,2.5174,2.5174,2.5138,2.5053,2.5029,2.4981,2.4885,2.4788,2.474,2.4728,2.4632,2.4583,2.4583,2.4583,2.4583,2.4583,2.4583,2.4583,2.4547,2.4089,2.3848,2.3824,2.3719,2.3638,2.3542,2.3542,2.3835,2.4413,2.4635,2.4959,2.5684,2.5865,2.5905,2.6118,2.6158,2.6225,2.6346,2.6386,2.6781,2.7437,2.7619,2.7877,2.856,2.9325,2.964,2.9511,2.9919,3.0113,2.9906,2.9849,2.9785,2.9812,2.9997,3.0335,3.0496,3.0762,3.0993,3.1559,3.1841,3.2035,3.2439,3.2806,3.2981,3.3174,3.3383,3.3504,3.3555,3.3495,3.3379,3.3028,3.2606,3.2294,3.2056,3.1818,3.1708,3.1799,3.1818,3.2052,3.2074,3.2111,3.2239,3.2368,3.2459,3.2423,3.2423,3.2459,3.2386,2.7027,2.7027,2.7027,2.7027,2.7027,2.7027,2.7027,2.7027,2.7015,2.6837,2.6656,2.6548,2.6295,2.5921,2.5801,2.5632,2.5451,2.5391,2.5415,2.5379,2.5379,2.5391,2.5451,2.562,2.5747,2.5808,2.5957,2.6078,2.5981,2.5993,2.6097,2.5796,2.5716,2.568,2.5439,2.5186,2.5114,2.5053,2.4836,2.4728,2.4692,2.4668,2.4668,2.468,2.4692,2.4704,2.4692,2.4632,2.4583,2.4571,2.4463,2.4371,2.4234,2.421,2.4457,2.5074,2.5141,2.5606,2.6241,2.644,2.6453,2.6519,2.6493,2.644,2.652,2.66,2.6944,2.7722,2.7773,2.8046,2.8866,2.9577,2.9974,3.0168,3.0269,3.0262,2.9965,2.9886,2.9815,2.9597,2.972,2.9939,3.0043,3.0277,3.0548,3.0922,3.1277,3.1559,3.1947,3.2263,3.2561,3.2806,3.3016,3.3156,3.3225,3.3468,3.3337,3.326,3.2945,3.2771,3.2441,3.2184,3.2038,3.2129,3.2258,3.2459,3.257,3.2551,3.2606,3.2698,3.2698,3.2643,3.2735,3.2863,3.29,2.7027,2.7027,2.7027,2.7027,2.7027,2.7027,2.7027,2.7027,2.7027,2.6991,2.6849,2.6668,2.6524,2.6343,2.5957,2.574,2.5656,2.5499,2.5523,2.5668,2.568,2.5844,2.5945,2.6029,2.6122,2.609,2.6174,2.6174,2.6174,2.621,2.6194,2.6122,2.6122,2.6085,2.6001,2.5861,2.5808,2.5608,2.5511,2.5355,2.5198,2.5186,2.5174,2.5186,2.5186,2.5186,2.5186,2.5186,2.4969,2.4607,2.4583,2.4559,2.4499,2.4528,2.4849,2.5564,2.5755,2.6135,2.6812,2.7041,2.7055,2.7081,2.7015,2.7081,2.7081,2.7068,2.7473,2.8158,2.836,2.8568,2.9191,2.9725,3.0145,3.0547,3.0649,3.0658,3.0537,3.0346,3.014,3.0044,2.9932,3.0002,3.0139,3.0121,3.0225,3.0546,3.0726,3.0904,3.1312,3.163,3.1894,3.2298,3.2544,3.2736,3.2946,3.3243,3.3363,3.3362,3.3246,3.323,3.2863,3.2514,3.2459,3.2478,3.2606,3.2808,3.2808,3.2808,3.29,3.3046,3.3193,3.3266,3.3413,3.3541,3.3486,2.7027,2.7027,2.7027,2.7027,2.7027,2.7027,2.7027,2.7027,2.7027,2.7027,2.6945,2.6837,2.6692,2.656,2.627,2.6054,2.5977,2.5788,2.5825,2.5933,2.6122,2.615,2.621,2.6315,2.6399,2.6367,2.6463,2.6512,2.6524,2.6512,2.6463,2.6367,2.6355,2.6339,2.615,2.6162,2.6114,2.5969,2.5945,2.5861,2.5728,2.5716,2.5716,2.5716,2.5716,2.5728,2.5716,2.5728,2.5475,2.5053,2.4933,2.4885,2.4776,2.4752,2.5173,2.5953,2.601,2.6367,2.7105,2.7309,2.7309,2.7309,2.7309,2.7309,2.7296,2.7309,2.7635,2.8137,2.845,2.8837,2.9272,2.9827,3.0389,3.0814,3.0849,3.079,3.088,3.0664,3.0473,3.033,3.0156,3.0065,3.0306,3.0038,3.011,3.0245,3.031,3.0475,3.0726,3.0975,3.1294,3.17,3.2017,3.2246,3.2596,3.2946,3.3278,3.3312,3.3501,3.347,3.3266,3.29,3.2936,3.2955,3.3046,3.3101,3.3138,3.3211,3.3358,3.3541,3.3743,3.378,3.3798,3.3817,3.3817,2.7027,2.7027,2.7027,2.7027,2.7027,2.7027,2.7027,2.7027,2.7027,2.7027,2.6981,2.7027,2.6849,2.6644,2.6548,2.6439,2.6254,2.6126,2.6174,2.6283,2.6439,2.6568,2.6379,2.6548,2.6632,2.6656,2.6885,2.6966,2.6885,2.6933,2.6837,2.668,2.6632,2.6512,2.6391,2.6307,2.6246,2.6278,2.6222,2.6174,2.609,2.6078,2.6066,2.6066,2.6078,2.609,2.6102,2.6102,2.5921,2.5499,2.5475,2.5355,2.515,2.509,2.5472,2.6048,2.6313,2.6659,2.7265,2.7483,2.7443,2.7469,2.7456,2.7403,2.7469,2.7496,2.7702,2.8167,2.8384,2.882,2.9303,2.9976,3.0465,3.08,3.0761,3.0755,3.0844,3.089,3.0753,3.0489,3.0426,3.0378,3.0283,3.0108,2.9979,3.0276,3.0207,3.0225,3.0359,3.0491,3.0831,3.1187,3.1453,3.17,3.2158,3.2631,3.2981,3.326,3.3555,3.3635,3.356,3.3358,3.3397,3.3434,3.3431,3.3486,3.3596,3.3707,3.3762,3.3762,3.3798,3.3798,3.3817,3.3817,3.3817,2.7027,2.7027,2.7027,2.7027,2.7027,2.7027,2.7027,2.7027,2.7027,2.7027,2.7027,2.7027,2.6945,2.6885,2.6704,2.6548,2.6475,2.6331,2.6283,2.6536,2.6777,2.6906,2.6801,2.6861,2.6885,2.6909,2.6945,2.7027,2.7027,2.6981,2.6957,2.6897,2.6861,2.6861,2.6834,2.6773,2.6737,2.6592,2.6499,2.6391,2.6291,2.6222,2.6222,2.6222,2.6222,2.6242,2.6174,2.6174,2.6114,2.6085,2.6037,2.5928,2.5699,2.594,2.6288,2.6609,2.6997,2.7417,2.7879,2.7991,2.8005,2.7991,2.8005,2.8005,2.7991,2.7978,2.8201,2.8507,2.8702,2.898,2.9498,2.9769,3.0156,3.0489,3.0761,3.0904,3.1007,3.0903,3.0884,3.101,3.0902,3.0743,3.0728,3.0426,3.0325,3.0282,3.0201,3.005,3.0086,3.0189,3.0519,3.0912,3.1111,3.1431,3.1876,3.2368,3.2876,3.3225,3.3573,3.3764,3.3688,3.3651,3.3651,3.3688,3.3743,3.3798,3.3817,3.3817,3.378,3.3798,3.3817,3.3817,3.3817,3.3817,3.3817,2.7027,2.7027,2.7027,2.7027,2.7027,2.7027,2.7027,2.7027,2.7027,2.7027,2.7027,2.7027,2.7027,2.7015,2.6849,2.6777,2.6753,2.6644,2.6632,2.6789,2.6979,2.7015,2.7027,2.7027,2.7027,2.7027,2.7027,2.7027,2.7027,2.7027,2.6981,2.7027,2.7027,2.6957,2.7027,2.7027,2.6909,2.6813,2.6777,2.6692,2.6572,2.656,2.656,2.6548,2.656,2.6604,2.6572,2.656,2.656,2.6548,2.6536,2.6355,2.6129,2.6449,2.6853,2.7172,2.7663,2.8093,2.8436,2.8564,2.8564,2.8551,2.8564,2.847,2.8404,2.8364,2.8397,2.8528,2.8712,2.9035,2.9507,2.9642,2.9828,2.9989,3.0295,3.0506,3.067,3.0721,3.0856,3.1105,3.1008,3.102,3.0938,3.0646,3.0616,3.059,3.0304,3.0171,3.0208,3.0299,3.0506,3.0802,3.0935,3.1229,3.1628,3.2158,3.2771,3.3156,3.3573,3.3747,3.3762,3.378,3.3798,3.3817,3.3798,3.3817,3.3817,3.3817,3.3817,3.3817,3.3817,3.3817,3.3817,3.3817,3.3817,2.7027,2.7027,2.7027,2.7027,2.7027,2.7027,2.7027,2.7027,2.7027,2.7027,2.7027,2.7027,2.7027,2.6981,2.6969,2.7027,2.6969,2.6957,2.6966,2.6991,2.7003,2.7027,2.7027,2.7027,2.7027,2.7027,2.7027,2.7027,2.7027,2.7027,2.7027,2.7027,2.7027,2.7027,2.7027,2.7027,2.6969,2.6945,2.6945,2.6933,2.6921,2.6921,2.6921,2.6909,2.6909,2.6942,2.6897,2.6909,2.6991,2.7027,2.7027,2.683,2.6706,2.6876,2.731,2.7697,2.8213,2.8547,2.8795,2.8921,2.8935,2.9001,2.8975,2.8868,2.8681,2.8657,2.862,2.8558,2.869,2.9001,2.9411,2.9481,2.9495,2.9551,2.9644,2.9834,3.01,3.0364,3.0599,3.1033,3.0957,3.0872,3.0886,3.0736,3.0817,3.0811,3.0526,3.0335,3.0373,3.041,3.0644,3.0933,3.1122,3.156,3.1984,3.2367,3.2914,3.3177,3.3561,3.3716,3.3837,3.3817,3.3817,3.3817,3.3817,3.3817,3.3817,3.3817,3.3817,3.3817,3.3817,3.3817,3.3817,3.3817,3.3872,2.7027,2.7027,2.7027,2.7027,2.7027,2.7027,2.7027,2.7027,2.7027,2.7027,2.7027,2.7027,2.7027,2.7027,2.7027,2.7027,2.7027,2.7027,2.7027,2.7027,2.7027,2.7027,2.7027,2.7027,2.7027,2.7027,2.7027,2.7027,2.7027,2.7027,2.7027,2.7027,2.7027,2.7027,2.7027,2.7027,2.7027,2.7027,2.7027,2.7027,2.7027,2.7027,2.7027,2.7027,2.7027,2.7027,2.7027,2.7027,2.7027,2.7027,2.7027,2.7193,2.7406,2.768,2.7991,2.8276,2.8688,2.9021,2.9095,2.9041,2.9015,2.9001,2.9055,2.9028,2.8948,2.8908,2.8898,2.8858,2.8891,2.9066,2.9319,2.9321,2.9395,2.9439,2.9509,2.9564,2.9646,2.9859,3.0218,3.0751,3.0688,3.0667,3.0724,3.0686,3.0662,3.066,3.0517,3.0527,3.0624,3.0675,3.0734,3.1076,3.1432,3.1929,3.2443,3.282,3.3216,3.3269,3.3551,3.3722,3.3807,3.3818,3.3817,3.3718,3.3716,3.3747,3.3747,3.3747,3.3782,3.3782,3.3782,3.3817,3.3908,3.4,3.4128,2.7027,2.7027,2.7027,2.7027,2.7027,2.7027,2.7027,2.7027,2.7027,2.7027,2.7027,2.7027,2.7027,2.7027,2.7027,2.7027,2.7027,2.7027,2.7027,2.7027,2.7027,2.7027,2.7027,2.7027,2.7027,2.7027,2.7027,2.7027,2.7027,2.7027,2.7027,2.7027,2.7027,2.7027,2.7027,2.7027,2.6994,2.6994,2.6994,2.7039,2.6994,2.6994,2.6994,2.7039,2.7039,2.7027,2.7027,2.7027,2.7027,2.7072,2.7254,2.7604,2.8031,2.8392,2.8698,2.8879,2.9207,2.9428,2.9442,2.9455,2.9468,2.9455,2.9442,2.9406,2.9312,2.9259,2.9205,2.9041,2.8988,2.9022,2.9133,2.9163,2.91,2.9096,2.9226,2.9312,2.9258,2.9439,2.9835,3.0317,3.0424,3.0455,3.0587,3.0567,3.0429,3.0446,3.0484,3.0583,3.0766,3.0896,3.09,3.1423,3.182,3.2255,3.2716,3.3075,3.3372,3.3445,3.3536,3.3748,3.3801,3.3783,3.3657,3.3533,3.3566,3.344,3.3539,3.3487,3.3608,3.3765,3.382,3.391,3.4038,3.4183,3.4348,2.7027,2.7027,2.7027,2.7027,2.7027,2.7027,2.7027,2.7027,2.7027,2.7027,2.7027,2.7027,2.7027,2.7027,2.7027,2.7027,2.7027,2.7027,2.7027,2.7027,2.7027,2.7027,2.7027,2.7027,2.7027,2.7027,2.7027,2.7027,2.7027,2.7027,2.7027,2.7027,2.7027,2.7027,2.7027,2.7066,2.7042,2.7078,2.7126,2.7184,2.7138,2.7138,2.7138,2.7184,2.7138,2.7208,2.7244,2.721,2.7348,2.7473,2.778,2.8165,2.873,2.9119,2.9318,2.9485,2.9774,2.9869,2.99,2.9873,2.982,2.9806,2.9887,2.9766,2.9659,2.9553,2.9486,2.9215,2.9188,2.9175,2.9195,2.9125,2.8978,2.8864,2.9057,2.919,2.9056,2.9116,2.9355,2.9728,3.003,3.0189,3.0245,3.0136,2.9938,3.0215,3.0282,3.0376,3.0546,3.0916,3.1163,3.182,3.2305,3.2618,3.2958,3.3238,3.3466,3.356,3.3638,3.3786,3.3767,3.3694,3.348,3.3196,3.2966,3.2878,3.302,3.3281,3.3529,3.3688,3.3827,3.406,3.4351,3.4551,3.4715,2.7027,2.7027,2.7027,2.7027,2.7027,2.7027,2.7027,2.7027,2.7027,2.7027,2.7027,2.7027,2.7027,2.7027,2.7027,2.7027,2.7027,2.7027,2.7027,2.7027,2.7027,2.7027,2.7027,2.7027,2.7027,2.7027,2.7027,2.7027,2.7027,2.7027,2.7027,2.7027,2.7027,2.7039,2.7054,2.7232,2.7365,2.7367,2.7582,2.7691,2.7679,2.7667,2.7667,2.7679,2.7667,2.7642,2.7618,2.7665,2.7874,2.8282,2.8446,2.8968,2.9669,2.9632,2.9859,3.0039,3.0087,2.9913,2.9913,2.9913,2.9913,2.9913,2.9913,2.99,2.9833,2.9806,2.9793,2.9847,2.978,2.9646,2.9472,2.9432,2.9272,2.9112,2.9065,2.8961,2.8802,2.8885,2.9085,2.9088,2.9396,2.9586,2.9729,2.9563,2.9464,2.9819,3.0085,3.0145,3.0383,3.0802,3.1164,3.1777,3.2361,3.2735,3.2838,3.316,3.3295,3.3483,3.3529,3.363,3.3517,3.3312,3.3068,3.2803,3.2537,3.2387,3.254,3.2897,3.334,3.3713,3.3874,3.434,3.4845,3.4955,3.4974,2.7027,2.7027,2.7027,2.7027,2.7027,2.7027,2.7027,2.7027,2.7027,2.7027,2.7027,2.7027,2.7027,2.7027,2.7027,2.7027,2.7027,2.7027,2.7027,2.7027,2.7027,2.7027,2.7027,2.7027,2.7027,2.7027,2.7027,2.7027,2.7027,2.7027,2.7027,2.7027,2.7039,2.7123,2.7208,2.7353,2.7498,2.7618,2.7751,2.7811,2.7811,2.7824,2.7824,2.7824,2.7836,2.7836,2.7882,2.815,2.8337,2.8709,2.9035,2.9579,3.0063,3.0202,3.0411,3.0536,3.0327,3.01,2.9953,2.9927,2.9913,2.9913,2.9913,2.9913,2.9913,2.9913,2.9913,2.99,2.9913,2.9833,2.9753,2.9726,2.9553,2.9406,2.9255,2.9068,2.8911,2.877,2.8823,2.8773,2.8764,2.9007,2.9216,2.917,2.9174,2.9456,2.9777,2.9923,3.0314,3.0864,3.1188,3.1517,3.2157,3.2733,3.2759,3.2898,3.2848,3.2982,3.2944,3.3035,3.3018,3.2855,3.252,3.2382,3.2187,3.214,3.2151,3.2478,3.2994,3.3479,3.3964,3.4306,3.4685,3.4957,3.5084,2.7027,2.7027,2.7027,2.7027,2.7027,2.7027,2.7027,2.7027,2.7027,2.7027,2.7027,2.7027,2.7027,2.7027,2.7027,2.7027,2.7027,2.7027,2.7027,2.7027,2.7027,2.7027,2.7027,2.7027,2.7027,2.7027,2.7027,2.7027,2.7027,2.7027,2.7027,2.7027,2.7027,2.7172,2.7365,2.7522,2.7691,2.8041,2.8065,2.8018,2.8065,2.8053,2.8053,2.8041,2.8017,2.8064,2.8252,2.8558,2.8805,2.9428,2.9862,3.0342,3.0643,3.0737,3.0809,3.0808,3.0555,3.0306,3.0087,2.9993,2.9927,2.9913,2.9913,2.9913,2.9913,2.9913,2.9913,2.9913,2.9913,2.9913,2.9913,2.99,2.978,2.9659,2.9593,2.9392,2.9205,2.9105,2.888,2.8695,2.8645,2.8511,2.8685,2.8772,2.891,2.9135,2.9399,2.9687,3.0141,3.0691,3.0934,3.1159,3.152,3.2118,3.2277,3.2337,3.2392,3.2452,3.2413,3.2419,3.2434,3.2211,3.1848,3.1745,3.1685,3.1587,3.1386,3.2046,3.2679,3.3115,3.355,3.4002,3.4364,3.4731,3.5131,2.7027,2.7027,2.7027,2.7027,2.7027,2.7027,2.7027,2.7027,2.7027,2.7027,2.7027,2.7027,2.7027,2.7027,2.7027,2.7027,2.7027,2.7027,2.7027,2.7027,2.7027,2.7027,2.7027,2.7027,2.7027,2.7027,2.7027,2.7027,2.7027,2.7027,2.7027,2.7027,2.7027,2.715,2.7415,2.7739,2.8041,2.8355,2.8403,2.8428,2.8428,2.8487,2.8452,2.8512,2.8584,2.8752,2.9218,2.9347,2.969,3.0402,3.0721,3.1017,3.1221,3.1196,3.1209,3.1102,3.0702,3.048,3.0314,3.0074,2.9927,2.9913,2.9913,2.9913,2.9913,2.9913,2.9913,2.9913,2.9913,2.9913,2.9913,2.99,2.9873,2.9833,2.9753,2.9659,2.9499,2.9392,2.9155,2.8738,2.8567,2.8518,2.8384,2.8517,2.8716,2.8965,2.9138,2.9392,2.973,3.0211,3.0417,3.0611,3.0864,3.1236,3.1551,3.1667,3.1792,3.1821,3.1811,3.1817,3.1884,3.1539,3.1124,3.0993,3.0921,3.0776,3.0761,3.1323,3.1893,3.2596,3.3147,3.3586,3.4062,3.4429,3.494,2.7027,2.7027,2.7027,2.7027,2.7027,2.7027,2.7027,2.7027,2.7027,2.7027,2.7027,2.7027,2.7027,2.7027,2.7027,2.7027,2.7027,2.7027,2.7027,2.7027,2.7027,2.7027,2.7027,2.7027,2.7027,2.7027,2.7027,2.7027,2.7027,2.7027,2.7027,2.7027,2.7039,2.7271,2.7572,2.8029,2.8391,2.8512,2.8572,2.8572,2.8572,2.8572,2.8572,2.862,2.9004,2.9136,2.9459,3.0045,3.0474,3.0856,3.1189,3.1474,3.1629,3.153,3.149,3.141,3.0915,3.0648,3.0501,3.0207,2.9927,2.9913,2.9913,2.9927,2.994,2.9927,2.9913,2.9913,2.9913,2.9913,2.9913,2.9913,2.99,2.9913,2.9887,2.982,2.974,2.9619,2.9446,2.9072,2.8764,2.858,2.8446,2.8341,2.8544,2.8771,2.8938,2.9128,2.9449,2.9748,2.995,3.0151,3.0353,3.0593,3.0932,3.109,3.123,3.1191,3.1151,3.1035,3.0996,3.0801,3.0438,3.0284,3.0229,3.0244,3.0353,3.0615,3.115,3.1896,3.2548,3.3175,3.3631,3.409,3.4615,2.7027,2.7027,2.7027,2.7027,2.7027,2.7027,2.7027,2.7027,2.7027,2.7027,2.7027,2.7027,2.7027,2.7027,2.7027,2.7027,2.7027,2.7027,2.7027,2.7027,2.7027,2.7027,2.7027,2.7027,2.7027,2.7027,2.7027,2.7027,2.7027,2.7027,2.7027,2.7051,2.7135,2.7379,2.7811,2.8318,2.8572,2.8572,2.8572,2.8572,2.8572,2.8572,2.8764,2.886,2.9184,2.9615,2.9949,3.0474,3.0856,3.1189,3.1439,3.1677,3.1724,3.1724,3.1724,3.1476,3.1183,3.0822,3.0648,3.0287,2.998,3.006,3.0074,3.0074,3.0047,3.0034,3.006,2.9913,2.9913,2.9913,2.9913,2.9913,2.9913,2.9913,2.9913,2.9873,2.9847,2.9753,2.9606,2.9392,2.9112,2.8858,2.8484,2.8379,2.8372,2.8615,2.8799,2.8938,2.9145,2.936,2.9554,2.9697,2.9862,3.0129,3.041,3.0326,3.027,3.0414,3.0338,3.0011,2.9912,2.9763,2.9684,2.9453,2.9508,2.9759,2.9994,3.0236,3.0654,3.1187,3.1853,3.2478,3.3204,3.3642,3.4099,2.7027,2.7027,2.7027,2.7027,2.7027,2.7027,2.7027,2.7027,2.7027,2.7027,2.7027,2.7027,2.7027,2.7027,2.7027,2.7027,2.7027,2.7027,2.7027,2.7027,2.7027,2.7027,2.7027,2.7027,2.7027,2.7027,2.703,2.7054,2.7063,2.716,2.7123,2.7196,2.7389,2.7548,2.786,2.8355,2.856,2.8572,2.8572,2.8572,2.8572,2.862,2.8812,2.9196,2.9423,2.9854,3.0474,3.0856,3.1189,3.1521,3.1629,3.1724,3.1724,3.1724,3.1724,3.1671,3.1129,3.0849,3.0742,3.0221,3.0154,3.0274,3.0319,3.0373,3.0373,3.0346,3.0167,2.9967,2.9913,2.9913,2.9913,2.9913,2.9913,2.9913,2.9913,2.9913,2.9887,2.9873,2.9726,2.9606,2.9472,2.9245,2.8764,2.8446,2.8326,2.8401,2.8613,2.8769,2.8924,2.9091,2.9254,2.9471,2.9645,2.9643,2.9818,2.9427,2.9353,2.9514,2.9548,2.9337,2.9122,2.9054,2.891,2.8728,2.8899,2.9236,2.9581,2.9848,3.0131,3.0381,3.1003,3.1693,3.2474,3.3071,3.3416,2.7027,2.7027,2.7027,2.7027,2.7027,2.7027,2.7027,2.7027,2.7027,2.7027,2.7027,2.7027,2.7027,2.7027,2.7027,2.7027,2.7027,2.7027,2.7027,2.7027,2.7027,2.7027,2.7039,2.7006,2.7051,2.7042,2.7114,2.7247,2.7259,2.7401,2.7522,2.7618,2.7739,2.7968,2.8149,2.8439,2.8572,2.8572,2.8572,2.8572,2.8572,2.862,2.8908,2.9436,2.971,3.0236,3.0903,3.1189,3.1487,3.1664,3.1724,3.1724,3.1724,3.1724,3.1724,3.1657,3.1249,3.0996,3.0849,3.0555,3.0448,3.0533,3.0587,3.06,3.0453,3.0413,3.0194,3.0007,2.9927,2.9913,2.9913,2.9913,2.9913,2.9913,2.9913,2.9913,2.99,2.99,2.9833,2.9753,2.9633,2.9379,2.8978,2.8711,2.8551,2.8417,2.8632,2.8668,2.8783,2.8909,2.9035,2.9369,2.9493,2.9395,2.927,2.9004,2.8906,2.9111,2.9023,2.8785,2.861,2.8533,2.8546,2.856,2.864,2.876,2.9158,2.9432,2.9279,2.9529,3.029,3.1016,3.1728,3.218,3.2411,2.7027,2.7027,2.7027,2.7027,2.7027,2.7027,2.7027,2.7027,2.7027,2.7027,2.7027,2.7027,2.7027,2.7027,2.7027,2.7027,2.7027,2.7027,2.7027,2.7027,2.7027,2.7027,2.7006,2.7078,2.715,2.7198,2.7401,2.7558,2.7512,2.7727,2.7836,2.7944,2.8113,2.8222,2.8367,2.8488,2.8572,2.8572,2.8572,2.8572,2.8668,2.8812,2.9136,2.9663,3.014,3.0665,3.1093,3.1474,3.1724,3.1724,3.1724,3.1724,3.1724,3.1724,3.1724,3.1644,3.1396,3.1089,3.0862,3.0929,3.0822,3.0755,3.0862,3.0782,3.0581,3.0555,3.0287,3.0074,2.994,2.9913,2.9913,2.9913,2.9913,2.9913,2.9913,2.9913,2.9913,2.9913,2.99,2.982,2.9766,2.9486,2.9245,2.9015,2.8828,2.8738,2.8647,2.863,2.8639,2.8696,2.8767,2.8978,2.909,2.8937,2.884,2.873,2.8661,2.8731,2.8593,2.8427,2.8414,2.8358,2.8373,2.8414,2.8579,2.873,2.8894,2.9004,2.9087,2.9321,2.9869,3.046,3.103,3.1321,3.1571,2.7027,2.7027,2.7027,2.7027,2.7027,2.7027,2.7027,2.7027,2.7027,2.7027,2.7027,2.7027,2.7027,2.7027,2.7027,2.7027,2.7027,2.7027,2.7027,2.7027,2.7027,2.7039,2.7148,2.7235,2.7319,2.751,2.7667,2.7824,2.7824,2.7956,2.8077,2.8174,2.8258,2.8391,2.8476,2.868,2.8668,2.862,2.8764,2.8764,2.886,2.9196,2.9663,3.014,3.057,3.1046,3.1426,3.1677,3.1724,3.1724,3.1724,3.1724,3.1724,3.1724,3.1724,3.1644,3.1396,3.1169,3.1022,3.1169,3.1209,3.1156,3.1209,3.1062,3.0849,3.0688,3.0421,3.0114,2.9913,2.9913,2.9913,2.9913,2.9913,2.9913,2.9913,2.9913,2.9913,2.9913,2.9913,2.9887,2.9887,2.9713,2.9526,2.9339,2.9175,2.9085,2.8925,2.8781,2.8708,2.8466,2.8468,2.8403,2.8473,2.8347,2.832,2.8448,2.8434,2.8492,2.8407,2.8285,2.8239,2.8253,2.8257,2.8355,2.8589,2.8686,2.8702,2.8924,2.9161,2.9425,2.9424,2.9771,3.0256,3.0534,3.0827,2.7027,2.7027,2.7027,2.7027,2.7027,2.7027,2.7027,2.7027,2.7027,2.7027,2.7027,2.7027,2.7027,2.7027,2.7027,2.7027,2.7027,2.7027,2.7027,2.7027,2.7027,2.716,2.728,2.7401,2.7488,2.7739,2.7932,2.8101,2.8149,2.8246,2.8367,2.8487,2.8463,2.856,2.8728,2.8956,2.886,2.886,2.9052,2.9148,2.928,2.9663,3.014,3.057,3.0821,3.1249,3.1582,3.1724,3.1724,3.1724,3.1724,3.1724,3.1724,3.1724,3.1724,3.1711,3.1617,3.155,3.1436,3.149,3.1517,3.1503,3.1517,3.1236,3.0982,3.0728,3.0501,3.0154,2.9927,2.9913,2.9913,2.9913,2.9913,2.9913,2.9913,2.9913,2.9913,2.9913,2.9913,2.9913,2.9913,2.9873,2.97,2.9686,2.9553,2.9432,2.9272,2.9072,2.8818,2.8564,2.8377,2.8299,2.8192,2.8205,2.8219,2.8318,2.8263,2.8221,2.8259,2.8312,2.8315,2.8343,2.8248,2.8303,2.8484,2.8499,2.8404,2.8669,2.8919,2.8683,2.8643,2.9048,2.9453,2.9761,2.9998,2.7027,2.7027,2.7027,2.7027,2.7027,2.7027,2.7027,2.7027,2.7027,2.7027,2.7027,2.7027,2.7027,2.7027,2.7027,2.7027,2.7027,2.7027,2.7027,2.7027,2.7027,2.715,2.7295,2.7546,2.7751,2.798,2.8198,2.8379,2.8415,2.8487,2.856,2.856,2.8572,2.8764,2.8956,2.9196,2.9328,2.9375,2.9519,2.9663,2.9841,3.0128,3.057,3.0869,3.1059,3.1392,3.1629,3.1724,3.1724,3.1724,3.1724,3.1724,3.1724,3.1724,3.1724,3.1711,3.1698,3.1684,3.1657,3.1671,3.1711,3.1724,3.1711,3.133,3.1036,3.0755,3.0408,3.006,2.998,2.9913,2.9913,2.9913,2.9913,2.9913,2.9913,2.9913,2.9913,2.9913,2.9913,2.9913,2.9913,2.9913,2.99,2.9913,2.9887,2.974,2.9606,2.9459,2.9125,2.8764,2.8577,2.843,2.8326,2.8219,2.8272,2.8379,2.8446,2.8484,2.8604,2.8604,2.8497,2.8526,2.8524,2.8444,2.8406,2.8395,2.8397,2.8408,2.8547,2.8379,2.8433,2.8852,2.9181,2.92,2.9327,2.7027,2.7027,2.7027,2.7027,2.7027,2.7027,2.7027,2.7027,2.7027,2.7027,2.7027,2.7027,2.7027,2.7027,2.7027,2.7027,2.7027,2.7027,2.7027,2.7027,2.7027,2.715,2.7451,2.7703,2.7932,2.821,2.8427,2.8536,2.8548,2.8572,2.8572,2.862,2.8716,2.8908,2.9232,2.9627,2.9854,3.0093,3.0188,3.0319,3.0331,3.0617,3.0964,3.1059,3.1392,3.1724,3.1724,3.1724,3.1724,3.1724,3.1724,3.1724,3.1724,3.1724,3.1724,3.1724,3.1724,3.1724,3.1724,3.1724,3.1724,3.1724,3.1711,3.133,3.1022,3.0808,3.0488,3.0074,2.9927,2.9913,2.9913,2.9913,2.9913,2.9913,2.9913,2.9913,2.9913,2.9913,2.9913,2.9913,2.9913,2.9913,2.9913,2.9913,2.9913,2.9887,2.9833,2.9726,2.9499,2.9058,2.8845,2.8671,2.8564,2.8484,2.8551,2.8671,2.8764,2.8858,2.8895,2.8881,2.8791,2.8788,2.8868,2.8778,2.8631,2.8553,2.85,2.8551,2.8644,2.8657,2.8751,2.8895,2.9004,2.8992,2.8982,2.7027,2.7027,2.7027,2.7027,2.7027,2.7027,2.7027,2.7027,2.7027,2.7027,2.7027,2.7027,2.7027,2.7027,2.7027,2.7027,2.7027,2.7027,2.7027,2.7027,2.7027,2.7292,2.763,2.7775,2.8077,2.8403,2.8596,2.8572,2.8572,2.8572,2.862,2.8668,2.8908,2.928,2.9567,2.9997,3.0474,3.0713,3.0951,3.0951,3.0808,3.1141,3.1534,3.1534,3.1724,3.1724,3.1724,3.1724,3.1724,3.1724,3.1724,3.1724,3.1724,3.1724,3.1724,3.1724,3.1724,3.1724,3.1724,3.1724,3.1724,3.1724,3.1644,3.1276,3.1022,3.0875,3.0595,3.0154,2.9913,2.9913,2.9913,2.9913,2.9913,2.9913,2.9913,2.9913,2.9913,2.9913,2.9913,2.9913,2.9913,2.9913,2.9913,2.9913,2.9913,2.9913,2.99,2.9847,2.9753,2.9472,2.9232,2.9058,2.8895,2.8841,2.8881,2.8921,2.9058,2.9085,2.9095,2.9068,2.9041,2.9095,2.9148,2.9001,2.8855,2.8804,2.8764,2.8871,2.8895,2.8921,2.9015,2.9175,2.9135,2.9125,2.9028,2.7027,2.7027,2.7027,2.7027,2.7027,2.7027,2.7027,2.7027,2.7027,2.7027,2.7027,2.7027,2.7027,2.7027,2.7027,2.7027,2.7027,2.7027,2.7027,2.7027,2.7087,2.7377,2.7618,2.7824,2.8174,2.8487,2.8548,2.8572,2.8668,2.862,2.8668,2.8956,2.934,2.9675,3.001,3.0665,3.1059,3.1297,3.1569,3.1487,3.1249,3.1534,3.1724,3.1724,3.1724,3.1724,3.1724,3.1724,3.1724,3.1724,3.1724,3.1724,3.1724,3.1724,3.1724,3.1724,3.1724,3.1724,3.1724,3.1724,3.1724,3.1724,3.1711,3.1396,3.0942,3.0755,3.0515,3.0127,2.994,2.9913,2.9913,2.9913,2.9913,2.9913,2.9913,2.9913,2.9913,2.9913,2.9913,2.9913,2.9913,2.9913,2.9913,2.9913,2.9913,2.9913,2.9913,2.9913,2.9847,2.9793,2.9579,2.9406,2.9228,2.9175,2.9232,2.9272,2.9339,2.9352,2.9352,2.9446,2.9455,2.9428,2.9388,2.9268,2.9161,2.9081,2.9081,2.9135,2.9232,2.9245,2.9352,2.9442,2.9406,2.9352,2.9352,2.7027,2.7027,2.7027,2.7027,2.7027,2.7027,2.7027,2.7027,2.7027,2.7027,2.7027,2.7027,2.7027,2.7027,2.7027,2.7027,2.7027,2.7027,2.7027,2.7027,2.7027,2.7377,2.7689,2.7941,2.8422,2.8785,2.898,2.8956,2.8956,2.9004,2.9184,2.9471,2.971,3.0045,3.0665,3.1059,3.1249,3.1487,3.1724,3.1724,3.1677,3.1724,3.1724,3.1724,3.1724,3.1724,3.1724,3.1724,3.1724,3.1724,3.1724,3.1724,3.1724,3.1724,3.1724,3.1724,3.1724,3.1724,3.1724,3.1724,3.1724,3.1724,3.1724,3.1483,3.0969,3.0675,3.0434,3.0167,2.998,2.9913,2.9913,2.9913,2.9913,2.9913,2.9913,2.9913,2.9913,2.9913,2.9913,2.9913,2.9913,2.9913,2.9913,2.9913,2.9913,2.9913,2.9913,2.9913,2.99,2.9873,2.9766,2.9646,2.9482,2.9513,2.9539,2.9539,2.9579,2.9646,2.9673,2.982,2.9873,2.9753,2.9646,2.9593,2.9486,2.9432,2.9375,2.9446,2.9486,2.9513,2.9593,2.9686,2.9713,2.9686,2.978,2.7027,2.7027,2.7027,2.7027,2.7027,2.7027,2.7027,2.7027,2.7027,2.7027,2.7027,2.7027,2.7027,2.7027,2.7027,2.7027,2.7027,2.7027,2.7027,2.7027,2.7027,2.7319,2.7854,2.8413,2.9023,2.9415,2.965,2.9746,2.9519,2.965,2.9841,2.9984,3.044,3.0678,3.0869,3.1202,3.1534,3.1724,3.1724,3.1724,3.1724,3.1724,3.1724,3.1724,3.1724,3.1724,3.1724,3.1724,3.1724,3.1724,3.1724,3.1724,3.1724,3.1724,3.1724,3.1724,3.1724,3.1724,3.1724,3.1724,3.1724,3.1724,3.1671,3.1457,3.1036,3.0782,3.0474,3.006,2.9913,2.9913,2.9913,2.9913,2.9913,2.9913,2.9913,2.9913,2.9913,2.9913,2.9913,2.9913,2.9913,2.9913,2.9913,2.9913,2.9913,2.9913,2.9913,2.9913,2.9913,2.9913,2.9913,2.9833,2.974,2.9806,2.982,2.9766,2.9793,2.9873,2.9913,2.9913,2.9913,2.9913,2.9833,2.9753,2.9766,2.9753,2.9753,2.9659,2.9726,2.9753,2.9806,2.9873,2.9913,2.9913,2.9913]},{"header":{"parameterUnit":"m.s-1","parameterCategory":1,"la1":31.0,"la2":29.5877,"lo1":-88.7671,"lo2":-86.6584,"dy":0.0162,"dx":0.0185,"nx":115,"ny":88,"refTime":"2023-09-26T12:00:00:Z","depth":0,"parameterNumber":3,"parameterNumberName":"V-component_of_WINDS"},"data":[0.0,0.0,0.0,0.0,0.0,0.0,0.0,0.0,0.0,0.0,0.0,0.0,0.0,0.0,0.0,0.0,0.0,0.0,0.0,0.0,0.0,0.0,0.0,0.0,0.0,0.0,0.0,0.0,0.0,0.0,0.0,0.0,0.0,0.0,0.0,0.0,0.0,0.0,0.0,0.0,0.0,0.0,0.0,0.0,0.0,0.0,0.0,0.0,0.0,0.0,0.0,0.0,0.0,0.0,0.0,0.0,0.0,0.0,0.0,0.0,0.0,0.0,0.0,0.0,0.0,0.0,0.0,0.0,0.0,0.0,0.0,0.0,0.0,0.0,0.0,0.0,0.0,0.0,0.0,0.0,0.0,0.0,0.0,0.0,0.0,0.0,0.0,0.0,0.0,0.0,0.0,0.0,0.0,0.0,0.0,0.0,0.0,0.0,0.0,0.0,0.0,0.0,0.0,0.0,0.0,0.0,0.0,0.0,0.0,0.0,0.0,0.0,0.0,0.0,0.0,0.0,0.0,0.0,0.0,0.0,0.0,0.0,0.0,0.0,0.0,0.0,0.0,0.0,0.0,0.0,0.0,0.0,0.0,0.0,0.0,0.0,0.0,0.0,0.0,0.0,0.0,0.0,0.0,0.0,0.0,0.0,0.0,0.0,0.0,0.0,0.0,0.0,0.0,0.0,0.0,0.0,0.0,0.0,0.0,0.0,0.0,0.0,0.0,0.0,0.0,0.0,0.0,0.0,0.0,0.0,0.0,0.0,0.0,0.0,0.0,0.0,0.0,0.0,0.0,0.0,0.0,0.0,0.0,0.0,0.0,0.0,0.0,0.0,0.0,0.0,0.0,0.0,0.0,0.0,0.0,0.0,0.0,0.0,0.0,0.0,0.0,0.0,0.0,0.0,0.0,0.0,0.0,0.0,0.0,0.0,0.0,0.0,0.0,0.0,0.0,0.0,0.0,0.0,0.0,0.0,0.0,0.0,0.0,0.0,0.0,0.0,0.0,0.0,0.0,0.0,0.0,0.0,0.0,0.0,0.0,0.0,0.0,0.0,0.0,0.0,0.0,0.0,0.0,0.0,0.0,0.0,0.0,0.0,0.0,0.0,0.0,0.0,0.0,0.0,0.0,0.0,0.0,0.0,0.0,0.0,0.0,0.0,0.0,0.0,0.0,0.0,0.0,0.0,0.0,0.0,0.0,0.0,0.0,0.0,0.0,0.0,0.0,0.0,0.0,0.0,0.0,0.0,0.0,0.0,0.0,0.0,0.0,0.0,0.0,0.0,0.0,0.0,0.0,0.0,0.0,0.0,0.0,0.0,0.0,0.0,0.0,0.0,0.0,0.0,0.0,0.0,0.0,0.0,0.0,0.0,0.0,0.0,0.0,0.0,0.0,0.0,0.0,0.0,0.0,0.0,0.0,0.0,0.0,0.0,0.0,0.0,0.0,0.0,0.0,0.0,0.0,0.0,0.0,0.0,0.0,0.0,0.0,0.0,0.0,0.0,0.0,0.0,0.0,0.0,0.0,0.0,0.0,0.0,0.0,0.0,0.0,0.0,0.0,0.0,0.0,0.0,0.0,0.0,0.0,0.0,0.0,0.0,0.0,0.0,0.0,0.0,0.0,0.0,0.0,0.0,0.0,0.0,0.0,0.0,0.0,0.0,0.0,0.0,0.0,0.0,0.0,0.0,0.0,0.0,0.0,0.0,0.0,0.0,0.0,0.0,0.0,0.0,0.0,0.0,0.0,0.0,0.0,0.0,0.0,0.0,0.0,0.0,0.0,0.0,0.0,0.0,0.0,0.0,0.0,0.0,0.0,0.0,0.0,0.0,0.0,0.0,0.0,0.0,0.0,0.0,0.0,0.0,0.0,0.0,0.0,0.0,0.0,0.0,0.0,0.0,0.0,0.0,0.0,0.0,0.0,0.0,0.0,0.0,0.0,0.0,0.0,0.0,0.0,0.0,0.0,0.0,0.0,0.0,0.0,0.0,0.0,0.0,0.0,0.0,0.0,0.0,0.0,0.0,0.0,0.0,0.0,0.0,0.0,0.0,0.0,0.0,0.0,0.0,0.0,0.0,0.0,0.0,0.0,0.0,0.0,0.0,0.0,0.0,0.0,0.0,0.0,0.0,0.0,0.0,0.0,0.0,0.0,0.0,0.0,0.0,0.0,0.0,0.0,0.0,0.0,0.0,0.0,0.0,0.0,0.0,0.0,0.0,0.0,0.0,0.0,0.0,0.0,0.0,0.0,0.0,0.0,0.0,0.0,0.0,0.0,0.0,0.0,0.0,0.0,0.0,0.0,0.0,0.0,0.0,0.0,0.0,0.0,0.0,0.0,0.0,0.0,0.0,0.0,0.0,0.0,0.0,0.0,0.0,0.0,0.0,0.0,0.0,0.0,0.0,0.0,0.0,0.0,0.0,0.0,0.0,0.0,0.0,0.0,0.0,0.0,0.0,0.0,0.0,0.0,0.0,0.0,0.0,0.0,0.0,0.0,0.0,0.0,0.0,0.0,0.0,0.0,0.0,0.0,0.0,0.0,0.0,0.0,0.0,0.0,0.0,0.0,0.0,0.0,0.0,0.0,0.0,0.0,0.0,0.0,0.0,0.0,0.0,0.0,0.0,0.0,0.0,0.0,0.0,0.0,0.0,0.0,0.0,0.0,0.0,0.0,0.0,0.0,0.0,0.0,0.0,0.0,0.0,0.0,0.0,0.0,0.0,0.0,0.0,0.0,0.0,0.0,0.0,0.0,0.0,0.0,0.0,0.0,0.0,0.0,0.0,0.0,0.0,0.0,0.0,0.0,0.0,0.0,0.0,0.0,0.0,0.0,0.0,0.0,0.0,0.0,0.0,0.0,0.0,0.0,0.0,0.0,0.0,0.0,0.0,0.0,0.0,0.0,0.0,0.0,0.0,0.0,0.0,0.0,0.0,0.0,0.0,0.0,0.0,0.0,0.0,0.0,0.0,0.0,0.0,0.0,0.0,0.0,0.0,0.0,0.0,0.0,0.0,0.0,0.0,0.0,0.0,0.0,0.0,0.0,0.0,0.0,0.0,0.0,0.0,0.0,0.0,0.0,0.0,0.0,0.0,0.0,0.0,0.0,0.0,0.0,0.0,0.0,0.0,0.0,0.0,0.0,0.0,0.0,0.0,0.0,0.0,0.0,0.0,0.0,0.0,0.0,0.0,0.0,0.0,0.0,0.0,0.0,0.0,0.0,0.0,0.0,0.0,0.0,0.0,0.0,0.0,0.0,0.0,0.0,0.0,0.0,0.0,0.0,0.0,0.0,0.0,0.0,0.0,0.0,0.0,0.0,0.0,0.0,0.0,0.0,0.0,0.0,0.0,0.0,0.0,0.0,0.0,0.0,0.0,0.0,0.0,0.0,0.0,0.0,0.0,0.0,0.0,0.0,0.0,0.0,0.0,0.0,0.0,0.0,0.0,0.0,0.0,0.0,0.0,0.0,0.0,0.0,0.0,0.0,0.0,0.0,0.0,0.0,0.0,0.0,0.0,0.0,0.0,0.0,0.0,0.0,0.0,0.0,0.0,0.0,0.0,0.0,0.0,0.0,0.0,0.0,0.0,0.0,0.0,0.0,0.0,0.0,0.0,0.0,0.0,0.0,0.0,0.0,0.0,0.0,0.0,0.0,0.0,0.0,0.0,0.0,0.0,0.0,0.0,0.0,0.0,0.0,0.0,0.0,0.0,0.0,0.0,0.0,0.0,0.0,0.0,0.0,0.0,0.0,0.0,0.0,0.0,0.0,0.0,0.0,0.0,0.0,0.0,0.0,0.0,0.0,0.0,0.0,0.0,0.0,0.0,0.0,0.0,0.0,0.0,0.0,0.0,0.0,0.0,0.0,0.0,0.0,0.0,0.0,0.0,0.0,0.0,0.0,0.0,0.0,0.0,0.0,0.0,0.0,0.0,0.0,0.0,0.0,0.0,0.0,0.0,0.0,0.0,0.0,0.0,0.0,0.0,0.0,0.0,0.0,0.0,0.0,0.0,0.0,0.0,0.0,0.0,0.0,0.0,0.0,0.0,0.0,0.0,0.0,0.0,0.0,0.0,0.0,0.0,0.0,0.0,0.0,0.0,0.0,0.0,0.0,0.0,0.0,0.0,0.0,0.0,0.0,0.0,0.0,0.0,0.0,0.0,0.0,0.0,0.0,0.0,0.0,0.0,0.0,0.0,0.0,0.0,0.0,0.0,0.0,0.0,0.0,0.0,0.0,0.0,0.0,0.0,0.0,0.0,0.0,0.0,3.3218,0.0,0.0,0.0,0.0,0.0,0.0,0.0,0.0,0.0,0.0,0.0,0.0,0.0,0.0,0.0,0.0,0.0,0.0,0.0,0.0,0.0,0.0,0.0,0.0,0.0,0.0,0.0,0.0,0.0,0.0,0.0,0.0,0.0,0.0,0.0,0.0,0.0,0.0,0.0,0.0,0.0,0.0,0.0,0.0,0.0,0.0,0.0,0.0,0.0,0.0,0.0,0.0,0.0,0.0,0.0,0.0,0.0,0.0,0.0,0.0,0.0,0.0,0.0,0.0,0.0,0.0,0.0,0.0,0.0,0.0,0.0,0.0,0.0,0.0,0.0,0.0,0.0,0.0,0.0,0.0,0.0,0.0,0.0,0.0,0.0,0.0,0.0,0.0,0.0,0.0,0.0,0.0,0.0,0.0,0.0,0.0,0.0,0.0,0.0,0.0,0.0,0.0,0.0,0.0,0.0,0.0,0.0,0.0,0.0,0.0,3.6639,3.7029,3.6319,3.5649,3.5009,0.0,0.0,0.0,0.0,0.0,0.0,0.0,0.0,0.0,0.0,0.0,0.0,0.0,0.0,0.0,0.0,0.0,0.0,0.0,0.0,0.0,0.0,0.0,0.0,0.0,0.0,0.0,0.0,0.0,0.0,0.0,0.0,0.0,0.0,0.0,0.0,0.0,0.0,0.0,0.0,0.0,0.0,0.0,0.0,0.0,0.0,0.0,0.0,0.0,0.0,0.0,0.0,0.0,0.0,0.0,0.0,0.0,0.0,0.0,0.0,0.0,0.0,0.0,0.0,0.0,0.0,0.0,0.0,0.0,0.0,0.0,0.0,0.0,0.0,0.0,0.0,0.0,0.0,0.0,0.0,0.0,0.0,0.0,0.0,0.0,0.0,0.0,0.0,0.0,0.0,0.0,0.0,0.0,0.0,0.0,0.0,0.0,0.0,0.0,0.0,0.0,0.0,0.0,0.0,0.0,0.0,0.0,0.0,0.0,0.0,0.0,0.0,3.7543,3.6741,3.6204,0.0,0.0,0.0,0.0,0.0,0.0,0.0,0.0,0.0,0.0,0.0,0.0,0.0,0.0,0.0,0.0,0.0,0.0,0.0,0.0,0.0,0.0,0.0,0.0,0.0,0.0,0.0,0.0,0.0,0.0,0.0,0.0,0.0,0.0,0.0,0.0,0.0,0.0,0.0,0.0,0.0,0.0,0.0,0.0,0.0,0.0,0.0,0.0,0.0,0.0,0.0,0.0,0.0,0.0,0.0,0.0,0.0,0.0,0.0,0.0,0.0,0.0,0.0,0.0,0.0,0.0,0.0,0.0,0.0,0.0,0.0,0.0,0.0,0.0,0.0,0.0,0.0,0.0,0.0,0.0,0.0,0.0,0.0,0.0,0.0,0.0,0.0,0.0,0.0,0.0,0.0,0.0,0.0,0.0,0.0,0.0,0.0,0.0,0.0,0.0,0.0,0.0,0.0,0.0,0.0,0.0,0.0,0.0,0.0,0.0,3.7847,3.8571,3.8479,0.0,3.5615,0.0,0.0,0.0,0.0,0.0,0.0,0.0,0.0,0.0,0.0,0.0,0.0,0.0,0.0,0.0,0.0,0.0,0.0,0.0,0.0,0.0,0.0,0.0,0.0,0.0,0.0,0.0,0.0,0.0,0.0,0.0,0.0,0.0,0.0,0.0,0.0,0.0,0.0,0.0,0.0,0.0,0.0,0.0,0.0,0.0,0.0,0.0,0.0,0.0,0.0,0.0,0.0,0.0,0.0,0.0,0.0,0.0,0.0,0.0,0.0,0.0,0.0,0.0,0.0,0.0,0.0,0.0,0.0,0.0,0.0,0.0,0.0,0.0,0.0,0.0,0.0,0.0,0.0,0.0,0.0,0.0,0.0,0.0,0.0,0.0,0.0,0.0,0.0,0.0,0.0,0.0,0.0,0.0,0.0,0.0,0.0,0.0,0.0,0.0,0.0,0.0,0.0,0.0,0.0,0.0,0.0,0.0,0.0,0.0,0.0,3.9848,4.0607,3.9744,3.8061,0.0,0.0,0.0,0.0,0.0,0.0,0.0,0.0,0.0,0.0,0.0,0.0,0.0,0.0,0.0,0.0,0.0,0.0,0.0,0.0,0.0,0.0,0.0,0.0,0.0,0.0,0.0,0.0,0.0,0.0,0.0,0.0,0.0,0.0,0.0,0.0,0.0,0.0,0.0,0.0,0.0,0.0,0.0,0.0,0.0,0.0,0.0,0.0,0.0,0.0,0.0,0.0,0.0,0.0,0.0,0.0,0.0,0.0,0.0,0.0,0.0,0.0,0.0,0.0,0.0,0.0,0.0,0.0,0.0,0.0,0.0,0.0,0.0,0.0,0.0,0.0,0.0,0.0,0.0,0.0,0.0,0.0,0.0,0.0,0.0,0.0,0.0,0.0,0.0,0.0,0.0,0.0,0.0,0.0,0.0,0.0,0.0,0.0,0.0,0.0,0.0,0.0,0.0,0.0,0.0,0.0,0.0,0.0,0.0,0.0,4.0193,4.1228,4.1883,4.0491,3.8476,3.5893,0.0,0.0,0.0,0.0,0.0,0.0,0.0,0.0,0.0,0.0,0.0,0.0,0.0,0.0,0.0,0.0,0.0,0.0,0.0,0.0,0.0,0.0,0.0,0.0,0.0,0.0,0.0,0.0,0.0,0.0,0.0,0.0,0.0,0.0,0.0,0.0,0.0,0.0,0.0,0.0,0.0,0.0,0.0,0.0,0.0,0.0,0.0,0.0,0.0,0.0,0.0,0.0,0.0,0.0,0.0,0.0,0.0,0.0,0.0,0.0,0.0,0.0,0.0,0.0,0.0,0.0,0.0,0.0,0.0,0.0,0.0,0.0,0.0,0.0,0.0,0.0,0.0,0.0,0.0,0.0,0.0,0.0,0.0,0.0,0.0,0.0,0.0,0.0,0.0,0.0,0.0,0.0,0.0,0.0,0.0,0.0,0.0,0.0,0.0,0.0,0.0,0.0,0.0,0.0,0.0,0.0,0.0,0.0,3.9526,4.0469,4.1262,4.1952,4.0491,3.8718,0.0,0.0,0.0,0.0,0.0,0.0,0.0,0.0,0.0,0.0,0.0,0.0,0.0,0.0,0.0,0.0,0.0,0.0,0.0,0.0,0.0,0.0,0.0,0.0,0.0,0.0,0.0,0.0,0.0,0.0,0.0,0.0,0.0,0.0,0.0,0.0,0.0,0.0,0.0,0.0,0.0,0.0,0.0,0.0,0.0,0.0,0.0,0.0,0.0,0.0,0.0,0.0,0.0,0.0,0.0,0.0,0.0,0.0,0.0,0.0,0.0,0.0,0.0,0.0,0.0,0.0,0.0,0.0,0.0,0.0,0.0,0.0,0.0,0.0,0.0,0.0,0.0,0.0,0.0,0.0,0.0,0.0,0.0,0.0,0.0,0.0,0.0,0.0,0.0,0.0,0.0,0.0,0.0,0.0,0.0,0.0,0.0,0.0,0.0,0.0,0.0,0.0,0.0,0.0,0.0,0.0,0.0,0.0,0.0,3.8985,4.1205,4.2482,4.2689,4.1274,3.9237,0.0,0.0,0.0,0.0,0.0,0.0,0.0,0.0,0.0,0.0,0.0,0.0,0.0,0.0,0.0,0.0,0.0,0.0,0.0,0.0,0.0,0.0,0.0,0.0,0.0,0.0,0.0,0.0,0.0,0.0,0.0,0.0,0.0,0.0,0.0,0.0,0.0,0.0,0.0,0.0,0.0,0.0,0.0,0.0,0.0,0.0,0.0,0.0,0.0,0.0,0.0,0.0,0.0,0.0,0.0,0.0,0.0,0.0,0.0,0.0,0.0,0.0,0.0,0.0,0.0,0.0,0.0,0.0,0.0,0.0,0.0,0.0,0.0,0.0,0.0,0.0,0.0,0.0,0.0,0.0,0.0,0.0,0.0,0.0,0.0,0.0,0.0,0.0,0.0,0.0,0.0,0.0,0.0,0.0,0.0,0.0,0.0,0.0,0.0,0.0,0.0,0.0,0.0,0.0,0.0,0.0,0.0,0.0,0.0,4.0032,0.0,4.3414,4.3138,4.1688,3.9559,0.0,0.0,0.0,0.0,0.0,0.0,0.0,0.0,0.0,0.0,0.0,0.0,0.0,0.0,0.0,0.0,0.0,0.0,0.0,0.0,0.0,0.0,0.0,0.0,0.0,0.0,0.0,0.0,0.0,0.0,0.0,0.0,0.0,0.0,0.0,0.0,0.0,0.0,0.0,0.0,0.0,0.0,0.0,0.0,0.0,0.0,0.0,0.0,0.0,0.0,0.0,0.0,0.0,0.0,0.0,0.0,0.0,0.0,0.0,0.0,0.0,0.0,0.0,0.0,0.0,0.0,0.0,0.0,0.0,0.0,0.0,0.0,0.0,0.0,0.0,0.0,0.0,0.0,0.0,0.0,0.0,0.0,0.0,0.0,0.0,0.0,0.0,0.0,0.0,0.0,0.0,0.0,0.0,0.0,0.0,0.0,0.0,0.0,0.0,0.0,0.0,0.0,0.0,0.0,0.0,0.0,0.0,0.0,3.8571,4.293,4.3862,4.3931,4.3207,4.1723,3.9559,0.0,0.0,0.0,0.0,0.0,0.0,0.0,0.0,0.0,0.0,0.0,0.0,0.0,0.0,0.0,0.0,0.0,0.0,0.0,0.0,0.0,0.0,0.0,0.0,0.0,0.0,0.0,0.0,0.0,0.0,0.0,0.0,0.0,0.0,0.0,0.0,0.0,0.0,0.0,0.0,0.0,0.0,0.0,0.0,0.0,0.0,0.0,0.0,0.0,0.0,0.0,0.0,0.0,0.0,0.0,0.0,0.0,0.0,0.0,0.0,0.0,0.0,0.0,0.0,0.0,0.0,0.0,0.0,0.0,0.0,0.0,0.0,0.0,0.0,0.0,0.0,0.0,0.0,0.0,0.0,0.0,0.0,0.0,0.0,0.0,0.0,0.0,0.0,0.0,0.0,0.0,0.0,0.0,0.0,0.0,0.0,0.0,0.0,0.0,0.0,0.0,0.0,0.0,0.0,0.0,0.0,0.0,0.0,0.0,4.3103,4.3931,4.3931,4.3172,4.176,3.9592,0.0,0.0,0.0,0.0,0.0,0.0,0.0,0.0,0.0,0.0,0.0,0.0,0.0,0.0,0.0,0.0,0.0,0.0,0.0,0.0,0.0,0.0,0.0,0.0,0.0,0.0,0.0,0.0,0.0,0.0,0.0,0.0,0.0,0.0,0.0,0.0,0.0,0.0,0.0,0.0,0.0,0.0,0.0,0.0,0.0,0.0,0.0,0.0,0.0,0.0,0.0,0.0,0.0,0.0,0.0,0.0,0.0,0.0,0.0,0.0,0.0,0.0,0.0,0.0,0.0,0.0,0.0,0.0,0.0,0.0,0.0,0.0,0.0,0.0,0.0,0.0,0.0,0.0,0.0,0.0,0.0,0.0,0.0,0.0,0.0,0.0,0.0,0.0,0.0,0.0,0.0,0.0,0.0,0.0,0.0,0.0,0.0,0.0,0.0,0.0,0.0,0.0,0.0,0.0,0.0,0.0,0.0,0.0,0.0,4.4464,4.4724,4.4582,4.4098,4.2722,4.0456,3.7268,0.0,0.0,0.0,0.0,0.0,0.0,0.0,0.0,0.0,0.0,0.0,0.0,0.0,0.0,0.0,0.0,0.0,0.0,0.0,0.0,0.0,0.0,0.0,0.0,0.0,0.0,0.0,0.0,0.0,0.0,0.0,0.0,0.0,0.0,0.0,0.0,0.0,0.0,0.0,0.0,0.0,0.0,0.0,0.0,0.0,0.0,0.0,0.0,0.0,0.0,0.0,0.0,0.0,0.0,0.0,0.0,0.0,0.0,0.0,0.0,0.0,0.0,0.0,0.0,0.0,0.0,0.0,0.0,0.0,0.0,0.0,0.0,0.0,0.0,0.0,0.0,0.0,0.0,0.0,0.0,0.0,0.0,0.0,0.0,0.0,0.0,0.0,0.0,0.0,0.0,0.0,0.0,0.0,0.0,0.0,0.0,0.0,0.0,0.0,0.0,0.0,0.0,0.0,0.0,0.0,0.0,0.0,0.0,4.7013,4.6317,4.5858,4.5749,4.4386,4.1974,0.0,0.0,0.0,0.0,0.0,0.0,0.0,0.0,0.0,0.0,0.0,0.0,0.0,0.0,0.0,0.0,0.0,0.0,0.0,0.0,0.0,0.0,0.0,0.0,0.0,0.0,0.0,0.0,0.0,0.0,0.0,0.0,0.0,0.0,0.0,0.0,0.0,0.0,0.0,0.0,0.0,0.0,0.0,0.0,0.0,0.0,0.0,0.0,0.0,0.0,0.0,0.0,0.0,0.0,0.0,0.0,0.0,0.0,0.0,0.0,0.0,0.0,0.0,0.0,0.0,0.0,0.0,0.0,0.0,0.0,0.0,0.0,0.0,0.0,0.0,0.0,0.0,0.0,0.0,0.0,0.0,0.0,0.0,0.0,0.0,0.0,0.0,0.0,0.0,0.0,0.0,0.0,0.0,0.0,0.0,0.0,0.0,0.0,0.0,0.0,0.0,0.0,0.0,0.0,0.0,0.0,0.0,0.0,0.0,4.7915,4.91,4.9017,4.7701,4.5693,4.3161,0.0,0.0,0.0,0.0,0.0,0.0,0.0,0.0,0.0,0.0,0.0,0.0,0.0,0.0,0.0,0.0,0.0,0.0,0.0,0.0,0.0,0.0,0.0,0.0,0.0,0.0,0.0,0.0,0.0,0.0,0.0,0.0,0.0,0.0,0.0,0.0,0.0,0.0,0.0,0.0,0.0,0.0,0.0,0.0,0.0,0.0,0.0,0.0,0.0,0.0,0.0,0.0,0.0,0.0,0.0,0.0,0.0,0.0,0.0,0.0,0.0,0.0,0.0,0.0,0.0,0.0,0.0,0.0,0.0,0.0,0.0,0.0,0.0,0.0,0.0,0.0,0.0,0.0,0.0,0.0,0.0,0.0,0.0,0.0,0.0,0.0,0.0,0.0,0.0,0.0,0.0,0.0,0.0,0.0,0.0,0.0,0.0,0.0,0.0,0.0,0.0,0.0,0.0,0.0,0.0,0.0,0.0,0.0,4.65,4.9664,5.1679,5.2135,5.087,4.8178,4.5011,0.0,0.0,0.0,0.0,0.0,0.0,0.0,0.0,0.0,0.0,0.0,0.0,0.0,0.0,0.0,0.0,0.0,0.0,0.0,0.0,0.0,0.0,0.0,0.0,0.0,0.0,0.0,0.0,0.0,0.0,0.0,0.0,0.0,0.0,0.0,0.0,0.0,0.0,0.0,0.0,0.0,0.0,0.0,0.0,0.0,0.0,0.0,0.0,0.0,0.0,0.0,0.0,0.0,0.0,0.0,0.0,0.0,0.0,0.0,0.0,0.0,0.0,0.0,0.0,0.0,0.0,0.0,0.0,0.0,0.0,0.0,0.0,0.0,0.0,0.0,0.0,0.0,0.0,0.0,0.0,0.0,0.0,0.0,0.0,0.0,0.0,0.0,0.0,0.0,0.0,0.0,0.0,0.0,0.0,0.0,0.0,0.0,0.0,0.0,0.0,0.0,0.0,0.0,0.0,0.0,0.0,0.0,0.0,4.8303,5.1605,5.3896,5.4835,5.4271,5.1041,4.7167,0.0,0.0,0.0,0.0,0.0,0.0,0.0,0.0,0.0,0.0,0.0,0.0,0.0,0.0,0.0,0.0,0.0,0.0,0.0,0.0,0.0,0.0,0.0,0.0,0.0,0.0,0.0,0.0,0.0,0.0,0.0,0.0,0.0,0.0,0.0,0.0,0.0,0.0,0.0,0.0,0.0,0.0,0.0,0.0,0.0,0.0,0.0,0.0,0.0,0.0,0.0,0.0,0.0,0.0,0.0,0.0,0.0,0.0,0.0,0.0,0.0,0.0,0.0,0.0,0.0,0.0,0.0,0.0,0.0,0.0,0.0,0.0,0.0,0.0,0.0,0.0,0.0,0.0,0.0,0.0,0.0,0.0,0.0,0.0,0.0,0.0,0.0,0.0,0.0,0.0,0.0,0.0,0.0,0.0,0.0,0.0,0.0,0.0,0.0,0.0,0.0,0.0,0.0,0.0,0.0,0.0,0.0,0.0,4.9436,5.2681,5.4525,5.5414,5.5287,5.2074,4.8791,0.0,0.0,0.0,0.0,0.0,0.0,0.0,0.0,0.0,0.0,0.0,0.0,0.0,0.0,0.0,0.0,0.0,0.0,0.0,0.0,0.0,0.0,0.0,0.0,0.0,0.0,0.0,0.0,0.0,0.0,0.0,0.0,0.0,0.0,0.0,0.0,0.0,0.0,0.0,0.0,0.0,0.0,0.0,0.0,0.0,0.0,0.0,0.0,3.9525,0.0,0.0,0.0,0.0,0.0,0.0,0.0,0.0,0.0,0.0,0.0,0.0,0.0,0.0,0.0,0.0,0.0,0.0,0.0,0.0,0.0,0.0,0.0,0.0,0.0,0.0,0.0,0.0,0.0,0.0,0.0,0.0,0.0,0.0,0.0,0.0,0.0,0.0,0.0,0.0,0.0,0.0,0.0,0.0,0.0,0.0,0.0,0.0,0.0,0.0,0.0,0.0,0.0,0.0,0.0,0.0,0.0,0.0,0.0,5.0342,5.3229,5.5222,5.5934,5.5227,5.2858,5.005,0.0,0.0,0.0,0.0,0.0,0.0,0.0,0.0,0.0,0.0,0.0,0.0,0.0,0.0,0.0,0.0,0.0,0.0,0.0,0.0,0.0,0.0,0.0,0.0,0.0,0.0,0.0,0.0,0.0,0.0,0.0,0.0,0.0,0.0,0.0,0.0,0.0,0.0,0.0,0.0,0.0,0.0,0.0,0.0,0.0,0.0,0.0,0.0,0.0,0.0,0.0,0.0,0.0,0.0,0.0,0.0,0.0,0.0,0.0,0.0,0.0,0.0,0.0,0.0,0.0,0.0,0.0,0.0,0.0,0.0,0.0,0.0,0.0,0.0,0.0,0.0,0.0,0.0,0.0,0.0,0.0,0.0,0.0,0.0,0.0,0.0,0.0,0.0,0.0,0.0,0.0,0.0,0.0,0.0,0.0,0.0,0.0,0.0,0.0,0.0,0.0,0.0,0.0,0.0,0.0,0.0,0.0,4.7751,5.1009,5.3664,5.5867,5.6411,5.5075,5.3385,5.0986,4.7767,0.0,0.0,0.0,0.0,0.0,0.0,0.0,0.0,0.0,0.0,0.0,0.0,0.0,0.0,0.0,0.0,0.0,0.0,0.0,0.0,0.0,0.0,0.0,0.0,0.0,0.0,0.0,0.0,0.0,0.0,0.0,0.0,0.0,0.0,0.0,0.0,0.0,0.0,3.5915,3.8519,0.0,0.0,0.0,0.0,0.0,0.0,0.0,0.0,4.1982,0.0,0.0,0.0,0.0,0.0,0.0,0.0,0.0,0.0,0.0,0.0,0.0,0.0,0.0,0.0,0.0,0.0,0.0,0.0,0.0,0.0,0.0,0.0,0.0,0.0,0.0,0.0,0.0,0.0,0.0,0.0,0.0,0.0,0.0,0.0,0.0,0.0,0.0,0.0,0.0,0.0,0.0,0.0,0.0,0.0,0.0,0.0,0.0,0.0,0.0,0.0,0.0,0.0,0.0,0.0,0.0,4.4921,4.8204,5.1401,5.4617,5.6294,5.6741,5.5812,5.3675,5.1273,4.8634,0.0,0.0,0.0,0.0,0.0,0.0,0.0,0.0,0.0,0.0,0.0,0.0,0.0,0.0,0.0,0.0,0.0,0.0,0.0,0.0,0.0,0.0,0.0,0.0,0.0,0.0,0.0,0.0,0.0,0.0,0.0,0.0,0.0,0.0,0.0,0.0,0.0,0.0,0.0,3.994,4.1339,0.0,0.0,0.0,0.0,0.0,0.0,0.0,0.0,4.2455,0.0,0.0,0.0,0.0,0.0,0.0,0.0,0.0,0.0,0.0,0.0,0.0,0.0,0.0,0.0,0.0,0.0,0.0,0.0,0.0,0.0,0.0,0.0,0.0,0.0,0.0,0.0,0.0,0.0,0.0,0.0,0.0,0.0,0.0,0.0,0.0,0.0,0.0,0.0,0.0,0.0,0.0,0.0,0.0,0.0,0.0,0.0,0.0,0.0,0.0,0.0,0.0,0.0,0.0,0.0,4.5176,4.8793,5.1999,5.4822,5.6391,5.6645,5.545,5.353,5.0995,0.0,0.0,0.0,0.0,0.0,0.0,0.0,0.0,0.0,0.0,0.0,0.0,0.0,0.0,0.0,0.0,0.0,0.0,0.0,0.0,0.0,0.0,0.0,0.0,0.0,0.0,0.0,0.0,0.0,0.0,0.0,0.0,0.0,0.0,0.0,0.0,0.0,0.0,0.0,0.0,4.117,4.2746,4.391,0.0,0.0,0.0,0.0,0.0,0.0,4.4316,4.4181,0.0,0.0,0.0,0.0,0.0,0.0,0.0,0.0,0.0,0.0,0.0,0.0,0.0,0.0,0.0,0.0,0.0,0.0,0.0,0.0,0.0,0.0,0.0,0.0,0.0,0.0,0.0,0.0,0.0,0.0,0.0,0.0,0.0,0.0,0.0,0.0,0.0,0.0,0.0,0.0,0.0,0.0,0.0,0.0,0.0,0.0,0.0,0.0,0.0,0.0,0.0,0.0,0.0,0.0,0.0,4.556,4.9405,5.2524,5.487,5.6466,5.6551,5.4979,5.3383,5.0663,0.0,0.0,0.0,0.0,0.0,0.0,0.0,0.0,0.0,0.0,0.0,0.0,0.0,0.0,0.0,0.0,0.0,0.0,0.0,0.0,0.0,0.0,0.0,0.0,0.0,0.0,0.0,0.0,0.0,0.0,0.0,0.0,0.0,0.0,0.0,0.0,0.0,0.0,0.0,0.0,0.0,4.3998,4.5669,4.594,0.0,0.0,0.0,0.0,4.6143,4.6128,0.0,0.0,0.0,0.0,0.0,0.0,0.0,0.0,0.0,0.0,0.0,0.0,0.0,0.0,0.0,0.0,0.0,0.0,0.0,0.0,0.0,0.0,0.0,0.0,0.0,0.0,0.0,0.0,0.0,0.0,0.0,0.0,0.0,0.0,0.0,0.0,0.0,0.0,0.0,0.0,0.0,0.0,0.0,0.0,0.0,0.0,0.0,0.0,0.0,0.0,0.0,0.0,0.0,0.0,0.0,0.0,4.6567,4.9883,5.2725,5.5093,5.6708,5.6769,5.5202,5.3588,5.086,0.0,0.0,0.0,0.0,0.0,0.0,0.0,0.0,0.0,0.0,0.0,0.0,0.0,0.0,0.0,0.0,0.0,0.0,0.0,0.0,0.0,0.0,0.0,0.0,0.0,0.0,0.0,0.0,0.0,0.0,0.0,0.0,0.0,0.0,0.0,0.0,0.0,0.0,0.0,0.0,0.0,4.4201,4.6346,4.665,4.7124,0.0,0.0,4.765,4.765,4.765,0.0,0.0,0.0,0.0,0.0,0.0,0.0,0.0,0.0,0.0,0.0,0.0,0.0,0.0,0.0,0.0,0.0,0.0,0.0,0.0,0.0,0.0,0.0,0.0,0.0,0.0,0.0,0.0,0.0,0.0,0.0,0.0,0.0,0.0,0.0,0.0,0.0,0.0,0.0,0.0,0.0,0.0,0.0,0.0,0.0,0.0,0.0,0.0,0.0,0.0,0.0,0.0,0.0,0.0,0.0,4.326,4.6779,5.0425,5.3232,5.5176,5.6781,5.6853,5.5249,5.3633,5.0924,0.0,0.0,0.0,0.0,0.0,0.0,0.0,0.0,0.0,0.0,0.0,0.0,0.0,0.0,0.0,0.0,0.0,0.0,0.0,0.0,0.0,0.0,0.0,0.0,0.0,0.0,0.0,0.0,0.0,0.0,0.0,0.0,0.0,0.0,0.0,0.0,0.0,0.0,0.0,0.0,0.0,0.0,4.7815,4.8839,0.0,0.0,0.0,4.9781,4.9781,0.0,0.0,0.0,0.0,0.0,0.0,0.0,0.0,0.0,0.0,0.0,0.0,0.0,0.0,0.0,0.0,0.0,0.0,0.0,0.0,0.0,0.0,0.0,0.0,0.0,0.0,0.0,0.0,0.0,0.0,0.0,0.0,0.0,0.0,0.0,0.0,0.0,0.0,0.0,0.0,0.0,0.0,0.0,0.0,0.0,0.0,0.0,0.0,0.0,0.0,0.0,0.0,0.0,0.0,0.0,0.0,0.0,4.7149,5.0764,5.3478,5.5268,5.6473,5.6546,5.5304,5.3551,0.0,0.0,0.0,0.0,0.0,0.0,0.0,0.0,0.0,0.0,0.0,0.0,0.0,0.0,0.0,0.0,0.0,0.0,0.0,0.0,0.0,0.0,0.0,0.0,0.0,0.0,0.0,3.1832,0.0,0.0,0.0,0.0,0.0,0.0,0.0,0.0,0.0,0.0,0.0,0.0,0.0,0.0,4.771,4.9443,5.0929,5.1981,0.0,0.0,5.1888,5.1888,5.0667,4.9363,0.0,0.0,0.0,0.0,0.0,0.0,0.0,0.0,0.0,0.0,0.0,0.0,0.0,0.0,0.0,0.0,0.0,0.0,0.0,0.0,0.0,0.0,0.0,0.0,0.0,0.0,0.0,0.0,0.0,0.0,0.0,0.0,0.0,0.0,0.0,0.0,0.0,0.0,0.0,0.0,0.0,0.0,0.0,0.0,0.0,0.0,0.0,0.0,0.0,0.0,0.0,0.0,0.0,0.0,0.0,4.813,5.0745,5.3214,5.5453,5.5673,5.5673,5.5526,5.3287,5.0458,0.0,0.0,0.0,0.0,0.0,0.0,0.0,0.0,0.0,0.0,0.0,0.0,0.0,0.0,0.0,0.0,0.0,0.0,0.0,0.0,0.0,0.0,0.0,0.0,0.0,0.0,0.0,0.0,0.0,0.0,0.0,0.0,0.0,0.0,0.0,0.0,0.0,0.0,0.0,0.0,0.0,4.8338,5.1228,5.2304,5.3552,0.0,0.0,5.3827,5.3811,5.2532,5.0999,4.9445,0.0,0.0,0.0,0.0,0.0,0.0,0.0,0.0,0.0,0.0,0.0,0.0,0.0,0.0,0.0,0.0,0.0,0.0,0.0,0.0,0.0,0.0,0.0,0.0,0.0,0.0,0.0,0.0,0.0,0.0,0.0,0.0,0.0,0.0,0.0,0.0,0.0,0.0,0.0,0.0,0.0,0.0,0.0,0.0,0.0,0.0,0.0,0.0,0.0,0.0,0.0,0.0,0.0,4.5085,4.826,5.0729,5.2941,5.4766,5.5365,5.5365,5.4887,5.3015,5.0682,0.0,0.0,0.0,0.0,0.0,0.0,0.0,0.0,0.0,0.0,0.0,0.0,0.0,0.0,0.0,0.0,0.0,0.0,0.0,0.0,0.0,0.0,0.0,0.0,0.0,0.0,0.0,0.0,3.5248,3.59,3.6311,0.0,0.0,0.0,0.0,0.0,0.0,0.0,0.0,0.0,0.0,5.0408,5.2816,5.3889,0.0,0.0,5.5791,5.5244,5.4748,5.3826,5.2427,5.045,4.8875,0.0,0.0,0.0,0.0,0.0,0.0,0.0,0.0,0.0,0.0,0.0,0.0,0.0,0.0,0.0,0.0,0.0,0.0,0.0,0.0,0.0,0.0,0.0,0.0,0.0,0.0,0.0,0.0,0.0,0.0,0.0,0.0,0.0,0.0,0.0,0.0,0.0,0.0,0.0,0.0,0.0,0.0,0.0,0.0,0.0,0.0,0.0,0.0,0.0,0.0,0.0,0.0,4.5333,4.826,5.0508,5.2538,5.4363,5.4693,5.473,5.4363,5.2601,5.0692,0.0,0.0,0.0,0.0,0.0,0.0,0.0,0.0,0.0,0.0,0.0,0.0,0.0,0.0,0.0,0.0,0.0,0.0,0.0,0.0,0.0,0.0,0.0,0.0,0.0,0.0,0.0,0.0,3.659,3.7117,3.7633,0.0,0.0,0.0,0.0,0.0,0.0,0.0,0.0,0.0,0.0,5.1798,5.4125,5.5251,5.6126,5.6952,5.6918,5.6524,5.5736,5.4794,5.351,5.1663,0.0,0.0,0.0,0.0,0.0,0.0,0.0,0.0,0.0,0.0,0.0,0.0,0.0,0.0,0.0,0.0,0.0,0.0,0.0,0.0,0.0,0.0,0.0,0.0,0.0,0.0,0.0,0.0,0.0,0.0,4.1012,0.0,0.0,0.0,0.0,0.0,0.0,0.0,0.0,0.0,0.0,0.0,0.0,0.0,0.0,0.0,0.0,0.0,0.0,0.0,0.0,0.0,0.0,4.5874,4.826,5.0031,5.1966,5.4289,5.3654,5.3654,5.4289,5.2087,5.0435,4.9537,0.0,0.0,0.0,0.0,0.0,0.0,0.0,0.0,0.0,0.0,0.0,0.0,0.0,0.0,0.0,0.0,0.0,0.0,0.0,0.0,0.0,0.0,0.0,0.0,0.0,0.0,3.8387,3.8525,3.8525,0.0,0.0,0.0,0.0,0.0,0.0,0.0,0.0,0.0,0.0,4.9671,5.2203,5.5152,5.6271,5.7271,5.8668,5.8306,5.7616,5.6858,5.5497,5.414,0.0,0.0,0.0,0.0,0.0,0.0,0.0,0.0,0.0,0.0,0.0,0.0,0.0,0.0,0.0,0.0,0.0,0.0,0.0,0.0,0.0,0.0,0.0,0.0,0.0,0.0,0.0,4.2651,4.2643,0.0,0.0,0.0,0.0,0.0,0.0,0.0,0.0,0.0,0.0,0.0,4.8352,4.8362,0.0,0.0,0.0,0.0,0.0,0.0,0.0,0.0,0.0,0.0,0.0,0.0,4.6131,4.9003,5.0205,5.1709,5.3508,5.3324,5.3324,5.3581,5.2307,5.0435,4.8012,0.0,0.0,0.0,0.0,0.0,0.0,0.0,0.0,0.0,0.0,0.0,0.0,0.0,0.0,0.0,0.0,0.0,0.0,0.0,0.0,0.0,0.0,0.0,0.0,0.0,3.833,0.0,0.0,0.0,0.0,0.0,0.0,0.0,0.0,0.0,0.0,0.0,4.7686,4.9686,5.1927,5.4115,5.6115,5.7047,5.7909,0.0,0.0,0.0,0.0,0.0,0.0,0.0,0.0,0.0,0.0,0.0,0.0,0.0,0.0,5.1582,4.9582,4.9031,4.8872,4.8872,0.0,0.0,0.0,0.0,0.0,0.0,0.0,0.0,0.0,0.0,0.0,0.0,0.0,0.0,4.6108,0.0,4.572,0.0,0.0,0.0,0.0,0.0,0.0,0.0,0.0,5.0054,5.0989,5.1289,5.1253,5.1253,0.0,5.0141,4.8086,0.0,0.0,0.0,0.0,0.0,0.0,0.0,0.0,4.7131,4.9444,5.0665,5.2013,5.3508,5.3324,5.3324,5.3581,5.2564,5.0582,4.7636,4.5993,4.4415,0.0,0.0,0.0,0.0,0.0,0.0,0.0,0.0,0.0,0.0,0.0,0.0,0.0,0.0,0.0,0.0,0.0,0.0,0.0,0.0,0.0,0.0,0.0,3.9986,0.0,0.0,0.0,0.0,0.0,0.0,0.0,0.0,0.0,4.619,4.7548,4.9341,5.1617,5.341,5.515,5.6943,0.0,0.0,0.0,0.0,0.0,0.0,0.0,5.6771,5.5478,5.4908,5.4598,5.4598,5.4977,5.5288,5.5322,0.0,0.0,5.2046,5.1548,5.1548,5.1563,5.1563,5.1582,5.1548,5.1563,5.1686,0.0,0.0,0.0,0.0,0.0,0.0,0.0,0.0,5.0414,5.0362,0.0,4.9401,0.0,0.0,0.0,0.0,0.0,4.8393,0.0,0.0,5.2655,5.3818,5.4494,5.4483,5.452,5.441,5.2905,5.1693,5.0729,4.7682,0.0,0.0,0.0,0.0,0.0,0.0,4.8746,4.9664,5.1206,5.2795,5.4363,5.3691,5.3654,5.4326,5.2868,5.0912,4.86,4.8306,4.6838,4.38,4.3543,0.0,0.0,0.0,0.0,0.0,0.0,0.0,0.0,0.0,0.0,0.0,0.0,0.0,0.0,0.0,0.0,0.0,0.0,0.0,0.0,4.1441,0.0,0.0,0.0,0.0,0.0,0.0,0.0,0.0,0.0,0.0,4.8031,4.9238,5.0942,5.3184,0.0,0.0,0.0,0.0,5.8168,5.8892,5.8995,5.8754,5.8047,5.7909,5.7633,5.6943,0.0,0.0,5.6805,5.684,5.6874,5.684,5.6874,5.6391,5.4927,5.4563,5.4478,5.4513,5.4478,5.4547,5.4563,5.441,5.4478,5.8605,0.0,0.0,0.0,0.0,5.3458,5.3959,5.3805,5.3814,5.3721,5.3562,5.2744,0.0,0.0,0.0,0.0,0.0,0.0,5.2717,5.3709,5.5296,5.6504,5.7261,5.7136,5.7103,5.7055,5.5937,5.473,5.3335,5.1867,4.9507,4.6489,0.0,0.0,0.0,0.0,4.9581,5.2003,5.2627,5.3628,5.5218,5.5034,5.473,5.4399,5.3408,5.226,5.0986,4.926,4.7902,4.6948,4.4754,0.0,0.0,0.0,0.0,0.0,0.0,0.0,0.0,0.0,0.0,0.0,0.0,0.0,0.0,0.0,0.0,0.0,0.0,0.0,4.2462,4.2949,4.3273,0.0,0.0,0.0,0.0,0.0,0.0,0.0,0.0,0.0,5.241,5.2444,5.303,0.0,0.0,5.7185,5.7805,5.834,5.8754,5.8961,5.8995,0.0,5.872,5.8237,5.784,5.7633,5.7598,5.7598,5.7598,5.8012,5.834,5.8357,5.8375,5.8202,5.7789,5.684,5.6219,5.615,5.615,5.615,5.615,5.615,5.6115,6.4284,5.9215,5.808,5.6964,5.6122,5.7106,5.7426,5.7237,5.7208,5.7131,5.6948,5.5783,5.4574,5.3311,5.2642,0.0,0.0,0.0,5.5269,5.625,5.7592,5.8632,5.9316,5.9249,5.9215,5.9167,5.7938,5.6853,5.5897,5.4715,5.2747,5.0021,0.0,0.0,4.9287,4.9911,5.1196,5.3141,5.3838,5.4766,5.6025,5.6088,5.5537,5.4436,5.3922,5.3151,5.2024,5.0592,4.9334,4.8333,4.6471,4.4828,0.0,0.0,0.0,0.0,0.0,0.0,0.0,0.0,0.0,0.0,0.0,3.9632,4.0281,0.0,0.0,0.0,4.2296,4.3349,4.4525,4.486,0.0,0.0,0.0,0.0,0.0,0.0,0.0,5.0735,5.2203,5.3685,5.5168,5.5288,5.5513,5.6375,5.7322,5.8012,5.8323,0.0,5.8995,5.8995,5.8995,5.8995,5.8995,5.8633,5.8323,5.8323,5.8357,5.8357,5.8357,5.8737,5.8995,5.8995,5.8995,5.8995,5.8995,5.8271,5.7667,5.7667,5.7667,5.7667,5.7667,5.7667,5.7667,6.9353,6.6848,6.3008,6.1205,6.0905,6.097,6.0913,6.0778,6.0641,6.054,6.024,5.8564,5.7323,5.6496,5.4899,0.0,5.5419,5.6246,5.7373,5.8751,5.9577,6.0337,6.0902,6.0976,6.0964,6.0853,5.9289,5.8422,5.819,5.6629,5.5423,5.4579,5.2338,5.1153,5.1169,5.2564,5.3361,5.3508,5.495,5.6099,5.6847,5.6884,5.6124,5.4546,5.4509,5.3739,5.2171,5.2024,5.0912,4.8663,4.837,4.6948,4.402,0.0,0.0,0.0,0.0,0.0,0.0,0.0,0.0,0.0,0.0,0.0,0.0,0.0,0.0,0.0,4.4484,0.0,4.6344,4.7016,0.0,0.0,0.0,4.9493,4.9424,5.0685,5.181,5.2421,0.0,0.0,5.6702,5.7529,5.8012,5.8012,5.7978,5.8219,5.8892,5.8995,5.8995,5.8995,5.8995,5.8995,5.8995,5.8961,5.8926,5.8926,5.8995,5.8961,5.8961,5.8961,5.8995,5.8995,5.8995,5.8995,5.8995,5.8926,5.8995,5.8926,5.8926,5.8961,5.8892,5.8857,5.8857,7.2233,7.0405,6.8828,6.6312,6.3496,6.4059,6.4299,6.4169,6.3418,6.3041,6.2811,6.1092,5.9839,5.8985,5.7982,5.7982,5.8762,5.8947,5.9605,6.0587,6.1403,6.1875,6.2064,6.253,6.2459,6.1855,6.1334,6.0464,5.9283,5.8253,5.732,5.6508,5.5302,5.4323,5.3592,5.3922,5.4719,5.593,5.6297,5.6932,5.7666,5.7703,5.6932,5.5365,5.5328,5.4546,5.2994,5.2307,5.1426,5.0241,4.9003,4.7672,4.6315,4.5663,0.0,0.0,0.0,0.0,0.0,0.0,0.0,0.0,0.0,4.2675,4.3816,0.0,4.4352,0.0,4.6307,4.7436,4.8149,4.8838,0.0,0.0,5.0465,5.1403,5.1953,5.3162,5.426,5.4925,5.6231,5.7253,5.7598,5.8288,5.872,5.8754,5.8737,5.8788,5.8995,5.8995,5.8995,5.8995,5.8995,5.8995,5.8995,5.8995,5.8995,5.8995,5.8995,5.8995,5.8995,5.8995,5.8995,5.8995,5.8995,5.8995,5.8995,5.8995,5.8995,5.8995,5.8995,5.8995,5.8995,5.8995,5.8995,7.3747,7.2196,7.1757,7.0029,6.7551,6.6913,6.6393,6.5966,6.5347,6.5041,6.4863,6.3085,6.1808,6.0953,6.0173,6.0062,6.047,6.0842,6.1288,6.1781,6.2562,6.2922,6.2959,6.33,6.324,6.2795,6.2311,6.1624,6.0774,5.9904,5.9254,5.8799,5.833,5.7784,5.7221,5.6179,5.6095,5.6978,5.7309,5.7692,5.8088,5.8088,5.7466,5.6209,5.5805,5.5023,5.3775,5.2968,5.216,5.1353,5.0435,4.9214,4.7709,4.7195,4.6434,0.0,0.0,0.0,0.0,0.0,0.0,0.0,0.0,0.0,0.0,0.0,4.6746,4.7654,4.8742,4.967,5.0371,5.1123,5.1621,5.1888,5.2846,5.3785,5.441,5.5397,5.6271,5.684,5.7574,5.8131,5.8357,5.872,5.8995,5.8995,5.8995,5.8995,5.8995,5.8995,5.8995,5.8995,5.8995,5.8995,5.8995,5.8995,5.8995,5.8995,5.8995,5.8995,5.8995,5.8995,5.8995,5.8995,5.8995,5.8995,5.8995,5.8995,5.8995,5.8995,5.8995,5.8995,5.8995,5.8995,5.8995,7.4648,7.3221,7.3108,7.262,7.167,6.9541,6.8114,6.723,6.6742,6.6471,6.6251,6.4621,6.3516,6.2822,6.203,6.167,6.1707,6.2264,6.255,6.2588,6.3293,6.359,6.359,6.359,6.359,6.3553,6.2746,6.233,6.2219,6.1377,6.0962,6.0851,6.0851,6.0851,6.0777,5.878,5.765,5.7507,5.8219,5.8423,5.8249,5.8238,5.7777,5.6844,5.6037,5.5229,5.4436,5.3618,5.2821,5.206,5.1987,5.0949,4.8773,4.8636,4.7976,0.0,4.6507,0.0,0.0,0.0,0.0,0.0,0.0,0.0,0.0,4.8207,4.9484,5.0562,5.1276,5.2015,5.2732,5.3499,5.4209,5.4847,5.558,5.6188,5.6705,5.7363,5.7904,5.8345,5.8365,5.8524,5.8926,5.8995,5.8995,5.8995,5.8995,5.8995,5.8995,5.8995,5.8995,5.8995,5.8995,5.8995,5.8995,5.8995,5.8995,5.8995,5.8995,5.8995,5.8995,5.8995,5.8995,5.8995,5.8995,5.8995,5.8995,5.8995,5.8995,5.8995,5.8995,5.8995,5.8995,5.8995,5.8995,7.5812,7.4873,7.4235,7.3446,7.262,7.217,7.11,6.9548,6.8006,6.6903,6.6161,6.578,6.5534,6.5336,6.4482,6.411,6.4073,6.359,6.3368,6.3368,6.3516,6.359,6.359,6.359,6.359,6.359,6.3419,6.3,6.2369,6.2172,6.179,6.1122,6.1122,6.1122,6.1122,0.0,0.0,0.0,5.9291,5.9047,5.8397,5.836,5.7936,5.7004,5.6168,0.0,5.4447,5.3618,5.2858,5.206,5.1987,0.0,0.0,0.0,0.0,0.0,0.0,0.0,0.0,0.0,0.0,0.0,5.2232,5.2069,5.056,5.1585,5.2436,5.2598,5.3287,5.3969,5.4504,5.5245,5.5957,5.6559,5.7191,5.7862,5.8576,5.8554,5.8704,5.9274,5.9195,5.9078,5.9012,5.8995,5.8995,5.8995,5.8995,5.8995,5.8995,5.8995,5.8995,5.8995,5.8995,5.8995,5.8995,5.8995,5.8995,5.8995,5.8995,5.8995,5.8995,5.8995,5.8995,5.8995,5.8995,5.8995,5.8995,5.8995,5.8995,5.8995,5.8995,5.8995,5.8995,5.8995,5.8995,7.6751,0.0,7.5136,7.4535,0.0,7.3189,7.2272,7.1331,6.9591,6.8248,6.728,6.6859,6.6673,6.6636,6.5819,6.5448,6.5411,6.4593,6.4185,6.4185,6.3776,6.359,6.359,6.359,6.359,6.359,6.359,6.3368,6.2996,6.2996,6.2773,6.2402,6.2376,6.2365,6.2365,6.2402,6.1715,6.0381,6.0381,6.0163,5.9675,5.9294,5.8832,5.8279,5.7135,0.0,0.0,0.0,0.0,0.0,0.0,0.0,0.0,5.2601,0.0,5.204,5.1966,5.215,5.2564,5.2968,5.3497,5.425,5.5722,5.5746,5.3783,5.4267,5.4901,5.5502,5.5894,5.634,5.6937,5.736,5.7797,5.8328,5.8636,5.9097,5.9651,5.964,5.9574,5.963,5.9553,5.9369,5.9166,5.9047,5.8995,5.8995,5.8995,5.8995,5.8995,5.8995,5.8995,5.8995,5.8995,5.8995,5.8995,5.8995,5.8995,5.8995,5.8995,5.8995,5.8995,5.8995,5.8995,5.8995,5.8995,5.8995,5.8995,5.8995,5.8995,5.8995,5.8995,5.8995,5.8995,5.8995,5.8995,7.7464,7.6751,7.5924,7.5612,7.5426,7.3958,7.3127,7.2657,0.0,0.0,0.0,6.8011,6.7639,6.7453,6.6673,6.6314,6.6228,6.5411,6.5039,6.5002,6.4333,6.3962,6.3813,6.3813,6.3739,6.359,6.359,6.359,6.359,6.359,6.359,6.359,6.359,6.359,6.359,6.359,6.2922,6.1696,6.1473,6.1292,6.1044,6.0377,5.9989,5.9841,5.8278,5.7374,5.7217,5.6344,5.5774,5.5629,5.5618,5.535,5.4656,5.462,5.4399,5.3875,5.3838,5.4168,5.4987,5.517,5.5868,5.7324,5.8552,5.8458,5.6648,5.6623,5.7163,5.8178,5.8259,5.8529,5.9177,5.9207,5.9416,5.9891,5.9938,6.0022,6.0384,6.0411,6.0183,5.9879,5.9683,5.9536,5.9336,5.9183,5.903,5.9012,5.8995,5.8995,5.8995,5.8995,5.8995,5.8995,5.8995,5.8995,5.8995,5.8995,5.8995,5.8995,5.8995,5.8995,5.8995,5.8995,5.8995,5.8995,5.8995,5.8995,5.8995,5.8995,5.8995,5.8995,5.8995,5.8995,5.8995,5.8995,5.8995,7.7814,7.7626,7.6788,7.6378,7.6231,7.5981,7.4948,7.3342,7.1578,7.0338,6.9534,6.9422,6.8976,6.8308,6.7491,6.7119,6.7082,6.6265,6.5931,6.5893,6.5819,6.5336,6.4631,6.4631,6.4259,6.3628,6.359,6.359,6.359,6.3628,6.359,6.3628,6.359,6.3628,6.359,6.359,6.3479,6.3256,6.2588,6.1882,6.1191,6.1054,6.0962,6.0741,5.927,5.8365,5.8197,5.6757,5.5855,5.5785,5.5774,5.5657,5.5449,5.5475,5.5684,5.6223,5.6297,5.6664,5.7409,5.8132,5.8939,5.9783,6.0065,5.9688,5.8555,5.9041,5.9401,5.9398,5.9394,5.9614,6.0112,6.0066,6.0254,6.0919,6.079,6.0636,6.0578,6.0489,6.025,5.9879,5.9762,5.965,5.9403,5.925,5.9166,5.9047,5.9012,5.8995,5.8995,5.8995,5.8995,5.8995,5.8995,5.8995,5.8995,5.8995,5.8995,5.8995,5.8995,5.8995,5.8995,5.8995,5.8995,5.8995,5.8995,5.8995,5.8995,5.8995,5.8995,5.8995,5.8995,5.8995,5.8995,5.8995,5.8995,7.8516,7.8341,7.7542,7.713,7.6954,7.6429,7.5654,7.4703,7.3473,7.1923,7.0425,7.0351,6.9905,6.9162,6.8791,6.8345,6.7899,6.7119,6.6748,6.6711,6.6302,6.5905,6.5522,6.5485,6.5299,6.4976,6.4965,6.4965,6.4965,6.4965,6.4965,6.4928,6.4965,6.4965,6.4928,6.4965,6.4928,6.4928,6.3702,6.2848,6.2513,6.2068,6.1823,6.173,6.0591,5.9943,5.9834,5.9083,5.8632,5.8522,5.8522,5.8419,5.8306,5.8295,5.8444,5.8731,5.8767,5.8902,5.9281,6.0052,6.086,6.1618,6.2144,6.2425,6.2361,6.1346,6.0854,6.1098,6.1055,6.1068,6.1262,6.111,6.1085,6.1257,6.1146,6.0968,6.0742,6.0594,6.0392,6.0155,5.9927,5.9765,5.9584,5.9401,5.9285,5.9149,5.9081,5.8995,5.8995,5.8995,5.8995,5.8995,5.8995,5.8995,5.8995,5.8995,5.8995,5.8995,5.8995,5.8995,5.8995,5.8995,5.8995,5.8995,5.8995,5.8995,5.8995,5.8995,5.8995,5.8995,5.8995,5.8995,5.8995,5.8995,5.8995,7.9566,7.9389,7.854,7.8039,7.7648,7.6683,7.6191,7.6024,7.5206,7.3781,7.2096,7.1465,7.0722,7.0016,6.9979,6.9534,6.8753,6.8122,6.7751,6.7528,6.6933,6.6562,6.6376,6.6376,6.6265,6.6128,6.6091,6.6091,6.6091,6.6091,6.6091,6.6091,6.6091,6.6091,6.6091,6.6091,6.6091,6.6017,6.4816,6.4185,6.4148,6.3368,6.2922,6.2885,6.1956,6.144,6.1326,6.113,6.0963,6.0851,6.0839,6.0794,6.0679,6.0607,6.0647,6.0687,6.0688,6.086,6.1263,6.1998,6.2695,6.3306,6.398,6.464,6.5031,6.3474,6.2468,6.2923,6.2851,6.2717,6.2617,6.2474,6.2212,6.1917,6.1866,6.1789,6.1397,6.1198,6.1062,6.0889,6.0582,6.0387,6.0305,6.0091,5.9838,5.958,5.9219,5.9012,5.8995,5.8995,5.8995,5.8995,5.8995,5.8995,5.8995,5.8995,5.8995,5.8995,5.8995,5.8995,5.8995,5.8995,5.8995,5.8995,5.8995,5.8995,5.8995,5.8995,5.8995,5.8995,5.8995,5.8995,5.8995,5.8995,5.8995,8.1138,8.1024,8.0069,7.9202,7.8373,7.7406,7.704,7.6878,7.6061,7.5615,7.5044,7.3051,7.1626,7.0871,7.0796,7.0338,6.9608,6.9496,6.9051,6.8419,6.8345,6.7899,6.7231,6.7193,6.6785,6.6239,6.6191,6.6228,6.6239,6.6202,6.6128,6.6091,6.6091,6.6165,6.6128,6.6165,6.6128,6.6116,6.5979,6.5856,6.5819,6.5039,6.4593,6.4556,6.3108,6.229,6.2343,6.1574,6.1148,6.0974,6.1074,6.0992,6.0868,6.0727,6.094,6.1653,6.1593,6.2108,6.3576,6.4494,6.4884,6.5068,6.5105,6.5264,6.5362,6.5092,6.4893,6.4835,6.4652,6.4357,6.4366,6.4063,6.3747,6.345,6.3388,6.3341,6.2942,6.2809,6.2634,6.2508,6.2101,6.2112,6.1805,6.1602,6.1155,6.0272,5.9668,5.9271,5.9237,5.9237,5.9237,5.9133,5.903,5.903,5.903,5.8995,5.8995,5.8995,5.8995,5.8995,5.8995,5.8995,5.8995,5.8995,5.8995,5.8995,5.8995,5.8995,5.8995,5.8995,5.8995,5.8995,5.8995,5.8995,5.8995,8.1201,8.1096,8.0654,8.0209,7.9712,7.8861,7.8513,7.8402,7.7138,7.6581,7.6395,7.4983,7.3608,7.2369,7.1886,7.1218,7.0388,6.9942,6.9534,6.9162,6.8753,6.8345,6.8048,6.8011,6.7825,6.7528,6.7528,6.7528,6.7528,6.7528,6.7528,6.7528,6.7528,6.7528,6.7491,6.7528,6.7528,6.7528,6.7528,6.7491,6.7379,6.6228,6.5559,6.5522,6.4939,6.4593,6.4556,6.4259,6.4051,6.4016,6.4016,6.3959,6.3854,6.3758,6.381,6.3972,6.3872,6.409,6.4751,6.5105,6.5508,6.5962,6.5999,6.6182,6.6696,6.6696,6.6719,6.653,6.5523,6.4776,6.4731,6.448,6.421,6.3955,6.3837,6.3708,6.3351,6.3085,6.2878,6.2798,6.257,6.2424,6.2307,6.2071,6.1675,6.1103,6.0583,6.0289,6.0358,6.0358,6.0358,6.0358,6.0358,5.9926,5.9271,5.8995,5.8995,5.8995,5.8995,5.8995,5.8995,5.8995,5.8995,5.8995,5.8995,5.8995,5.8995,5.8995,5.8995,5.8995,5.8995,5.8995,5.8995,5.8995,5.8995,8.1671,8.155,8.1322,8.1028,8.0668,8.0059,7.9702,7.9391,7.8253,7.7621,7.7324,7.6544,7.554,7.4351,7.3348,7.2258,7.1292,7.066,7.0239,7.0016,6.941,6.9162,6.9162,6.9162,6.9162,6.9162,6.9162,6.9162,6.9162,6.9162,6.9162,6.9162,6.9162,6.9162,6.9162,6.9162,6.9162,6.9162,6.9162,6.9162,6.9013,6.8011,6.7119,6.6488,6.6228,6.6091,6.6091,6.6091,6.6091,6.6091,6.6091,6.6081,6.5973,6.59,6.5792,6.5581,6.5625,6.5671,6.5632,6.5839,6.6219,6.6733,6.6856,6.7076,6.7554,6.77,6.77,6.7527,6.6331,6.5496,6.5432,6.5196,6.4932,6.4603,6.4558,6.4423,6.4122,6.3772,6.3599,6.3531,6.3378,6.3004,6.2885,6.2577,6.2162,6.1918,6.1516,6.1323,6.1323,6.1254,6.1254,6.1323,6.1289,6.0737,5.9633,5.9392,5.9288,5.8995,5.8995,5.8995,5.8995,5.8995,5.8995,5.8995,5.8995,5.8995,5.8995,5.8995,5.8995,5.8995,5.8995,5.8995,5.8995,5.8995,5.8995,8.3301,8.3123,8.2338,8.1537,8.0728,8.0668,8.0222,7.9665,7.9368,7.8922,7.8179,7.7398,7.699,7.6692,7.5169,7.3645,7.2308,7.2048,7.1552,7.0908,7.0722,7.0759,7.0821,7.0784,7.0747,7.0561,7.0574,7.0648,7.0685,7.071,7.0796,7.0747,7.0635,7.0722,7.0672,7.0598,7.0747,7.0611,7.0635,7.071,7.071,7.0598,6.9422,6.7565,6.6574,6.6351,6.6277,6.6165,6.6165,6.6165,6.6239,6.6153,6.6142,6.6047,6.5903,6.5691,6.6243,6.6583,6.6576,6.7076,6.7554,6.7627,6.7664,6.77,6.7884,6.7958,6.7907,6.776,6.7414,6.7101,6.6935,6.6569,6.6327,6.6042,6.6105,6.5899,6.5637,6.5174,6.519,6.5037,6.4611,6.4286,6.4218,6.352,6.2962,6.2594,6.1914,6.1479,6.1565,6.1461,6.1496,6.1496,6.1427,6.1047,6.0323,5.9944,5.9668,5.9392,5.9168,5.8995,5.8995,5.8995,5.8995,5.8995,5.8995,5.8995,5.8995,5.8995,5.8995,5.8995,5.8995,5.8995,5.8995,5.8995,5.8995,8.3268,8.3268,8.2912,8.2563,8.2266,8.1746,8.1374,8.1003,7.9962,7.9368,7.8959,7.8216,7.7584,7.7064,7.6469,7.5318,7.372,7.2679,7.2011,7.1663,7.1168,7.0895,7.0895,7.0895,7.0895,7.0895,7.0895,7.0895,7.0895,7.0895,7.0895,7.0895,7.0895,7.0895,7.0895,7.0895,7.0895,7.0895,7.0895,7.0895,7.0945,7.0895,7.0412,6.9682,6.9311,6.9162,6.9162,6.8679,6.8382,6.8419,6.7936,6.7639,6.7627,6.7518,6.7383,6.7219,6.7338,6.7405,6.7323,6.7517,6.7958,6.8421,6.8458,6.8678,6.9096,6.9229,6.9201,6.9054,6.8885,6.8531,6.7789,6.7105,6.6548,6.6315,6.6177,6.6037,6.5836,6.5594,6.5415,6.5282,6.4928,6.4672,6.4567,6.4166,6.3851,6.3657,6.3252,6.2917,6.2774,6.2737,6.2668,6.2737,6.2737,6.2496,6.1772,6.0703,6.0047,5.9737,5.9495,5.9133,5.8995,5.8995,5.8995,5.8995,5.8995,5.8995,5.8995,5.8995,5.8995,5.8995,5.8995,5.8995,5.8995,5.8995,5.8995,8.318,8.318,8.318,8.318,8.3158,8.2637,8.2229,8.1894,8.078,8.0036,7.9479,7.8922,7.8253,7.751,7.7213,7.6544,7.5355,7.4017,7.3348,7.3311,7.2778,7.2468,7.2468,7.2468,7.2468,7.2505,7.2481,7.2468,7.2468,7.2468,7.2468,7.2505,7.2468,7.2468,7.2431,7.2245,7.2096,7.2059,7.1836,7.1738,7.1688,7.1701,7.1688,7.1688,7.1725,7.1428,7.0945,7.0351,7.0091,7.0016,6.9571,6.9274,6.9261,6.9187,6.9061,6.8908,6.8804,6.8673,6.8499,6.8471,6.8715,6.9229,6.9302,6.9559,7.0036,7.011,7.004,6.9899,6.9719,6.9267,6.8625,6.7767,6.6967,6.6464,6.613,6.5958,6.582,6.5607,6.548,6.5299,6.5031,6.4809,6.4758,6.4568,6.4358,6.4252,6.4055,6.382,6.3728,6.3637,6.36,6.36,6.3496,6.3255,6.2737,6.1841,6.0668,6.022,5.953,5.9202,5.8995,5.8995,5.8995,5.8995,5.8995,5.8995,5.8995,5.8995,5.8995,5.903,5.8995,5.8995,5.8995,5.8995,5.9099,8.318,8.318,8.318,8.318,8.3195,8.3121,8.2712,8.2117,8.1931,8.1003,7.9888,7.9516,7.8996,7.829,7.7584,7.7101,7.6841,7.6061,7.5578,7.5429,7.5429,7.5429,7.5378,7.528,7.5267,7.5304,7.5615,7.5615,7.5378,7.5304,7.5341,7.5564,7.5341,7.5156,7.5652,7.4686,7.4463,7.4277,7.372,7.3423,7.3423,7.3385,7.3423,7.3423,7.3423,7.2741,7.1242,7.1019,7.0908,7.0908,7.0796,7.0858,7.071,7.066,7.0707,7.0338,7.0383,7.0287,7.0041,6.9926,6.9853,7.011,7.011,7.0183,7.0367,7.0367,7.0297,7.0177,6.996,6.9653,6.9431,6.892,6.8062,6.6665,6.6402,6.6213,6.5927,6.5643,6.5445,6.5332,6.5132,6.4996,6.4911,6.4706,6.4463,6.4323,6.4128,6.3947,6.3909,6.3765,6.3637,6.3618,6.3618,6.3496,6.3255,6.2875,6.1703,6.0634,5.9806,5.9202,5.903,5.8995,5.8995,5.8995,5.8995,5.8995,5.9064,5.9099,5.9271,5.9271,5.9168,5.934,5.9547,5.965,5.9478,8.318,8.318,8.318,8.318,8.318,8.318,8.3046,8.2749,8.2266,8.1709,8.1077,7.9999,7.9368,7.8996,7.829,7.7919,7.7919,7.7584,7.6915,7.6024,7.5838,7.5875,7.5875,7.5838,7.5801,7.5801,7.5801,7.5838,7.5912,7.5875,7.5801,7.5801,7.5875,7.5801,7.5875,7.554,7.5429,7.5392,7.5169,7.5057,7.5057,7.5057,7.502,7.5057,7.5057,7.4747,7.4227,7.2704,7.1849,7.1812,7.1205,7.0895,7.0895,7.0895,7.0781,7.0547,7.0507,7.0374,7.0165,7.0146,7.0403,7.0756,7.0917,7.1211,7.1651,7.1688,7.1574,7.137,7.1252,7.0986,7.021,6.9724,6.8998,6.8083,6.7649,6.7134,6.6569,6.5963,6.5565,6.5428,6.528,6.5182,6.5048,6.4826,6.4706,6.4463,6.4323,6.4199,6.4091,6.3929,6.3801,6.3801,6.371,6.3637,6.3482,6.3153,6.2342,6.1358,6.0496,5.9771,5.9478,5.9168,5.9133,5.9168,5.9133,5.9202,5.9271,5.9426,5.9702,5.9978,6.0185,6.0358,6.053,6.0427,6.022,8.318,8.318,8.318,8.318,8.318,8.318,8.318,8.3121,8.2675,8.2266,8.1783,8.0928,8.0074,7.9516,7.8959,7.8587,7.8327,7.829,7.7733,7.6841,7.6729,7.6729,7.6804,7.7064,7.7175,7.7236,7.751,7.7621,7.7621,7.7621,7.751,7.725,7.7175,7.7027,7.6729,7.6432,7.6284,7.6246,7.5949,7.5801,7.5801,7.5801,7.5801,7.5801,7.5801,7.5801,7.5689,7.4277,7.3534,7.346,7.3001,7.2616,7.2319,7.2319,7.2017,7.1535,7.1417,7.1346,7.1047,7.1064,7.1174,7.1637,7.1747,7.1931,7.2386,7.2496,7.2351,7.2063,7.1951,7.1684,7.091,7.047,7.0041,6.9629,6.8603,6.7835,6.7072,6.6456,6.5928,6.5701,6.5445,6.5332,6.5214,6.5132,6.4979,6.4706,6.4568,6.4428,6.427,6.4127,6.4037,6.3981,6.3872,6.3765,6.3694,6.3328,6.2859,6.2117,6.1323,6.0737,6.0289,5.984,5.9633,5.9806,5.984,6.0202,6.0323,6.0392,6.0634,6.0875,6.1047,6.0978,6.0978,6.1047,6.0909,8.318,8.318,8.318,8.318,8.318,8.318,8.318,8.318,8.3143,8.2749,8.2192,8.1857,8.1077,7.9925,7.9553,7.9033,7.8476,7.829,7.8364,7.8253,7.8253,7.829,7.8476,7.8996,7.9242,7.9428,8.0036,8.0408,8.0111,8.0148,8.032,7.9391,7.9293,7.9182,7.8439,7.7658,7.7435,7.725,7.6581,7.6246,7.6135,7.6061,7.6061,7.6098,7.6135,7.6172,7.6135,7.5949,7.5801,7.5763,7.5429,7.5007,7.4723,7.4649,7.4033,7.3208,7.3144,7.2941,7.2714,7.2642,7.2679,7.2738,7.2789,7.2642,7.2863,7.2958,7.279,7.2456,7.2352,7.2121,7.1671,7.1296,7.1045,7.075,6.9303,6.8068,6.7302,6.7124,6.677,6.6184,6.5785,6.56,6.5639,6.5488,6.5232,6.5013,6.4843,6.4706,6.4515,6.4358,6.4251,6.4127,6.4019,6.3947,6.391,6.3696,6.3279,6.2966,6.2205,6.1634,6.1013,6.053,6.0254,6.0427,6.0668,6.1047,6.1254,6.122,6.1323,6.1496,6.1496,6.1392,6.1565,6.1806,6.1875,8.318,8.318,8.318,8.318,8.318,8.318,8.318,8.318,8.318,8.3069,8.2786,8.2229,8.1783,8.1226,8.0036,7.9368,7.9108,7.8625,7.8699,7.9145,7.9182,7.9539,7.9999,8.0259,8.0394,8.0445,8.0705,8.0705,8.0705,8.0817,8.0617,8.0394,8.0394,8.0282,8.0022,7.9739,7.9428,7.8959,7.8662,7.8179,7.7696,7.7658,7.7621,7.7658,7.7658,7.7658,7.7658,7.7658,7.699,7.5875,7.5801,7.5726,7.554,7.549,7.522,7.4774,7.4667,7.4577,7.4294,7.4169,7.4206,7.428,7.4096,7.428,7.428,7.4243,7.4094,7.3836,7.3759,7.3343,7.2593,7.2207,7.1778,7.0886,6.9862,6.8961,6.8587,6.8159,6.7695,6.7481,6.6932,6.6601,6.6325,6.5904,6.5469,6.532,6.5149,6.5065,6.4826,6.4672,6.4585,6.434,6.4217,6.4162,6.4055,6.3945,6.375,6.3663,6.3106,6.2496,6.1806,6.1151,6.1047,6.1082,6.1323,6.1703,6.1703,6.1703,6.1875,6.2151,6.2427,6.2565,6.2841,6.3082,6.2979,8.318,8.318,8.318,8.318,8.318,8.318,8.318,8.318,8.318,8.318,8.3083,8.2749,8.2303,8.1894,8.1003,8.0334,7.9948,7.9516,7.9628,7.9962,8.0394,8.0631,8.0817,8.0988,8.1248,8.13,8.1597,8.1746,8.1783,8.1746,8.1597,8.13,8.1263,8.1063,8.0631,8.0668,8.052,8.0074,7.9999,7.9739,7.933,7.9293,7.9293,7.9293,7.9293,7.933,7.9293,7.933,7.855,7.725,7.6878,7.6729,7.6395,7.6321,7.606,7.5508,7.5406,7.524,7.4978,7.4903,7.4903,7.4903,7.4903,7.4903,7.4867,7.4903,7.4784,7.4513,7.4478,7.4035,7.3486,7.3136,7.2692,7.2046,7.1053,7.0184,6.946,6.8873,6.8444,6.8123,6.7731,6.7429,6.7278,6.6585,6.6166,6.589,6.5559,6.5353,6.5149,6.5031,6.4878,6.4637,6.4481,6.441,6.4234,6.4055,6.3927,6.3821,6.359,6.3032,6.2565,6.1875,6.1944,6.1979,6.2151,6.2255,6.2324,6.2461,6.2737,6.3082,6.3462,6.3531,6.3565,6.36,6.36,8.318,8.318,8.318,8.318,8.318,8.318,8.318,8.318,8.318,8.318,8.3195,8.318,8.2786,8.2154,8.1857,8.1523,8.0802,8.0557,8.0705,8.104,8.1523,8.1768,8.1337,8.1857,8.2117,8.2192,8.2898,8.2994,8.2898,8.3046,8.2749,8.2266,8.2117,8.1746,8.1374,8.1114,8.0928,8.0877,8.0854,8.0705,8.0445,8.0408,8.0371,8.0371,8.0408,8.0445,8.0482,8.0482,7.9925,7.8625,7.855,7.8179,7.7547,7.7361,7.6825,7.6053,7.588,7.5676,7.5293,7.538,7.527,7.5344,7.5307,7.516,7.5344,7.5417,7.5342,7.5211,7.4795,7.4712,7.4272,7.3961,7.3549,7.3113,7.2578,7.1477,7.0202,6.9584,6.9175,6.848,6.8337,6.823,6.8016,6.7624,6.7039,6.682,6.638,6.5942,6.5665,6.5389,6.5186,6.4929,6.4758,6.4637,6.4411,6.4216,6.4037,6.3892,6.3694,6.3342,6.3117,6.2737,6.2894,6.2963,6.2875,6.2979,6.3186,6.3393,6.3496,6.3496,6.3565,6.3565,6.36,6.36,6.36,8.318,8.318,8.318,8.318,8.318,8.318,8.318,8.318,8.318,8.318,8.318,8.318,8.3083,8.2898,8.234,8.1857,8.1634,8.1188,8.104,8.182,8.2563,8.2809,8.2637,8.2823,8.2898,8.2972,8.3083,8.318,8.318,8.3195,8.3121,8.2935,8.2823,8.2823,8.2586,8.24,8.2288,8.1843,8.1709,8.1374,8.0914,8.0854,8.0854,8.0854,8.0854,8.0765,8.0705,8.0705,8.052,8.0282,8.0134,7.9799,7.9094,7.8809,7.8282,7.7554,7.7172,7.7023,7.6857,7.6775,7.6812,7.6775,7.6812,7.6812,7.6775,7.6738,7.6698,7.6627,7.6512,7.599,7.5245,7.4381,7.4056,7.3835,7.3468,7.3027,7.2389,7.1285,7.0398,6.9958,6.9408,6.9051,6.9015,6.8337,6.7912,6.7717,6.724,6.6708,6.6306,6.5958,6.5634,6.545,6.5226,6.5072,6.455,6.4305,6.4091,6.391,6.3728,6.3584,6.3358,6.3289,6.3289,6.3358,6.3462,6.3565,6.36,6.36,6.3531,6.3565,6.36,6.36,6.36,6.36,6.36,8.318,8.318,8.318,8.318,8.318,8.318,8.318,8.318,8.318,8.318,8.318,8.318,8.318,8.3143,8.2786,8.2563,8.2489,8.2154,8.2117,8.26,8.3032,8.3143,8.318,8.318,8.318,8.318,8.318,8.318,8.318,8.318,8.3195,8.318,8.318,8.3121,8.318,8.318,8.2972,8.2675,8.2563,8.2303,8.1931,8.1894,8.1894,8.1857,8.1894,8.188,8.1931,8.1894,8.1894,8.1857,8.182,8.1263,8.0268,7.9916,7.9534,7.9054,7.8801,7.8649,7.8525,7.8479,7.8479,7.8442,7.8479,7.8222,7.8038,7.7928,7.7625,7.7327,7.7051,7.6763,7.6122,7.5734,7.5241,7.505,7.4632,7.4335,7.393,7.2595,7.139,7.1112,7.0472,7.0082,6.9691,6.9137,6.8766,6.8606,6.7964,6.7467,6.7451,6.7067,6.6458,6.6149,6.5871,6.5473,6.4846,6.4411,6.4144,6.3947,6.3728,6.3637,6.3496,6.3531,6.3565,6.36,6.3565,6.36,6.36,6.36,6.36,6.36,6.36,6.36,6.36,6.36,6.36,8.318,8.318,8.318,8.318,8.318,8.318,8.318,8.318,8.318,8.318,8.318,8.318,8.318,8.3195,8.3158,8.318,8.3158,8.3121,8.2994,8.3069,8.3106,8.318,8.318,8.318,8.318,8.318,8.318,8.318,8.318,8.318,8.318,8.318,8.318,8.318,8.318,8.318,8.3158,8.3083,8.3083,8.3046,8.3009,8.3009,8.3009,8.2972,8.2972,8.292,8.2935,8.2972,8.3069,8.318,8.318,8.2422,8.1436,8.0763,8.0452,8.0154,7.9808,7.9648,7.9517,7.9596,7.9633,7.9816,7.9743,7.9449,7.8935,7.8736,7.85,7.8065,7.7767,7.7568,7.7121,7.6927,7.6838,7.6607,7.5984,7.5616,7.509,7.376,7.2859,7.2122,7.1517,7.1,7.0611,7.0165,6.983,6.9406,6.8763,6.8335,6.8318,6.8002,6.7339,6.6906,6.6646,6.6353,6.5759,6.4918,6.4598,6.4331,6.4044,6.383,6.3722,6.36,6.36,6.36,6.36,6.36,6.36,6.36,6.36,6.36,6.36,6.36,6.36,6.36,6.3703,8.318,8.318,8.318,8.318,8.318,8.318,8.318,8.318,8.318,8.318,8.318,8.318,8.318,8.318,8.318,8.318,8.318,8.318,8.318,8.318,8.318,8.318,8.318,8.318,8.318,8.318,8.318,8.318,8.318,8.318,8.318,8.318,8.318,8.318,8.318,8.318,8.318,8.318,8.318,8.318,8.318,8.318,8.318,8.318,8.318,8.318,8.318,8.318,8.318,8.318,8.318,8.2921,8.2356,8.1688,8.1003,8.0407,8.0178,8.0142,8.0073,7.9926,7.9853,7.9816,7.9963,7.989,7.9669,7.9559,7.9396,7.9286,7.9108,7.8919,7.8158,7.8032,7.7587,7.7068,7.6749,7.6518,7.6235,7.5438,7.4326,7.3557,7.2736,7.1812,7.1405,7.0996,7.0623,7.0198,6.9664,6.9275,6.9189,6.8696,6.8028,6.77,6.7406,6.7129,6.6796,6.5826,6.519,6.5031,6.471,6.418,6.4003,6.3687,6.36,6.3917,6.383,6.3637,6.3637,6.3637,6.3618,6.3618,6.3618,6.36,6.3772,6.3945,6.4186,8.318,8.318,8.318,8.318,8.318,8.318,8.318,8.318,8.318,8.318,8.318,8.318,8.318,8.318,8.318,8.318,8.318,8.318,8.318,8.318,8.318,8.318,8.318,8.318,8.318,8.318,8.318,8.318,8.318,8.318,8.318,8.318,8.318,8.318,8.318,8.318,8.3232,8.3232,8.3232,8.3217,8.3232,8.3232,8.3232,8.3217,8.3217,8.318,8.318,8.318,8.318,8.3165,8.3106,8.2949,8.2724,8.2311,8.1749,8.1271,8.1071,8.0991,8.1028,8.1064,8.1101,8.1064,8.1028,8.0791,8.0534,8.0388,8.0241,7.9926,7.9779,7.9601,7.9102,7.905,7.8615,7.795,7.7651,7.7368,7.697,7.6441,7.5742,7.4919,7.3905,7.2961,7.2058,7.1685,7.1361,7.0972,7.053,7.0231,7.0024,6.9496,6.8896,6.8358,6.8044,6.7623,6.7358,6.6703,6.603,6.5818,6.5465,6.4916,6.4844,6.4809,6.4655,6.4675,6.4394,6.4151,6.3747,6.3818,6.371,6.3671,6.3775,6.386,6.4101,6.4289,6.46,8.318,8.318,8.318,8.318,8.318,8.318,8.318,8.318,8.318,8.318,8.318,8.318,8.318,8.318,8.318,8.318,8.318,8.318,8.318,8.318,8.318,8.318,8.318,8.318,8.318,8.318,8.318,8.318,8.318,8.318,8.318,8.318,8.318,8.318,8.318,8.3455,8.3381,8.3492,8.3641,8.3663,8.3678,8.3678,8.3678,8.3663,8.3678,8.3737,8.3849,8.3901,8.3856,8.3774,8.3632,8.342,8.3145,8.2802,8.2649,8.2548,8.2361,8.2203,8.215,8.2076,8.1929,8.1893,8.2113,8.1782,8.1489,8.1195,8.1012,8.0404,8.033,8.0293,8.0078,8.0021,7.9617,7.9035,7.8631,7.8332,7.7714,7.7233,7.6975,7.6077,7.5034,7.4254,7.3471,7.2755,7.2499,7.1834,7.1339,7.0916,7.0673,7.047,6.989,6.9121,6.8594,6.8099,6.7761,6.7494,6.7032,6.6854,6.6377,6.5863,6.6004,6.6217,6.5975,6.5681,6.5491,6.5229,6.4631,6.4102,6.4237,6.4286,6.4125,6.4311,6.4775,6.5067,6.529,8.318,8.318,8.318,8.318,8.318,8.318,8.318,8.318,8.318,8.318,8.318,8.318,8.318,8.318,8.318,8.318,8.318,8.318,8.318,8.318,8.318,8.318,8.318,8.318,8.318,8.318,8.318,8.318,8.318,8.318,8.318,8.318,8.318,8.3217,8.3418,8.3812,8.422,8.4384,8.4889,8.5223,8.5186,8.5149,8.5149,8.5186,8.5149,8.5075,8.5,8.4985,8.4999,8.4988,8.5016,8.488,8.4514,8.3823,8.3451,8.3096,8.2663,8.2186,8.2186,8.2186,8.2186,8.2186,8.2186,8.215,8.1966,8.1893,8.1856,8.2003,8.1819,8.1452,8.0975,8.0865,8.0424,7.9984,7.9585,7.9166,7.86,7.7903,7.7662,7.7285,7.6206,7.5714,7.5112,7.4337,7.3619,7.2886,7.2185,7.1778,7.1253,7.0946,7.0616,6.9828,6.9301,6.8822,6.8557,6.8271,6.8075,6.7896,6.7524,6.6994,6.7225,6.7457,6.7055,6.6794,6.6619,6.6128,6.5355,6.5001,6.4994,6.5022,6.507,6.5356,6.5707,6.5914,6.6037,8.318,8.318,8.318,8.318,8.318,8.318,8.318,8.318,8.318,8.318,8.318,8.318,8.318,8.318,8.318,8.318,8.318,8.318,8.318,8.318,8.318,8.318,8.318,8.318,8.318,8.318,8.318,8.318,8.318,8.318,8.318,8.318,8.3217,8.3477,8.3737,8.4183,8.4629,8.5,8.5409,8.5595,8.5595,8.5632,8.5632,8.5632,8.5669,8.5669,8.5654,8.5525,8.5464,8.5339,8.5229,8.5,8.4748,8.4408,8.4125,8.4038,8.3324,8.27,8.2296,8.2223,8.2186,8.2186,8.2186,8.2186,8.2186,8.2186,8.2186,8.215,8.2186,8.1966,8.1746,8.1672,8.1195,8.0791,8.0514,8.0,7.9433,7.8778,7.8259,7.7861,7.7448,7.6815,7.6234,7.5498,7.4658,7.3833,7.3241,7.2801,7.1961,7.1089,7.0776,7.0374,6.9955,6.9601,6.9459,6.9264,6.9158,6.9051,6.9069,6.8679,6.8644,6.8592,6.8276,6.8082,6.7958,6.7288,6.6286,6.604,6.6176,6.6151,6.6123,6.643,6.6718,6.6708,6.695,8.318,8.318,8.318,8.318,8.318,8.318,8.318,8.318,8.318,8.318,8.318,8.318,8.318,8.318,8.318,8.318,8.318,8.318,8.318,8.318,8.318,8.318,8.318,8.318,8.318,8.318,8.318,8.318,8.318,8.318,8.318,8.318,8.318,8.3626,8.422,8.4703,8.5223,8.6301,8.6375,8.639,8.6375,8.6338,8.6338,8.6301,8.6226,8.6211,8.615,8.6131,8.609,8.592,8.5812,8.5684,8.5494,8.517,8.4936,8.4646,8.3948,8.3124,8.2663,8.2406,8.2223,8.2186,8.2186,8.2186,8.2186,8.2186,8.2186,8.2186,8.2186,8.2186,8.2186,8.215,8.1819,8.1489,8.1305,8.0755,8.0241,7.9695,7.8946,7.8306,7.7908,7.7542,7.6977,7.6444,7.5682,7.4799,7.4276,7.3825,7.288,7.1759,7.1357,7.1131,7.0587,7.0274,7.0115,7.0044,7.0062,6.9991,7.0009,6.992,6.9655,6.9672,6.9581,6.9456,6.9226,6.9013,6.8375,6.7852,6.7376,6.7336,6.7383,6.755,6.7717,6.7705,6.7938,8.318,8.318,8.318,8.318,8.318,8.318,8.318,8.318,8.318,8.318,8.318,8.318,8.318,8.318,8.318,8.318,8.318,8.318,8.318,8.318,8.318,8.318,8.318,8.318,8.318,8.318,8.318,8.318,8.318,8.318,8.318,8.318,8.318,8.3715,8.4532,8.5372,8.6301,8.7267,8.7579,8.7654,8.7654,8.7675,8.7728,8.775,8.7808,8.7836,8.7641,8.7391,8.7152,8.6906,8.6752,8.6688,8.6366,8.6001,8.5747,8.5453,8.4352,8.3601,8.3287,8.2627,8.2223,8.2186,8.2186,8.2186,8.2186,8.2186,8.2186,8.2186,8.2186,8.2186,8.2186,8.215,8.2076,8.1966,8.1746,8.1489,8.1048,8.0755,7.9968,7.8956,7.8353,7.7955,7.7588,7.704,7.6549,7.5703,7.505,7.4615,7.3934,7.2936,7.2426,7.2005,7.1302,7.0884,7.0658,7.0606,7.0679,7.0537,7.0413,7.0325,7.0166,7.0321,7.0421,7.0436,7.0169,7.036,7.0324,6.9433,6.8786,6.8629,6.8625,6.8672,6.8786,6.8865,6.9133,8.318,8.318,8.318,8.318,8.318,8.318,8.318,8.318,8.318,8.318,8.318,8.318,8.318,8.318,8.318,8.318,8.318,8.318,8.318,8.318,8.318,8.318,8.318,8.318,8.318,8.318,8.318,8.318,8.318,8.318,8.318,8.318,8.3217,8.4087,8.5016,8.6264,8.7378,8.775,8.81,8.81,8.81,8.81,8.81,8.8084,8.7958,8.7874,8.7725,8.7567,8.7418,8.7285,8.7166,8.7064,8.7049,8.6628,8.6518,8.6297,8.4939,8.4205,8.3801,8.2994,8.2223,8.2186,8.2186,8.2223,8.226,8.2223,8.2186,8.2186,8.2186,8.2186,8.2186,8.2186,8.215,8.2186,8.2113,8.1929,8.1709,8.1379,8.0901,7.9874,7.9029,7.839,7.8023,7.7604,7.7113,7.657,7.6005,7.5389,7.476,7.4095,7.355,7.313,7.2496,7.2183,7.1996,7.1715,7.1398,7.1202,7.1006,7.1057,7.1074,7.0733,7.0847,7.0913,7.1107,7.1143,7.0969,7.0516,7.0067,6.9688,6.9601,6.9651,6.9822,6.9991,7.0386,8.318,8.318,8.318,8.318,8.318,8.318,8.318,8.318,8.318,8.318,8.318,8.318,8.318,8.318,8.318,8.318,8.318,8.318,8.318,8.318,8.318,8.318,8.318,8.318,8.318,8.318,8.318,8.318,8.318,8.318,8.318,8.3254,8.3514,8.4421,8.5595,8.7155,8.81,8.81,8.81,8.81,8.81,8.81,8.8037,8.8006,8.7858,8.7713,8.76,8.7418,8.7285,8.7166,8.7118,8.7031,8.7014,8.7014,8.7014,8.6481,8.5673,8.4682,8.4205,8.3214,8.237,8.259,8.2627,8.2627,8.2553,8.2517,8.259,8.2186,8.2186,8.2186,8.2186,8.2186,8.2186,8.2186,8.2186,8.2076,8.2003,8.1746,8.1342,8.0755,7.9984,7.9286,7.8259,7.7839,7.7426,7.7045,7.6643,7.6256,7.5926,7.5257,7.4551,7.42,7.3796,7.3645,7.353,7.31,7.2742,7.264,7.246,7.2342,7.2214,7.1853,7.1886,7.2444,7.2465,7.2066,7.1968,7.1994,7.135,7.0564,7.0608,7.0753,7.1106,7.1332,7.1591,8.318,8.318,8.318,8.318,8.318,8.318,8.318,8.318,8.318,8.318,8.318,8.318,8.318,8.318,8.318,8.318,8.318,8.318,8.318,8.318,8.318,8.318,8.318,8.318,8.318,8.318,8.3343,8.3418,8.3292,8.3589,8.3477,8.37,8.4295,8.4941,8.5743,8.7267,8.8062,8.81,8.81,8.81,8.81,8.8084,8.8021,8.7895,8.7778,8.7632,8.7418,8.7285,8.7166,8.7046,8.7049,8.7014,8.7014,8.7014,8.7014,8.6867,8.5527,8.4756,8.4462,8.303,8.2847,8.3177,8.3161,8.3308,8.3308,8.3234,8.2884,8.2333,8.2186,8.2186,8.2186,8.2186,8.2186,8.2186,8.2186,8.2186,8.2113,8.2076,8.1672,8.1342,8.0975,8.0351,7.9029,7.8023,7.7693,7.7374,7.7171,7.6946,7.6721,7.6282,7.5591,7.5297,7.5019,7.4894,7.474,7.4349,7.4042,7.3978,7.3712,7.3418,7.3461,7.3404,7.3629,7.3994,7.3717,7.3164,7.3446,7.376,7.2969,7.223,7.1837,7.192,7.23,7.2673,7.2902,8.318,8.318,8.318,8.318,8.318,8.318,8.318,8.318,8.318,8.318,8.318,8.318,8.318,8.318,8.318,8.318,8.318,8.318,8.318,8.318,8.318,8.318,8.3217,8.3269,8.3254,8.3381,8.3604,8.4012,8.4049,8.4332,8.4703,8.5,8.5372,8.6078,8.6635,8.7527,8.81,8.81,8.81,8.81,8.81,8.8084,8.799,8.7815,8.7681,8.7501,8.7268,8.7166,8.71,8.6995,8.7014,8.7014,8.7014,8.7014,8.7014,8.6831,8.5857,8.5159,8.4756,8.3948,8.3654,8.3748,8.3895,8.3931,8.3528,8.3418,8.2957,8.2443,8.2223,8.2186,8.2186,8.2186,8.2186,8.2186,8.2186,8.2186,8.215,8.215,8.1966,8.1746,8.1415,8.0718,7.9617,7.8883,7.8442,7.8075,7.7872,7.7317,7.6983,7.6935,7.6512,7.6384,7.6211,7.6081,7.5878,7.5436,7.5181,7.5102,7.4633,7.4139,7.429,7.4697,7.4608,7.4645,7.4488,7.4316,7.4497,7.4599,7.4449,7.4014,7.3579,7.3403,7.3737,7.4009,7.4207,8.318,8.318,8.318,8.318,8.318,8.318,8.318,8.318,8.318,8.318,8.318,8.318,8.318,8.318,8.318,8.318,8.318,8.318,8.318,8.318,8.318,8.318,8.3269,8.3492,8.3715,8.3864,8.4332,8.4815,8.483,8.5335,8.5669,8.6004,8.6524,8.6858,8.7304,8.7839,8.81,8.81,8.81,8.81,8.8068,8.8021,8.7874,8.7697,8.7534,8.7352,8.72,8.7064,8.7014,8.7014,8.7014,8.7014,8.7014,8.7014,8.7014,8.6794,8.6261,8.5416,8.4792,8.4976,8.4682,8.4499,8.4792,8.4572,8.4022,8.3948,8.3214,8.2627,8.226,8.2186,8.2186,8.2186,8.2186,8.2186,8.2186,8.2186,8.2186,8.2186,8.215,8.1929,8.1782,8.1012,8.0351,7.9853,7.9339,7.8956,7.8573,7.7997,7.7369,7.7265,7.7197,7.6993,7.6909,7.6758,7.6627,7.646,7.6277,7.6209,7.5719,7.5155,7.5494,7.5974,7.5634,7.5369,7.5557,7.5583,7.5395,7.5311,7.5405,7.5398,7.5224,7.5155,7.526,7.5267,7.5289,8.318,8.318,8.318,8.318,8.318,8.318,8.318,8.318,8.318,8.318,8.318,8.318,8.318,8.318,8.318,8.318,8.318,8.318,8.318,8.318,8.318,8.3217,8.3552,8.3975,8.4235,8.4666,8.5149,8.5632,8.5632,8.6041,8.6412,8.6709,8.6969,8.7378,8.7802,8.7941,8.8068,8.8084,8.8037,8.8037,8.8006,8.7895,8.7697,8.7534,8.7385,8.7217,8.7081,8.7031,8.7014,8.7014,8.7014,8.7014,8.7014,8.7014,8.7014,8.6794,8.6261,8.5637,8.5233,8.5637,8.5747,8.56,8.5747,8.5343,8.4756,8.4315,8.3581,8.2737,8.2186,8.2186,8.2186,8.2186,8.2186,8.2186,8.2186,8.2186,8.2186,8.2186,8.2186,8.2113,8.2113,8.1636,8.1122,8.0608,8.0293,7.991,7.947,7.894,7.8343,7.7683,7.7557,7.7248,7.7181,7.7227,7.7154,7.6982,7.6945,7.6716,7.6872,7.6542,7.6934,7.6971,7.6594,7.6475,7.6847,7.6852,7.6387,7.6345,7.6589,7.653,7.6279,7.6187,7.6079,7.6052,7.6061,8.318,8.318,8.318,8.318,8.318,8.318,8.318,8.318,8.318,8.318,8.318,8.318,8.318,8.318,8.318,8.318,8.318,8.318,8.318,8.318,8.318,8.3589,8.396,8.4332,8.4755,8.5372,8.5966,8.6486,8.6635,8.6932,8.7304,8.7675,8.7601,8.7898,8.7926,8.7974,8.8006,8.8006,8.7942,8.7911,8.7826,8.7697,8.7534,8.7385,8.7338,8.7186,8.7066,8.7014,8.7014,8.7014,8.7014,8.7014,8.7014,8.7014,8.7014,8.6978,8.6721,8.6537,8.6371,8.6518,8.6591,8.6554,8.6591,8.582,8.5123,8.4425,8.3801,8.2847,8.2223,8.2186,8.2186,8.2186,8.2186,8.2186,8.2186,8.2186,8.2186,8.2186,8.2186,8.2186,8.2186,8.2076,8.1599,8.1562,8.1195,8.0865,8.0424,7.9874,7.9176,7.8479,7.7965,7.7619,7.7326,7.7362,7.7399,7.7279,7.7258,7.7273,7.7509,7.7656,7.753,7.7478,7.7347,7.7368,7.7468,7.738,7.7123,7.7192,7.7348,7.7228,7.6993,7.6925,7.6854,7.6777,7.6643,8.318,8.318,8.318,8.318,8.318,8.318,8.318,8.318,8.318,8.318,8.318,8.318,8.318,8.318,8.318,8.318,8.318,8.318,8.318,8.318,8.318,8.3715,8.4161,8.4778,8.5409,8.6115,8.6784,8.7341,8.7452,8.7675,8.8062,8.8062,8.81,8.8037,8.7974,8.7895,8.781,8.7794,8.7746,8.7697,8.7595,8.7497,8.7385,8.7321,8.7254,8.7135,8.7049,8.7014,8.7014,8.7014,8.7014,8.7014,8.7014,8.7014,8.7014,8.6978,8.6941,8.6904,8.6831,8.6867,8.6978,8.7014,8.6978,8.6077,8.527,8.4499,8.3544,8.259,8.237,8.2186,8.2186,8.2186,8.2186,8.2186,8.2186,8.2186,8.2186,8.2186,8.2186,8.2186,8.2186,8.2186,8.215,8.2186,8.2113,8.1709,8.1342,8.0938,8.0021,7.9029,7.8516,7.8112,7.7693,7.7399,7.7546,7.7839,7.8023,7.8259,7.8589,7.8589,7.8295,7.8243,7.8369,7.8148,7.7913,7.775,7.7625,7.7787,7.7903,7.7839,7.7986,7.8207,7.7918,7.7326,7.7153,8.318,8.318,8.318,8.318,8.318,8.318,8.318,8.318,8.318,8.318,8.318,8.318,8.318,8.318,8.318,8.318,8.318,8.318,8.318,8.318,8.318,8.3715,8.4644,8.5261,8.5966,8.6821,8.749,8.7824,8.8025,8.81,8.81,8.8084,8.8053,8.799,8.7842,8.775,8.7632,8.7551,8.7518,8.7431,8.7468,8.7368,8.7288,8.7254,8.7135,8.7014,8.7014,8.7014,8.7014,8.7014,8.7014,8.7014,8.7014,8.7014,8.7014,8.7014,8.7014,8.7014,8.7014,8.7014,8.7014,8.7014,8.6978,8.6077,8.5233,8.4646,8.3765,8.2627,8.2223,8.2186,8.2186,8.2186,8.2186,8.2186,8.2186,8.2186,8.2186,8.2186,8.2186,8.2186,8.2186,8.2186,8.2186,8.2186,8.2186,8.2113,8.1966,8.1672,8.1048,7.9837,7.925,7.8772,7.8479,7.8259,7.8442,7.8772,7.9029,7.9286,7.9522,7.9486,7.9103,7.9229,7.9449,7.9066,7.8662,7.8316,7.817,7.8442,7.8699,7.8736,7.8993,7.9522,7.915,7.8322,7.8034,8.318,8.318,8.318,8.318,8.318,8.318,8.318,8.318,8.318,8.318,8.318,8.318,8.318,8.318,8.318,8.318,8.318,8.318,8.318,8.318,8.318,8.3997,8.5038,8.5483,8.6412,8.7415,8.801,8.81,8.81,8.81,8.8084,8.8068,8.799,8.7826,8.773,8.7583,8.7418,8.7335,8.7251,8.7251,8.7301,8.7183,8.7083,8.7083,8.7014,8.7014,8.7014,8.7014,8.7014,8.7014,8.7014,8.7014,8.7014,8.7014,8.7014,8.7014,8.7014,8.7014,8.7014,8.7014,8.7014,8.7014,8.6794,8.593,8.5233,8.4829,8.4058,8.2847,8.2186,8.2186,8.2186,8.2186,8.2186,8.2186,8.2186,8.2186,8.2186,8.2186,8.2186,8.2186,8.2186,8.2186,8.2186,8.2186,8.2186,8.2186,8.215,8.2003,8.1746,8.0975,8.0314,7.9837,7.9522,7.9376,7.9486,7.9596,7.9837,7.991,8.0073,8.0,7.9926,8.0073,8.022,7.9816,7.9412,7.914,7.9029,7.9323,7.9522,7.9596,7.9853,8.0293,8.0183,7.948,7.9349,8.318,8.318,8.318,8.318,8.318,8.318,8.318,8.318,8.318,8.318,8.318,8.318,8.318,8.318,8.318,8.318,8.318,8.318,8.318,8.318,8.3366,8.4257,8.5,8.5632,8.6709,8.7675,8.8025,8.81,8.8068,8.8084,8.8068,8.7974,8.7847,8.7734,8.762,8.7352,8.7254,8.7169,8.7029,8.71,8.7186,8.7083,8.7014,8.7014,8.7014,8.7014,8.7014,8.7014,8.7014,8.7014,8.7014,8.7014,8.7014,8.7014,8.7014,8.7014,8.7014,8.7014,8.7014,8.7014,8.7014,8.7014,8.6978,8.6261,8.5013,8.4499,8.3838,8.2774,8.226,8.2186,8.2186,8.2186,8.2186,8.2186,8.2186,8.2186,8.2186,8.2186,8.2186,8.2186,8.2186,8.2186,8.2186,8.2186,8.2186,8.2186,8.2186,8.2186,8.2003,8.1856,8.1269,8.0791,8.044,8.0293,8.0314,8.0424,8.0608,8.0645,8.0645,8.0901,8.1064,8.0991,8.0881,8.055,8.0257,8.0036,8.0036,8.0183,8.0314,8.0351,8.0645,8.1028,8.0791,8.0645,8.0645,8.318,8.318,8.318,8.318,8.318,8.318,8.318,8.318,8.318,8.318,8.318,8.318,8.318,8.318,8.318,8.318,8.318,8.318,8.318,8.318,8.318,8.4257,8.506,8.5676,8.6669,8.7455,8.7884,8.7974,8.7974,8.7958,8.7858,8.7762,8.7681,8.7567,8.7352,8.7254,8.7186,8.71,8.7014,8.7014,8.7031,8.7014,8.7014,8.7014,8.7014,8.7014,8.7014,8.7014,8.7014,8.7014,8.7014,8.7014,8.7014,8.7014,8.7014,8.7014,8.7014,8.7014,8.7014,8.7014,8.7014,8.7014,8.7014,8.6354,8.5086,8.4278,8.3618,8.2884,8.237,8.2186,8.2186,8.2186,8.2186,8.2186,8.2186,8.2186,8.2186,8.2186,8.2186,8.2186,8.2186,8.2186,8.2186,8.2186,8.2186,8.2186,8.2186,8.2186,8.215,8.2076,8.1782,8.1452,8.1138,8.1085,8.1158,8.1158,8.1269,8.1452,8.1525,8.1929,8.2076,8.1746,8.1452,8.1305,8.1012,8.0865,8.0844,8.0901,8.1012,8.1085,8.1305,8.1562,8.1636,8.1562,8.1819,8.318,8.318,8.318,8.318,8.318,8.318,8.318,8.318,8.318,8.318,8.318,8.318,8.318,8.318,8.318,8.318,8.318,8.318,8.318,8.318,8.318,8.4235,8.5252,8.585,8.6429,8.7121,8.766,8.7628,8.7746,8.766,8.7595,8.7546,8.7472,8.7389,8.7321,8.7203,8.7083,8.7014,8.7014,8.7014,8.7014,8.7014,8.7014,8.7014,8.7014,8.7014,8.7014,8.7014,8.7014,8.7014,8.7014,8.7014,8.7014,8.7014,8.7014,8.7014,8.7014,8.7014,8.7014,8.7014,8.7014,8.7014,8.6867,8.628,8.527,8.4572,8.3728,8.259,8.2186,8.2186,8.2186,8.2186,8.2186,8.2186,8.2186,8.2186,8.2186,8.2186,8.2186,8.2186,8.2186,8.2186,8.2186,8.2186,8.2186,8.2186,8.2186,8.2186,8.2186,8.2186,8.2186,8.1966,8.1709,8.1893,8.1929,8.1782,8.1856,8.2076,8.2186,8.2186,8.2186,8.2186,8.1966,8.1746,8.1782,8.1746,8.1746,8.1489,8.1672,8.1746,8.1893,8.2076,8.2186,8.2186,8.2186]}]]